<?xml version="1.0" encoding="UTF-8" standalone="no" ?>
<gpx xmlns="http://www.topografix.com/GPX/1/1" xmlns:xsi="http://www.w3.org/2001/XMLSchema-instance" xsi:schemaLocation="http://www.topografix.com/GPX/1/1 http://www.topografix.com/GPX/1/1/gpx.xsd" version="1.1" creator="VisuGPX - https://www.visugpx.com">
  <metadata>
    <name>FFBMP TUBIZE 12/03/17</name>
    <desc><![CDATA[Très belle marche des ROSES NOIRES de Tubize
N,M,D,B,H des an ATH]]></desc>
  </metadata>
  <trk>
    <name><![CDATA[2017-03-12 15:55:25]]></name>
    <trkseg>
      <trkpt lat="50.68439" lon="4.20108">
        <ele>30.9</ele>
        <time>2017-03-12T08:52:57Z</time>
      </trkpt>
      <trkpt lat="50.68442" lon="4.20093">
        <ele>30.42</ele>
        <time>2017-03-12T08:53:20Z</time>
      </trkpt>
      <trkpt lat="50.68445" lon="4.20093">
        <ele>30.42</ele>
        <time>2017-03-12T08:53:55Z</time>
      </trkpt>
      <trkpt lat="50.68439" lon="4.20117">
        <ele>30.42</ele>
        <time>2017-03-12T08:54:29Z</time>
      </trkpt>
      <trkpt lat="50.68443" lon="4.20108">
        <ele>29.94</ele>
        <time>2017-03-12T08:55:09Z</time>
      </trkpt>
      <trkpt lat="50.68443" lon="4.20115">
        <ele>29.94</ele>
        <time>2017-03-12T08:55:54Z</time>
      </trkpt>
      <trkpt lat="50.68443" lon="4.20111">
        <ele>29.94</ele>
        <time>2017-03-12T08:56:25Z</time>
      </trkpt>
      <trkpt lat="50.68442" lon="4.20095">
        <ele>29.94</ele>
        <time>2017-03-12T08:56:55Z</time>
      </trkpt>
      <trkpt lat="50.68443" lon="4.20101">
        <ele>29.94</ele>
        <time>2017-03-12T08:57:25Z</time>
      </trkpt>
      <trkpt lat="50.68445" lon="4.20103">
        <ele>29.94</ele>
        <time>2017-03-12T08:57:42Z</time>
      </trkpt>
      <trkpt lat="50.68446" lon="4.20108">
        <ele>29.46</ele>
        <time>2017-03-12T08:58:18Z</time>
      </trkpt>
      <trkpt lat="50.68443" lon="4.20109">
        <ele>29.46</ele>
        <time>2017-03-12T08:58:53Z</time>
      </trkpt>
      <trkpt lat="50.68446" lon="4.20103">
        <ele>29.46</ele>
        <time>2017-03-12T08:59:21Z</time>
      </trkpt>
      <trkpt lat="50.68443" lon="4.20108">
        <ele>29.46</ele>
        <time>2017-03-12T08:59:51Z</time>
      </trkpt>
      <trkpt lat="50.68443" lon="4.20105">
        <ele>29.46</ele>
        <time>2017-03-12T09:00:39Z</time>
      </trkpt>
      <trkpt lat="50.68443" lon="4.20103">
        <ele>29.46</ele>
        <time>2017-03-12T09:01:04Z</time>
      </trkpt>
      <trkpt lat="50.68446" lon="4.20104">
        <ele>23.21</ele>
        <time>2017-03-12T09:01:16Z</time>
      </trkpt>
      <trkpt lat="50.68446" lon="4.20104">
        <ele>30.42</ele>
        <time>2017-03-12T09:01:17Z</time>
      </trkpt>
      <trkpt lat="50.68438" lon="4.20116">
        <ele>30.42</ele>
        <time>2017-03-12T09:01:38Z</time>
      </trkpt>
      <trkpt lat="50.68437" lon="4.20118">
        <ele>26.57</ele>
        <time>2017-03-12T09:01:47Z</time>
      </trkpt>
      <trkpt lat="50.68438" lon="4.20119">
        <ele>32.34</ele>
        <time>2017-03-12T09:01:48Z</time>
      </trkpt>
      <trkpt lat="50.68441" lon="4.20136">
        <ele>29.94</ele>
        <time>2017-03-12T09:02:09Z</time>
      </trkpt>
      <trkpt lat="50.68443" lon="4.20134">
        <ele>30.42</ele>
        <time>2017-03-12T09:02:15Z</time>
      </trkpt>
      <trkpt lat="50.6844" lon="4.20138">
        <ele>29.46</ele>
        <time>2017-03-12T09:02:31Z</time>
      </trkpt>
      <trkpt lat="50.68439" lon="4.20141">
        <ele>29.46</ele>
        <time>2017-03-12T09:02:43Z</time>
      </trkpt>
      <trkpt lat="50.68439" lon="4.20145">
        <ele>29.94</ele>
        <time>2017-03-12T09:02:47Z</time>
      </trkpt>
      <trkpt lat="50.6843" lon="4.20166">
        <ele>29.94</ele>
        <time>2017-03-12T09:03:02Z</time>
      </trkpt>
      <trkpt lat="50.68429" lon="4.20166">
        <ele>29.94</ele>
        <time>2017-03-12T09:03:04Z</time>
      </trkpt>
      <trkpt lat="50.68421" lon="4.20164">
        <ele>29.94</ele>
        <time>2017-03-12T09:03:12Z</time>
      </trkpt>
      <trkpt lat="50.68405" lon="4.20158">
        <ele>30.42</ele>
        <time>2017-03-12T09:03:26Z</time>
      </trkpt>
      <trkpt lat="50.68393" lon="4.20148">
        <ele>30.42</ele>
        <time>2017-03-12T09:03:38Z</time>
      </trkpt>
      <trkpt lat="50.68378" lon="4.20136">
        <ele>30.42</ele>
        <time>2017-03-12T09:03:54Z</time>
      </trkpt>
      <trkpt lat="50.68367" lon="4.20125">
        <ele>30.42</ele>
        <time>2017-03-12T09:04:05Z</time>
      </trkpt>
      <trkpt lat="50.68348" lon="4.20112">
        <ele>29.94</ele>
        <time>2017-03-12T09:04:20Z</time>
      </trkpt>
      <trkpt lat="50.6833" lon="4.20101">
        <ele>30.42</ele>
        <time>2017-03-12T09:04:36Z</time>
      </trkpt>
      <trkpt lat="50.68324" lon="4.20097">
        <ele>30.42</ele>
        <time>2017-03-12T09:04:41Z</time>
      </trkpt>
      <trkpt lat="50.68304" lon="4.20083">
        <ele>30.42</ele>
        <time>2017-03-12T09:04:58Z</time>
      </trkpt>
      <trkpt lat="50.68297" lon="4.20076">
        <ele>30.42</ele>
        <time>2017-03-12T09:05:05Z</time>
      </trkpt>
      <trkpt lat="50.6829" lon="4.20072">
        <ele>30.42</ele>
        <time>2017-03-12T09:05:15Z</time>
      </trkpt>
      <trkpt lat="50.68283" lon="4.20067">
        <ele>30.42</ele>
        <time>2017-03-12T09:05:21Z</time>
      </trkpt>
      <trkpt lat="50.68266" lon="4.20054">
        <ele>29.94</ele>
        <time>2017-03-12T09:05:35Z</time>
      </trkpt>
      <trkpt lat="50.68249" lon="4.20039">
        <ele>29.94</ele>
        <time>2017-03-12T09:05:50Z</time>
      </trkpt>
      <trkpt lat="50.68236" lon="4.20029">
        <ele>29.94</ele>
        <time>2017-03-12T09:06:03Z</time>
      </trkpt>
      <trkpt lat="50.68215" lon="4.20018">
        <ele>29.94</ele>
        <time>2017-03-12T09:06:20Z</time>
      </trkpt>
      <trkpt lat="50.68198" lon="4.20005">
        <ele>29.94</ele>
        <time>2017-03-12T09:06:35Z</time>
      </trkpt>
      <trkpt lat="50.68178" lon="4.19987">
        <ele>29.94</ele>
        <time>2017-03-12T09:06:52Z</time>
      </trkpt>
      <trkpt lat="50.68159" lon="4.19974">
        <ele>29.94</ele>
        <time>2017-03-12T09:07:09Z</time>
      </trkpt>
      <trkpt lat="50.68146" lon="4.19965">
        <ele>29.94</ele>
        <time>2017-03-12T09:07:20Z</time>
      </trkpt>
      <trkpt lat="50.68129" lon="4.19955">
        <ele>31.38</ele>
        <time>2017-03-12T09:07:33Z</time>
      </trkpt>
      <trkpt lat="50.68115" lon="4.19944">
        <ele>31.38</ele>
        <time>2017-03-12T09:07:46Z</time>
      </trkpt>
      <trkpt lat="50.68094" lon="4.19928">
        <ele>31.38</ele>
        <time>2017-03-12T09:08:02Z</time>
      </trkpt>
      <trkpt lat="50.68092" lon="4.19928">
        <ele>31.38</ele>
        <time>2017-03-12T09:08:04Z</time>
      </trkpt>
      <trkpt lat="50.68076" lon="4.19915">
        <ele>31.86</ele>
        <time>2017-03-12T09:08:20Z</time>
      </trkpt>
      <trkpt lat="50.68057" lon="4.19896">
        <ele>32.34</ele>
        <time>2017-03-12T09:08:36Z</time>
      </trkpt>
      <trkpt lat="50.68056" lon="4.19895">
        <ele>32.34</ele>
        <time>2017-03-12T09:08:37Z</time>
      </trkpt>
      <trkpt lat="50.6804" lon="4.19882">
        <ele>33.78</ele>
        <time>2017-03-12T09:08:51Z</time>
      </trkpt>
      <trkpt lat="50.68024" lon="4.19873">
        <ele>33.78</ele>
        <time>2017-03-12T09:09:05Z</time>
      </trkpt>
      <trkpt lat="50.68005" lon="4.19858">
        <ele>33.78</ele>
        <time>2017-03-12T09:09:21Z</time>
      </trkpt>
      <trkpt lat="50.67987" lon="4.19848">
        <ele>33.78</ele>
        <time>2017-03-12T09:09:35Z</time>
      </trkpt>
      <trkpt lat="50.67967" lon="4.19839">
        <ele>33.78</ele>
        <time>2017-03-12T09:09:50Z</time>
      </trkpt>
      <trkpt lat="50.67951" lon="4.19831">
        <ele>33.78</ele>
        <time>2017-03-12T09:10:04Z</time>
      </trkpt>
      <trkpt lat="50.67937" lon="4.19823">
        <ele>34.26</ele>
        <time>2017-03-12T09:10:17Z</time>
      </trkpt>
      <trkpt lat="50.67921" lon="4.19821">
        <ele>34.74</ele>
        <time>2017-03-12T09:10:31Z</time>
      </trkpt>
      <trkpt lat="50.67903" lon="4.19812">
        <ele>35.23</ele>
        <time>2017-03-12T09:10:47Z</time>
      </trkpt>
      <trkpt lat="50.67886" lon="4.19804">
        <ele>35.23</ele>
        <time>2017-03-12T09:11:03Z</time>
      </trkpt>
      <trkpt lat="50.6787" lon="4.19796">
        <ele>35.23</ele>
        <time>2017-03-12T09:11:18Z</time>
      </trkpt>
      <trkpt lat="50.67857" lon="4.19788">
        <ele>35.71</ele>
        <time>2017-03-12T09:11:33Z</time>
      </trkpt>
      <trkpt lat="50.67852" lon="4.19783">
        <ele>35.71</ele>
        <time>2017-03-12T09:11:47Z</time>
      </trkpt>
      <trkpt lat="50.67837" lon="4.19775">
        <ele>36.19</ele>
        <time>2017-03-12T09:12:01Z</time>
      </trkpt>
      <trkpt lat="50.67818" lon="4.19765">
        <ele>36.19</ele>
        <time>2017-03-12T09:12:18Z</time>
      </trkpt>
      <trkpt lat="50.67796" lon="4.19752">
        <ele>36.67</ele>
        <time>2017-03-12T09:12:36Z</time>
      </trkpt>
      <trkpt lat="50.67771" lon="4.19739">
        <ele>36.67</ele>
        <time>2017-03-12T09:12:55Z</time>
      </trkpt>
      <trkpt lat="50.67751" lon="4.19728">
        <ele>36.67</ele>
        <time>2017-03-12T09:13:11Z</time>
      </trkpt>
      <trkpt lat="50.67725" lon="4.19714">
        <ele>37.15</ele>
        <time>2017-03-12T09:13:33Z</time>
      </trkpt>
      <trkpt lat="50.67707" lon="4.19705">
        <ele>37.15</ele>
        <time>2017-03-12T09:13:49Z</time>
      </trkpt>
      <trkpt lat="50.67698" lon="4.19702">
        <ele>37.15</ele>
        <time>2017-03-12T09:14:05Z</time>
      </trkpt>
      <trkpt lat="50.67692" lon="4.19706">
        <ele>35.71</ele>
        <time>2017-03-12T09:14:12Z</time>
      </trkpt>
      <trkpt lat="50.67671" lon="4.19706">
        <ele>34.74</ele>
        <time>2017-03-12T09:14:29Z</time>
      </trkpt>
      <trkpt lat="50.67669" lon="4.19705">
        <ele>34.74</ele>
        <time>2017-03-12T09:14:31Z</time>
      </trkpt>
      <trkpt lat="50.67655" lon="4.19692">
        <ele>36.19</ele>
        <time>2017-03-12T09:14:45Z</time>
      </trkpt>
      <trkpt lat="50.67637" lon="4.19677">
        <ele>36.19</ele>
        <time>2017-03-12T09:15:01Z</time>
      </trkpt>
      <trkpt lat="50.67617" lon="4.1966">
        <ele>36.19</ele>
        <time>2017-03-12T09:15:19Z</time>
      </trkpt>
      <trkpt lat="50.67598" lon="4.19645">
        <ele>36.67</ele>
        <time>2017-03-12T09:15:35Z</time>
      </trkpt>
      <trkpt lat="50.67581" lon="4.19629">
        <ele>36.67</ele>
        <time>2017-03-12T09:15:50Z</time>
      </trkpt>
      <trkpt lat="50.67563" lon="4.19612">
        <ele>36.67</ele>
        <time>2017-03-12T09:16:06Z</time>
      </trkpt>
      <trkpt lat="50.67547" lon="4.19591">
        <ele>36.67</ele>
        <time>2017-03-12T09:16:23Z</time>
      </trkpt>
      <trkpt lat="50.67536" lon="4.19571">
        <ele>36.67</ele>
        <time>2017-03-12T09:16:36Z</time>
      </trkpt>
      <trkpt lat="50.67533" lon="4.19564">
        <ele>37.15</ele>
        <time>2017-03-12T09:16:41Z</time>
      </trkpt>
      <trkpt lat="50.67525" lon="4.19546">
        <ele>38.11</ele>
        <time>2017-03-12T09:16:54Z</time>
      </trkpt>
      <trkpt lat="50.67521" lon="4.19537">
        <ele>39.07</ele>
        <time>2017-03-12T09:17:00Z</time>
      </trkpt>
      <trkpt lat="50.67519" lon="4.19533">
        <ele>39.07</ele>
        <time>2017-03-12T09:17:03Z</time>
      </trkpt>
      <trkpt lat="50.67517" lon="4.1953">
        <ele>39.55</ele>
        <time>2017-03-12T09:17:05Z</time>
      </trkpt>
      <trkpt lat="50.6751" lon="4.19514">
        <ele>40.99</ele>
        <time>2017-03-12T09:17:17Z</time>
      </trkpt>
      <trkpt lat="50.67506" lon="4.19502">
        <ele>41.47</ele>
        <time>2017-03-12T09:17:24Z</time>
      </trkpt>
      <trkpt lat="50.67496" lon="4.19471">
        <ele>44.36</ele>
        <time>2017-03-12T09:17:42Z</time>
      </trkpt>
      <trkpt lat="50.67482" lon="4.19451">
        <ele>46.76</ele>
        <time>2017-03-12T09:17:57Z</time>
      </trkpt>
      <trkpt lat="50.67479" lon="4.19441">
        <ele>47.24</ele>
        <time>2017-03-12T09:18:03Z</time>
      </trkpt>
      <trkpt lat="50.6747" lon="4.19416">
        <ele>48.2</ele>
        <time>2017-03-12T09:18:19Z</time>
      </trkpt>
      <trkpt lat="50.67461" lon="4.19383">
        <ele>50.13</ele>
        <time>2017-03-12T09:18:37Z</time>
      </trkpt>
      <trkpt lat="50.67452" lon="4.19355">
        <ele>52.05</ele>
        <time>2017-03-12T09:18:54Z</time>
      </trkpt>
      <trkpt lat="50.67444" lon="4.19331">
        <ele>53.49</ele>
        <time>2017-03-12T09:19:11Z</time>
      </trkpt>
      <trkpt lat="50.67439" lon="4.19319">
        <ele>54.45</ele>
        <time>2017-03-12T09:19:25Z</time>
      </trkpt>
      <trkpt lat="50.67428" lon="4.19285">
        <ele>56.37</ele>
        <time>2017-03-12T09:19:44Z</time>
      </trkpt>
      <trkpt lat="50.67423" lon="4.19264">
        <ele>57.82</ele>
        <time>2017-03-12T09:19:59Z</time>
      </trkpt>
      <trkpt lat="50.67422" lon="4.19261">
        <ele>57.82</ele>
        <time>2017-03-12T09:20:01Z</time>
      </trkpt>
      <trkpt lat="50.6742" lon="4.19231">
        <ele>59.26</ele>
        <time>2017-03-12T09:20:17Z</time>
      </trkpt>
      <trkpt lat="50.67421" lon="4.19206">
        <ele>60.22</ele>
        <time>2017-03-12T09:20:33Z</time>
      </trkpt>
      <trkpt lat="50.67427" lon="4.19178">
        <ele>62.14</ele>
        <time>2017-03-12T09:20:50Z</time>
      </trkpt>
      <trkpt lat="50.67427" lon="4.19177">
        <ele>56.86</ele>
        <time>2017-03-12T09:20:53Z</time>
      </trkpt>
      <trkpt lat="50.67427" lon="4.19177">
        <ele>65.03</ele>
        <time>2017-03-12T09:20:54Z</time>
      </trkpt>
      <trkpt lat="50.67427" lon="4.19177">
        <ele>62.14</ele>
        <time>2017-03-12T09:21:00Z</time>
      </trkpt>
      <trkpt lat="50.67426" lon="4.19175">
        <ele>63.1</ele>
        <time>2017-03-12T09:21:18Z</time>
      </trkpt>
      <trkpt lat="50.67426" lon="4.19175">
        <ele>61.66</ele>
        <time>2017-03-12T09:21:21Z</time>
      </trkpt>
      <trkpt lat="50.67426" lon="4.19174">
        <ele>63.58</ele>
        <time>2017-03-12T09:21:27Z</time>
      </trkpt>
      <trkpt lat="50.67426" lon="4.19174">
        <ele>62.14</ele>
        <time>2017-03-12T09:21:29Z</time>
      </trkpt>
      <trkpt lat="50.67426" lon="4.19176">
        <ele>63.1</ele>
        <time>2017-03-12T09:21:39Z</time>
      </trkpt>
      <trkpt lat="50.67429" lon="4.19176">
        <ele>59.74</ele>
        <time>2017-03-12T09:21:51Z</time>
      </trkpt>
      <trkpt lat="50.67429" lon="4.19176">
        <ele>63.1</ele>
        <time>2017-03-12T09:21:54Z</time>
      </trkpt>
      <trkpt lat="50.67427" lon="4.19176">
        <ele>61.66</ele>
        <time>2017-03-12T09:22:08Z</time>
      </trkpt>
      <trkpt lat="50.67426" lon="4.19173">
        <ele>63.1</ele>
        <time>2017-03-12T09:22:26Z</time>
      </trkpt>
      <trkpt lat="50.67418" lon="4.19148">
        <ele>64.55</ele>
        <time>2017-03-12T09:22:43Z</time>
      </trkpt>
      <trkpt lat="50.67418" lon="4.19146">
        <ele>64.55</ele>
        <time>2017-03-12T09:22:44Z</time>
      </trkpt>
      <trkpt lat="50.67416" lon="4.19118">
        <ele>65.51</ele>
        <time>2017-03-12T09:22:59Z</time>
      </trkpt>
      <trkpt lat="50.67413" lon="4.19108">
        <ele>64.07</ele>
        <time>2017-03-12T09:23:04Z</time>
      </trkpt>
      <trkpt lat="50.67412" lon="4.19103">
        <ele>66.47</ele>
        <time>2017-03-12T09:23:07Z</time>
      </trkpt>
      <trkpt lat="50.67412" lon="4.19101">
        <ele>66.47</ele>
        <time>2017-03-12T09:23:08Z</time>
      </trkpt>
      <trkpt lat="50.67411" lon="4.19097">
        <ele>64.55</ele>
        <time>2017-03-12T09:23:10Z</time>
      </trkpt>
      <trkpt lat="50.67411" lon="4.19092">
        <ele>66.47</ele>
        <time>2017-03-12T09:23:12Z</time>
      </trkpt>
      <trkpt lat="50.6741" lon="4.19089">
        <ele>64.55</ele>
        <time>2017-03-12T09:23:14Z</time>
      </trkpt>
      <trkpt lat="50.67407" lon="4.19083">
        <ele>68.39</ele>
        <time>2017-03-12T09:23:26Z</time>
      </trkpt>
      <trkpt lat="50.67407" lon="4.19084">
        <ele>65.03</ele>
        <time>2017-03-12T09:23:27Z</time>
      </trkpt>
      <trkpt lat="50.67405" lon="4.19089">
        <ele>65.03</ele>
        <time>2017-03-12T09:23:32Z</time>
      </trkpt>
      <trkpt lat="50.67402" lon="4.19101">
        <ele>65.03</ele>
        <time>2017-03-12T09:23:41Z</time>
      </trkpt>
      <trkpt lat="50.67402" lon="4.19102">
        <ele>63.58</ele>
        <time>2017-03-12T09:23:44Z</time>
      </trkpt>
      <trkpt lat="50.67396" lon="4.19121">
        <ele>64.55</ele>
        <time>2017-03-12T09:24:00Z</time>
      </trkpt>
      <trkpt lat="50.67395" lon="4.19125">
        <ele>62.14</ele>
        <time>2017-03-12T09:24:02Z</time>
      </trkpt>
      <trkpt lat="50.67394" lon="4.19135">
        <ele>62.14</ele>
        <time>2017-03-12T09:24:06Z</time>
      </trkpt>
      <trkpt lat="50.67389" lon="4.19162">
        <ele>63.1</ele>
        <time>2017-03-12T09:24:22Z</time>
      </trkpt>
      <trkpt lat="50.67386" lon="4.19179">
        <ele>59.26</ele>
        <time>2017-03-12T09:24:33Z</time>
      </trkpt>
      <trkpt lat="50.67382" lon="4.19195">
        <ele>60.22</ele>
        <time>2017-03-12T09:24:43Z</time>
      </trkpt>
      <trkpt lat="50.67381" lon="4.19198">
        <ele>58.78</ele>
        <time>2017-03-12T09:24:45Z</time>
      </trkpt>
      <trkpt lat="50.67378" lon="4.19213">
        <ele>57.82</ele>
        <time>2017-03-12T09:24:55Z</time>
      </trkpt>
      <trkpt lat="50.67375" lon="4.19229">
        <ele>58.78</ele>
        <time>2017-03-12T09:25:03Z</time>
      </trkpt>
      <trkpt lat="50.67375" lon="4.19234">
        <ele>56.86</ele>
        <time>2017-03-12T09:25:06Z</time>
      </trkpt>
      <trkpt lat="50.67366" lon="4.19263">
        <ele>56.37</ele>
        <time>2017-03-12T09:25:20Z</time>
      </trkpt>
      <trkpt lat="50.67364" lon="4.19274">
        <ele>57.34</ele>
        <time>2017-03-12T09:25:25Z</time>
      </trkpt>
      <trkpt lat="50.67362" lon="4.19285">
        <ele>55.41</ele>
        <time>2017-03-12T09:25:32Z</time>
      </trkpt>
      <trkpt lat="50.67361" lon="4.19289">
        <ele>54.45</ele>
        <time>2017-03-12T09:25:34Z</time>
      </trkpt>
      <trkpt lat="50.67359" lon="4.19301">
        <ele>55.41</ele>
        <time>2017-03-12T09:25:42Z</time>
      </trkpt>
      <trkpt lat="50.67358" lon="4.19306">
        <ele>53.49</ele>
        <time>2017-03-12T09:25:45Z</time>
      </trkpt>
      <trkpt lat="50.67354" lon="4.19318">
        <ele>54.45</ele>
        <time>2017-03-12T09:25:58Z</time>
      </trkpt>
      <trkpt lat="50.67353" lon="4.1932">
        <ele>53.01</ele>
        <time>2017-03-12T09:26:00Z</time>
      </trkpt>
      <trkpt lat="50.67351" lon="4.19328">
        <ele>51.57</ele>
        <time>2017-03-12T09:26:04Z</time>
      </trkpt>
      <trkpt lat="50.67349" lon="4.19341">
        <ele>50.13</ele>
        <time>2017-03-12T09:26:11Z</time>
      </trkpt>
      <trkpt lat="50.67349" lon="4.19349">
        <ele>48.68</ele>
        <time>2017-03-12T09:26:17Z</time>
      </trkpt>
      <trkpt lat="50.6735" lon="4.19359">
        <ele>48.68</ele>
        <time>2017-03-12T09:26:23Z</time>
      </trkpt>
      <trkpt lat="50.67354" lon="4.19384">
        <ele>45.32</ele>
        <time>2017-03-12T09:26:38Z</time>
      </trkpt>
      <trkpt lat="50.67358" lon="4.19416">
        <ele>43.88</ele>
        <time>2017-03-12T09:26:55Z</time>
      </trkpt>
      <trkpt lat="50.67359" lon="4.19438">
        <ele>43.88</ele>
        <time>2017-03-12T09:27:03Z</time>
      </trkpt>
      <trkpt lat="50.6736" lon="4.19445">
        <ele>41.95</ele>
        <time>2017-03-12T09:27:06Z</time>
      </trkpt>
      <trkpt lat="50.6736" lon="4.1945">
        <ele>42.92</ele>
        <time>2017-03-12T09:27:08Z</time>
      </trkpt>
      <trkpt lat="50.67361" lon="4.19458">
        <ele>40.99</ele>
        <time>2017-03-12T09:27:12Z</time>
      </trkpt>
      <trkpt lat="50.67364" lon="4.1946">
        <ele>42.44</ele>
        <time>2017-03-12T09:27:14Z</time>
      </trkpt>
      <trkpt lat="50.67366" lon="4.19463">
        <ele>40.51</ele>
        <time>2017-03-12T09:27:16Z</time>
      </trkpt>
      <trkpt lat="50.67366" lon="4.19465">
        <ele>40.51</ele>
        <time>2017-03-12T09:27:17Z</time>
      </trkpt>
      <trkpt lat="50.67369" lon="4.19468">
        <ele>42.44</ele>
        <time>2017-03-12T09:27:19Z</time>
      </trkpt>
      <trkpt lat="50.67378" lon="4.1949">
        <ele>41.95</ele>
        <time>2017-03-12T09:27:34Z</time>
      </trkpt>
      <trkpt lat="50.67375" lon="4.19491">
        <ele>40.51</ele>
        <time>2017-03-12T09:27:37Z</time>
      </trkpt>
      <trkpt lat="50.67365" lon="4.19483">
        <ele>41.47</ele>
        <time>2017-03-12T09:27:44Z</time>
      </trkpt>
      <trkpt lat="50.6735" lon="4.19474">
        <ele>41.47</ele>
        <time>2017-03-12T09:27:54Z</time>
      </trkpt>
      <trkpt lat="50.67345" lon="4.19473">
        <ele>40.03</ele>
        <time>2017-03-12T09:27:57Z</time>
      </trkpt>
      <trkpt lat="50.67337" lon="4.19471">
        <ele>40.99</ele>
        <time>2017-03-12T09:28:05Z</time>
      </trkpt>
      <trkpt lat="50.67323" lon="4.19469">
        <ele>38.59</ele>
        <time>2017-03-12T09:28:17Z</time>
      </trkpt>
      <trkpt lat="50.67313" lon="4.19471">
        <ele>39.55</ele>
        <time>2017-03-12T09:28:24Z</time>
      </trkpt>
      <trkpt lat="50.67308" lon="4.19472">
        <ele>40.99</ele>
        <time>2017-03-12T09:28:27Z</time>
      </trkpt>
      <trkpt lat="50.67297" lon="4.19475">
        <ele>38.11</ele>
        <time>2017-03-12T09:28:41Z</time>
      </trkpt>
      <trkpt lat="50.67295" lon="4.19476">
        <ele>40.99</ele>
        <time>2017-03-12T09:28:43Z</time>
      </trkpt>
      <trkpt lat="50.67292" lon="4.19478">
        <ele>40.99</ele>
        <time>2017-03-12T09:28:45Z</time>
      </trkpt>
      <trkpt lat="50.67289" lon="4.19479">
        <ele>39.55</ele>
        <time>2017-03-12T09:28:47Z</time>
      </trkpt>
      <trkpt lat="50.67286" lon="4.1948">
        <ele>41.47</ele>
        <time>2017-03-12T09:28:49Z</time>
      </trkpt>
      <trkpt lat="50.67283" lon="4.1948">
        <ele>39.07</ele>
        <time>2017-03-12T09:28:52Z</time>
      </trkpt>
      <trkpt lat="50.67278" lon="4.1948">
        <ele>40.51</ele>
        <time>2017-03-12T09:28:56Z</time>
      </trkpt>
      <trkpt lat="50.67271" lon="4.19476">
        <ele>40.99</ele>
        <time>2017-03-12T09:29:03Z</time>
      </trkpt>
      <trkpt lat="50.67266" lon="4.19469">
        <ele>39.07</ele>
        <time>2017-03-12T09:29:08Z</time>
      </trkpt>
      <trkpt lat="50.6725" lon="4.19449">
        <ele>39.55</ele>
        <time>2017-03-12T09:29:24Z</time>
      </trkpt>
      <trkpt lat="50.6724" lon="4.19443">
        <ele>39.55</ele>
        <time>2017-03-12T09:29:33Z</time>
      </trkpt>
      <trkpt lat="50.6724" lon="4.19426">
        <ele>41.47</ele>
        <time>2017-03-12T09:29:41Z</time>
      </trkpt>
      <trkpt lat="50.67235" lon="4.19416">
        <ele>39.55</ele>
        <time>2017-03-12T09:29:48Z</time>
      </trkpt>
      <trkpt lat="50.6723" lon="4.19411">
        <ele>40.99</ele>
        <time>2017-03-12T09:29:53Z</time>
      </trkpt>
      <trkpt lat="50.67217" lon="4.19396">
        <ele>39.55</ele>
        <time>2017-03-12T09:30:05Z</time>
      </trkpt>
      <trkpt lat="50.67211" lon="4.19389">
        <ele>41.95</ele>
        <time>2017-03-12T09:30:11Z</time>
      </trkpt>
      <trkpt lat="50.67208" lon="4.19387">
        <ele>39.55</ele>
        <time>2017-03-12T09:30:14Z</time>
      </trkpt>
      <trkpt lat="50.67198" lon="4.19382">
        <ele>39.55</ele>
        <time>2017-03-12T09:30:21Z</time>
      </trkpt>
      <trkpt lat="50.67196" lon="4.1938">
        <ele>41.47</ele>
        <time>2017-03-12T09:30:23Z</time>
      </trkpt>
      <trkpt lat="50.67193" lon="4.19379">
        <ele>39.55</ele>
        <time>2017-03-12T09:30:25Z</time>
      </trkpt>
      <trkpt lat="50.67191" lon="4.19379">
        <ele>40.99</ele>
        <time>2017-03-12T09:30:27Z</time>
      </trkpt>
      <trkpt lat="50.67188" lon="4.19379">
        <ele>40.03</ele>
        <time>2017-03-12T09:30:30Z</time>
      </trkpt>
      <trkpt lat="50.67178" lon="4.19377">
        <ele>41.95</ele>
        <time>2017-03-12T09:30:37Z</time>
      </trkpt>
      <trkpt lat="50.67169" lon="4.19374">
        <ele>39.55</ele>
        <time>2017-03-12T09:30:44Z</time>
      </trkpt>
      <trkpt lat="50.67166" lon="4.19374">
        <ele>41.95</ele>
        <time>2017-03-12T09:30:46Z</time>
      </trkpt>
      <trkpt lat="50.67159" lon="4.19373">
        <ele>38.59</ele>
        <time>2017-03-12T09:30:52Z</time>
      </trkpt>
      <trkpt lat="50.67157" lon="4.19373">
        <ele>42.44</ele>
        <time>2017-03-12T09:30:54Z</time>
      </trkpt>
      <trkpt lat="50.67154" lon="4.19371">
        <ele>39.55</ele>
        <time>2017-03-12T09:30:57Z</time>
      </trkpt>
      <trkpt lat="50.67141" lon="4.19368">
        <ele>39.55</ele>
        <time>2017-03-12T09:31:08Z</time>
      </trkpt>
      <trkpt lat="50.67138" lon="4.19367">
        <ele>41.47</ele>
        <time>2017-03-12T09:31:10Z</time>
      </trkpt>
      <trkpt lat="50.67127" lon="4.19364">
        <ele>41.47</ele>
        <time>2017-03-12T09:31:18Z</time>
      </trkpt>
      <trkpt lat="50.67107" lon="4.19361">
        <ele>41.95</ele>
        <time>2017-03-12T09:31:33Z</time>
      </trkpt>
      <trkpt lat="50.67106" lon="4.19361">
        <ele>41.95</ele>
        <time>2017-03-12T09:31:34Z</time>
      </trkpt>
      <trkpt lat="50.67102" lon="4.19359">
        <ele>40.03</ele>
        <time>2017-03-12T09:31:37Z</time>
      </trkpt>
      <trkpt lat="50.67096" lon="4.19349">
        <ele>39.55</ele>
        <time>2017-03-12T09:31:45Z</time>
      </trkpt>
      <trkpt lat="50.67095" lon="4.19348">
        <ele>42.92</ele>
        <time>2017-03-12T09:31:46Z</time>
      </trkpt>
      <trkpt lat="50.67093" lon="4.19345">
        <ele>40.03</ele>
        <time>2017-03-12T09:31:48Z</time>
      </trkpt>
      <trkpt lat="50.67089" lon="4.19341">
        <ele>41.95</ele>
        <time>2017-03-12T09:31:51Z</time>
      </trkpt>
      <trkpt lat="50.67083" lon="4.1933">
        <ele>41.95</ele>
        <time>2017-03-12T09:31:58Z</time>
      </trkpt>
      <trkpt lat="50.67079" lon="4.19325">
        <ele>38.59</ele>
        <time>2017-03-12T09:32:02Z</time>
      </trkpt>
      <trkpt lat="50.67071" lon="4.19314">
        <ele>41.95</ele>
        <time>2017-03-12T09:32:10Z</time>
      </trkpt>
      <trkpt lat="50.67066" lon="4.19304">
        <ele>39.55</ele>
        <time>2017-03-12T09:32:17Z</time>
      </trkpt>
      <trkpt lat="50.67061" lon="4.19297">
        <ele>40.99</ele>
        <time>2017-03-12T09:32:22Z</time>
      </trkpt>
      <trkpt lat="50.67058" lon="4.19294">
        <ele>39.55</ele>
        <time>2017-03-12T09:32:25Z</time>
      </trkpt>
      <trkpt lat="50.67053" lon="4.19288">
        <ele>42.44</ele>
        <time>2017-03-12T09:32:30Z</time>
      </trkpt>
      <trkpt lat="50.67051" lon="4.19287">
        <ele>39.07</ele>
        <time>2017-03-12T09:32:32Z</time>
      </trkpt>
      <trkpt lat="50.67049" lon="4.19286">
        <ele>41.95</ele>
        <time>2017-03-12T09:32:33Z</time>
      </trkpt>
      <trkpt lat="50.67045" lon="4.19284">
        <ele>38.11</ele>
        <time>2017-03-12T09:32:36Z</time>
      </trkpt>
      <trkpt lat="50.67043" lon="4.19282">
        <ele>42.92</ele>
        <time>2017-03-12T09:32:38Z</time>
      </trkpt>
      <trkpt lat="50.67042" lon="4.19282">
        <ele>41.47</ele>
        <time>2017-03-12T09:32:39Z</time>
      </trkpt>
      <trkpt lat="50.67031" lon="4.19278">
        <ele>42.44</ele>
        <time>2017-03-12T09:32:47Z</time>
      </trkpt>
      <trkpt lat="50.67028" lon="4.19277">
        <ele>40.51</ele>
        <time>2017-03-12T09:32:49Z</time>
      </trkpt>
      <trkpt lat="50.67003" lon="4.19266">
        <ele>41.47</ele>
        <time>2017-03-12T09:33:10Z</time>
      </trkpt>
      <trkpt lat="50.66996" lon="4.19261">
        <ele>41.95</ele>
        <time>2017-03-12T09:33:17Z</time>
      </trkpt>
      <trkpt lat="50.66981" lon="4.19247">
        <ele>42.92</ele>
        <time>2017-03-12T09:33:30Z</time>
      </trkpt>
      <trkpt lat="50.66964" lon="4.19231">
        <ele>42.44</ele>
        <time>2017-03-12T09:33:45Z</time>
      </trkpt>
      <trkpt lat="50.66961" lon="4.19222">
        <ele>41.95</ele>
        <time>2017-03-12T09:34:00Z</time>
      </trkpt>
      <trkpt lat="50.66962" lon="4.19221">
        <ele>39.07</ele>
        <time>2017-03-12T09:34:02Z</time>
      </trkpt>
      <trkpt lat="50.66962" lon="4.19219">
        <ele>43.88</ele>
        <time>2017-03-12T09:34:03Z</time>
      </trkpt>
      <trkpt lat="50.66961" lon="4.19218">
        <ele>43.88</ele>
        <time>2017-03-12T09:34:04Z</time>
      </trkpt>
      <trkpt lat="50.66959" lon="4.19216">
        <ele>40.03</ele>
        <time>2017-03-12T09:34:06Z</time>
      </trkpt>
      <trkpt lat="50.66958" lon="4.19215">
        <ele>40.03</ele>
        <time>2017-03-12T09:34:07Z</time>
      </trkpt>
      <trkpt lat="50.66955" lon="4.19212">
        <ele>42.92</ele>
        <time>2017-03-12T09:34:09Z</time>
      </trkpt>
      <trkpt lat="50.66952" lon="4.19208">
        <ele>40.03</ele>
        <time>2017-03-12T09:34:12Z</time>
      </trkpt>
      <trkpt lat="50.66939" lon="4.19188">
        <ele>40.99</ele>
        <time>2017-03-12T09:34:26Z</time>
      </trkpt>
      <trkpt lat="50.66936" lon="4.19185">
        <ele>42.44</ele>
        <time>2017-03-12T09:34:28Z</time>
      </trkpt>
      <trkpt lat="50.66919" lon="4.19157">
        <ele>44.84</ele>
        <time>2017-03-12T09:34:47Z</time>
      </trkpt>
      <trkpt lat="50.66918" lon="4.19155">
        <ele>42.92</ele>
        <time>2017-03-12T09:34:49Z</time>
      </trkpt>
      <trkpt lat="50.66913" lon="4.19149">
        <ele>45.32</ele>
        <time>2017-03-12T09:34:55Z</time>
      </trkpt>
      <trkpt lat="50.66911" lon="4.19145">
        <ele>41.95</ele>
        <time>2017-03-12T09:34:58Z</time>
      </trkpt>
      <trkpt lat="50.66909" lon="4.19141">
        <ele>45.8</ele>
        <time>2017-03-12T09:35:00Z</time>
      </trkpt>
      <trkpt lat="50.66908" lon="4.19139">
        <ele>45.32</ele>
        <time>2017-03-12T09:35:01Z</time>
      </trkpt>
      <trkpt lat="50.66898" lon="4.19123">
        <ele>46.76</ele>
        <time>2017-03-12T09:35:12Z</time>
      </trkpt>
      <trkpt lat="50.66896" lon="4.19117">
        <ele>43.4</ele>
        <time>2017-03-12T09:35:16Z</time>
      </trkpt>
      <trkpt lat="50.66895" lon="4.19116">
        <ele>47.24</ele>
        <time>2017-03-12T09:35:17Z</time>
      </trkpt>
      <trkpt lat="50.66894" lon="4.19114">
        <ele>47.24</ele>
        <time>2017-03-12T09:35:18Z</time>
      </trkpt>
      <trkpt lat="50.66885" lon="4.19099">
        <ele>45.8</ele>
        <time>2017-03-12T09:35:29Z</time>
      </trkpt>
      <trkpt lat="50.66882" lon="4.19095">
        <ele>47.24</ele>
        <time>2017-03-12T09:35:32Z</time>
      </trkpt>
      <trkpt lat="50.66872" lon="4.1908">
        <ele>47.72</ele>
        <time>2017-03-12T09:35:47Z</time>
      </trkpt>
      <trkpt lat="50.66871" lon="4.19077">
        <ele>47.72</ele>
        <time>2017-03-12T09:35:48Z</time>
      </trkpt>
      <trkpt lat="50.66859" lon="4.19058">
        <ele>48.68</ele>
        <time>2017-03-12T09:36:04Z</time>
      </trkpt>
      <trkpt lat="50.66845" lon="4.19042">
        <ele>47.24</ele>
        <time>2017-03-12T09:36:18Z</time>
      </trkpt>
      <trkpt lat="50.6684" lon="4.19036">
        <ele>50.13</ele>
        <time>2017-03-12T09:36:23Z</time>
      </trkpt>
      <trkpt lat="50.6683" lon="4.19026">
        <ele>51.09</ele>
        <time>2017-03-12T09:36:32Z</time>
      </trkpt>
      <trkpt lat="50.66828" lon="4.19024">
        <ele>48.68</ele>
        <time>2017-03-12T09:36:34Z</time>
      </trkpt>
      <trkpt lat="50.66823" lon="4.19018">
        <ele>51.57</ele>
        <time>2017-03-12T09:36:39Z</time>
      </trkpt>
      <trkpt lat="50.66821" lon="4.19016">
        <ele>48.68</ele>
        <time>2017-03-12T09:36:41Z</time>
      </trkpt>
      <trkpt lat="50.66818" lon="4.19014">
        <ele>51.57</ele>
        <time>2017-03-12T09:36:44Z</time>
      </trkpt>
      <trkpt lat="50.66816" lon="4.19013">
        <ele>49.65</ele>
        <time>2017-03-12T09:36:46Z</time>
      </trkpt>
      <trkpt lat="50.66808" lon="4.19005">
        <ele>52.53</ele>
        <time>2017-03-12T09:36:54Z</time>
      </trkpt>
      <trkpt lat="50.66807" lon="4.19002">
        <ele>51.09</ele>
        <time>2017-03-12T09:36:56Z</time>
      </trkpt>
      <trkpt lat="50.66803" lon="4.18999">
        <ele>52.53</ele>
        <time>2017-03-12T09:37:00Z</time>
      </trkpt>
      <trkpt lat="50.668" lon="4.18995">
        <ele>51.09</ele>
        <time>2017-03-12T09:37:03Z</time>
      </trkpt>
      <trkpt lat="50.66795" lon="4.18992">
        <ele>54.45</ele>
        <time>2017-03-12T09:37:07Z</time>
      </trkpt>
      <trkpt lat="50.66792" lon="4.18988">
        <ele>50.61</ele>
        <time>2017-03-12T09:37:11Z</time>
      </trkpt>
      <trkpt lat="50.66791" lon="4.18987">
        <ele>53.97</ele>
        <time>2017-03-12T09:37:12Z</time>
      </trkpt>
      <trkpt lat="50.6679" lon="4.18986">
        <ele>53.97</ele>
        <time>2017-03-12T09:37:13Z</time>
      </trkpt>
      <trkpt lat="50.66775" lon="4.18967">
        <ele>53.01</ele>
        <time>2017-03-12T09:37:29Z</time>
      </trkpt>
      <trkpt lat="50.66774" lon="4.18966">
        <ele>56.37</ele>
        <time>2017-03-12T09:37:30Z</time>
      </trkpt>
      <trkpt lat="50.66773" lon="4.18965">
        <ele>56.37</ele>
        <time>2017-03-12T09:37:31Z</time>
      </trkpt>
      <trkpt lat="50.66772" lon="4.18961">
        <ele>54.45</ele>
        <time>2017-03-12T09:37:34Z</time>
      </trkpt>
      <trkpt lat="50.66768" lon="4.18954">
        <ele>56.86</ele>
        <time>2017-03-12T09:37:38Z</time>
      </trkpt>
      <trkpt lat="50.66763" lon="4.18944">
        <ele>54.93</ele>
        <time>2017-03-12T09:37:44Z</time>
      </trkpt>
      <trkpt lat="50.66761" lon="4.18942">
        <ele>57.82</ele>
        <time>2017-03-12T09:37:46Z</time>
      </trkpt>
      <trkpt lat="50.6676" lon="4.1894">
        <ele>57.82</ele>
        <time>2017-03-12T09:37:47Z</time>
      </trkpt>
      <trkpt lat="50.66749" lon="4.18919">
        <ele>55.41</ele>
        <time>2017-03-12T09:38:01Z</time>
      </trkpt>
      <trkpt lat="50.66747" lon="4.18916">
        <ele>57.82</ele>
        <time>2017-03-12T09:38:03Z</time>
      </trkpt>
      <trkpt lat="50.66743" lon="4.18912">
        <ele>55.89</ele>
        <time>2017-03-12T09:38:06Z</time>
      </trkpt>
      <trkpt lat="50.66741" lon="4.18909">
        <ele>57.34</ele>
        <time>2017-03-12T09:38:08Z</time>
      </trkpt>
      <trkpt lat="50.66739" lon="4.18906">
        <ele>55.41</ele>
        <time>2017-03-12T09:38:10Z</time>
      </trkpt>
      <trkpt lat="50.66738" lon="4.18904">
        <ele>59.26</ele>
        <time>2017-03-12T09:38:11Z</time>
      </trkpt>
      <trkpt lat="50.66733" lon="4.18893">
        <ele>58.78</ele>
        <time>2017-03-12T09:38:17Z</time>
      </trkpt>
      <trkpt lat="50.66724" lon="4.18868">
        <ele>55.89</ele>
        <time>2017-03-12T09:38:31Z</time>
      </trkpt>
      <trkpt lat="50.66722" lon="4.18863">
        <ele>57.34</ele>
        <time>2017-03-12T09:38:34Z</time>
      </trkpt>
      <trkpt lat="50.6672" lon="4.18861">
        <ele>55.41</ele>
        <time>2017-03-12T09:38:36Z</time>
      </trkpt>
      <trkpt lat="50.66714" lon="4.18845">
        <ele>54.93</ele>
        <time>2017-03-12T09:38:45Z</time>
      </trkpt>
      <trkpt lat="50.66705" lon="4.18824">
        <ele>53.97</ele>
        <time>2017-03-12T09:39:01Z</time>
      </trkpt>
      <trkpt lat="50.66703" lon="4.18818">
        <ele>54.93</ele>
        <time>2017-03-12T09:39:05Z</time>
      </trkpt>
      <trkpt lat="50.66693" lon="4.18796">
        <ele>55.89</ele>
        <time>2017-03-12T09:39:22Z</time>
      </trkpt>
      <trkpt lat="50.66691" lon="4.18791">
        <ele>51.57</ele>
        <time>2017-03-12T09:39:34Z</time>
      </trkpt>
      <trkpt lat="50.6669" lon="4.18792">
        <ele>55.89</ele>
        <time>2017-03-12T09:39:36Z</time>
      </trkpt>
      <trkpt lat="50.6669" lon="4.18793">
        <ele>59.74</ele>
        <time>2017-03-12T09:39:37Z</time>
      </trkpt>
      <trkpt lat="50.6669" lon="4.18793">
        <ele>55.41</ele>
        <time>2017-03-12T09:39:38Z</time>
      </trkpt>
      <trkpt lat="50.6669" lon="4.18794">
        <ele>51.09</ele>
        <time>2017-03-12T09:39:39Z</time>
      </trkpt>
      <trkpt lat="50.6669" lon="4.18794">
        <ele>54.45</ele>
        <time>2017-03-12T09:39:40Z</time>
      </trkpt>
      <trkpt lat="50.66691" lon="4.18794">
        <ele>55.89</ele>
        <time>2017-03-12T09:39:42Z</time>
      </trkpt>
      <trkpt lat="50.66683" lon="4.18777">
        <ele>55.89</ele>
        <time>2017-03-12T09:39:51Z</time>
      </trkpt>
      <trkpt lat="50.66681" lon="4.18772">
        <ele>54.45</ele>
        <time>2017-03-12T09:39:54Z</time>
      </trkpt>
      <trkpt lat="50.66672" lon="4.18754">
        <ele>53.01</ele>
        <time>2017-03-12T09:40:06Z</time>
      </trkpt>
      <trkpt lat="50.6667" lon="4.18751">
        <ele>54.93</ele>
        <time>2017-03-12T09:40:08Z</time>
      </trkpt>
      <trkpt lat="50.66669" lon="4.18749">
        <ele>53.49</ele>
        <time>2017-03-12T09:40:10Z</time>
      </trkpt>
      <trkpt lat="50.66658" lon="4.18735">
        <ele>53.01</ele>
        <time>2017-03-12T09:40:22Z</time>
      </trkpt>
      <trkpt lat="50.66654" lon="4.18728">
        <ele>53.01</ele>
        <time>2017-03-12T09:40:33Z</time>
      </trkpt>
      <trkpt lat="50.66653" lon="4.18727">
        <ele>53.01</ele>
        <time>2017-03-12T09:40:34Z</time>
      </trkpt>
      <trkpt lat="50.66649" lon="4.18726">
        <ele>51.57</ele>
        <time>2017-03-12T09:40:36Z</time>
      </trkpt>
      <trkpt lat="50.66637" lon="4.18724">
        <ele>52.05</ele>
        <time>2017-03-12T09:40:43Z</time>
      </trkpt>
      <trkpt lat="50.66628" lon="4.18727">
        <ele>50.61</ele>
        <time>2017-03-12T09:40:49Z</time>
      </trkpt>
      <trkpt lat="50.66615" lon="4.18738">
        <ele>51.09</ele>
        <time>2017-03-12T09:40:59Z</time>
      </trkpt>
      <trkpt lat="50.66607" lon="4.18743">
        <ele>51.57</ele>
        <time>2017-03-12T09:41:05Z</time>
      </trkpt>
      <trkpt lat="50.66604" lon="4.18743">
        <ele>52.53</ele>
        <time>2017-03-12T09:41:07Z</time>
      </trkpt>
      <trkpt lat="50.66596" lon="4.18747">
        <ele>48.68</ele>
        <time>2017-03-12T09:41:13Z</time>
      </trkpt>
      <trkpt lat="50.66591" lon="4.18751">
        <ele>52.05</ele>
        <time>2017-03-12T09:41:18Z</time>
      </trkpt>
      <trkpt lat="50.66591" lon="4.18752">
        <ele>48.68</ele>
        <time>2017-03-12T09:41:19Z</time>
      </trkpt>
      <trkpt lat="50.66586" lon="4.18768">
        <ele>50.61</ele>
        <time>2017-03-12T09:41:30Z</time>
      </trkpt>
      <trkpt lat="50.66583" lon="4.18775">
        <ele>48.68</ele>
        <time>2017-03-12T09:41:42Z</time>
      </trkpt>
      <trkpt lat="50.6658" lon="4.18779">
        <ele>50.61</ele>
        <time>2017-03-12T09:41:45Z</time>
      </trkpt>
      <trkpt lat="50.66579" lon="4.18781">
        <ele>50.61</ele>
        <time>2017-03-12T09:41:46Z</time>
      </trkpt>
      <trkpt lat="50.66577" lon="4.18785">
        <ele>48.68</ele>
        <time>2017-03-12T09:41:48Z</time>
      </trkpt>
      <trkpt lat="50.66575" lon="4.1879">
        <ele>50.61</ele>
        <time>2017-03-12T09:41:51Z</time>
      </trkpt>
      <trkpt lat="50.66572" lon="4.18794">
        <ele>48.68</ele>
        <time>2017-03-12T09:41:54Z</time>
      </trkpt>
      <trkpt lat="50.66568" lon="4.18802">
        <ele>48.68</ele>
        <time>2017-03-12T09:41:59Z</time>
      </trkpt>
      <trkpt lat="50.66558" lon="4.18823">
        <ele>49.16</ele>
        <time>2017-03-12T09:42:10Z</time>
      </trkpt>
      <trkpt lat="50.66549" lon="4.18841">
        <ele>48.2</ele>
        <time>2017-03-12T09:42:21Z</time>
      </trkpt>
      <trkpt lat="50.66547" lon="4.18847">
        <ele>48.2</ele>
        <time>2017-03-12T09:42:24Z</time>
      </trkpt>
      <trkpt lat="50.66547" lon="4.18853">
        <ele>46.76</ele>
        <time>2017-03-12T09:42:27Z</time>
      </trkpt>
      <trkpt lat="50.66543" lon="4.18858">
        <ele>49.16</ele>
        <time>2017-03-12T09:42:31Z</time>
      </trkpt>
      <trkpt lat="50.66542" lon="4.1886">
        <ele>49.16</ele>
        <time>2017-03-12T09:42:32Z</time>
      </trkpt>
      <trkpt lat="50.66539" lon="4.18862">
        <ele>47.72</ele>
        <time>2017-03-12T09:42:34Z</time>
      </trkpt>
      <trkpt lat="50.66531" lon="4.1887">
        <ele>48.68</ele>
        <time>2017-03-12T09:42:40Z</time>
      </trkpt>
      <trkpt lat="50.66525" lon="4.18877">
        <ele>46.76</ele>
        <time>2017-03-12T09:42:45Z</time>
      </trkpt>
      <trkpt lat="50.66518" lon="4.18883">
        <ele>45.32</ele>
        <time>2017-03-12T09:42:49Z</time>
      </trkpt>
      <trkpt lat="50.66513" lon="4.1889">
        <ele>48.68</ele>
        <time>2017-03-12T09:42:53Z</time>
      </trkpt>
      <trkpt lat="50.6651" lon="4.18898">
        <ele>47.72</ele>
        <time>2017-03-12T09:42:57Z</time>
      </trkpt>
      <trkpt lat="50.66503" lon="4.18925">
        <ele>47.24</ele>
        <time>2017-03-12T09:43:12Z</time>
      </trkpt>
      <trkpt lat="50.66501" lon="4.1893">
        <ele>49.65</ele>
        <time>2017-03-12T09:43:15Z</time>
      </trkpt>
      <trkpt lat="50.66494" lon="4.18953">
        <ele>47.24</ele>
        <time>2017-03-12T09:43:26Z</time>
      </trkpt>
      <trkpt lat="50.66494" lon="4.18965">
        <ele>49.65</ele>
        <time>2017-03-12T09:43:33Z</time>
      </trkpt>
      <trkpt lat="50.66491" lon="4.19002">
        <ele>51.09</ele>
        <time>2017-03-12T09:43:46Z</time>
      </trkpt>
      <trkpt lat="50.6649" lon="4.19007">
        <ele>49.65</ele>
        <time>2017-03-12T09:43:48Z</time>
      </trkpt>
      <trkpt lat="50.66487" lon="4.1903">
        <ele>52.05</ele>
        <time>2017-03-12T09:43:58Z</time>
      </trkpt>
      <trkpt lat="50.66486" lon="4.19034">
        <ele>50.13</ele>
        <time>2017-03-12T09:44:00Z</time>
      </trkpt>
      <trkpt lat="50.66488" lon="4.19045">
        <ele>51.09</ele>
        <time>2017-03-12T09:44:06Z</time>
      </trkpt>
      <trkpt lat="50.6649" lon="4.19055">
        <ele>49.65</ele>
        <time>2017-03-12T09:44:10Z</time>
      </trkpt>
      <trkpt lat="50.66487" lon="4.1909">
        <ele>53.49</ele>
        <time>2017-03-12T09:44:28Z</time>
      </trkpt>
      <trkpt lat="50.66484" lon="4.19092">
        <ele>52.05</ele>
        <time>2017-03-12T09:44:30Z</time>
      </trkpt>
      <trkpt lat="50.66478" lon="4.19094">
        <ele>53.01</ele>
        <time>2017-03-12T09:44:34Z</time>
      </trkpt>
      <trkpt lat="50.66474" lon="4.19095">
        <ele>51.57</ele>
        <time>2017-03-12T09:44:37Z</time>
      </trkpt>
      <trkpt lat="50.66469" lon="4.19094">
        <ele>53.01</ele>
        <time>2017-03-12T09:44:41Z</time>
      </trkpt>
      <trkpt lat="50.66466" lon="4.19093">
        <ele>51.57</ele>
        <time>2017-03-12T09:44:43Z</time>
      </trkpt>
      <trkpt lat="50.66458" lon="4.19086">
        <ele>53.01</ele>
        <time>2017-03-12T09:44:49Z</time>
      </trkpt>
      <trkpt lat="50.66453" lon="4.1908">
        <ele>51.57</ele>
        <time>2017-03-12T09:44:53Z</time>
      </trkpt>
      <trkpt lat="50.66452" lon="4.19078">
        <ele>50.13</ele>
        <time>2017-03-12T09:44:54Z</time>
      </trkpt>
      <trkpt lat="50.66449" lon="4.19074">
        <ele>53.01</ele>
        <time>2017-03-12T09:44:57Z</time>
      </trkpt>
      <trkpt lat="50.66446" lon="4.1907">
        <ele>51.09</ele>
        <time>2017-03-12T09:45:00Z</time>
      </trkpt>
      <trkpt lat="50.66441" lon="4.19063">
        <ele>53.01</ele>
        <time>2017-03-12T09:45:06Z</time>
      </trkpt>
      <trkpt lat="50.66438" lon="4.19058">
        <ele>51.57</ele>
        <time>2017-03-12T09:45:09Z</time>
      </trkpt>
      <trkpt lat="50.66428" lon="4.19043">
        <ele>55.41</ele>
        <time>2017-03-12T09:45:20Z</time>
      </trkpt>
      <trkpt lat="50.66427" lon="4.19041">
        <ele>53.97</ele>
        <time>2017-03-12T09:45:21Z</time>
      </trkpt>
      <trkpt lat="50.66424" lon="4.19036">
        <ele>54.45</ele>
        <time>2017-03-12T09:45:26Z</time>
      </trkpt>
      <trkpt lat="50.66416" lon="4.19028">
        <ele>53.49</ele>
        <time>2017-03-12T09:45:35Z</time>
      </trkpt>
      <trkpt lat="50.66414" lon="4.19026">
        <ele>56.86</ele>
        <time>2017-03-12T09:45:37Z</time>
      </trkpt>
      <trkpt lat="50.66403" lon="4.19019">
        <ele>57.34</ele>
        <time>2017-03-12T09:45:45Z</time>
      </trkpt>
      <trkpt lat="50.66396" lon="4.19014">
        <ele>56.37</ele>
        <time>2017-03-12T09:45:50Z</time>
      </trkpt>
      <trkpt lat="50.6639" lon="4.19007">
        <ele>57.34</ele>
        <time>2017-03-12T09:45:56Z</time>
      </trkpt>
      <trkpt lat="50.66383" lon="4.19004">
        <ele>56.86</ele>
        <time>2017-03-12T09:46:00Z</time>
      </trkpt>
      <trkpt lat="50.66377" lon="4.19002">
        <ele>58.3</ele>
        <time>2017-03-12T09:46:03Z</time>
      </trkpt>
      <trkpt lat="50.66371" lon="4.18995">
        <ele>58.3</ele>
        <time>2017-03-12T09:46:09Z</time>
      </trkpt>
      <trkpt lat="50.66358" lon="4.1898">
        <ele>59.74</ele>
        <time>2017-03-12T09:46:21Z</time>
      </trkpt>
      <trkpt lat="50.66354" lon="4.18978">
        <ele>58.78</ele>
        <time>2017-03-12T09:46:24Z</time>
      </trkpt>
      <trkpt lat="50.66352" lon="4.18978">
        <ele>60.7</ele>
        <time>2017-03-12T09:46:26Z</time>
      </trkpt>
      <trkpt lat="50.66344" lon="4.18974">
        <ele>60.22</ele>
        <time>2017-03-12T09:46:31Z</time>
      </trkpt>
      <trkpt lat="50.66335" lon="4.18972">
        <ele>60.7</ele>
        <time>2017-03-12T09:46:37Z</time>
      </trkpt>
      <trkpt lat="50.66333" lon="4.18972">
        <ele>59.26</ele>
        <time>2017-03-12T09:46:39Z</time>
      </trkpt>
      <trkpt lat="50.6633" lon="4.18977">
        <ele>61.18</ele>
        <time>2017-03-12T09:46:42Z</time>
      </trkpt>
      <trkpt lat="50.66326" lon="4.18984">
        <ele>59.74</ele>
        <time>2017-03-12T09:46:47Z</time>
      </trkpt>
      <trkpt lat="50.66324" lon="4.18988">
        <ele>61.66</ele>
        <time>2017-03-12T09:46:49Z</time>
      </trkpt>
      <trkpt lat="50.66322" lon="4.19">
        <ele>61.66</ele>
        <time>2017-03-12T09:46:54Z</time>
      </trkpt>
      <trkpt lat="50.66321" lon="4.19004">
        <ele>58.3</ele>
        <time>2017-03-12T09:46:56Z</time>
      </trkpt>
      <trkpt lat="50.66321" lon="4.19009">
        <ele>62.62</ele>
        <time>2017-03-12T09:46:58Z</time>
      </trkpt>
      <trkpt lat="50.66321" lon="4.19011">
        <ele>62.62</ele>
        <time>2017-03-12T09:46:59Z</time>
      </trkpt>
      <trkpt lat="50.6632" lon="4.19015">
        <ele>60.22</ele>
        <time>2017-03-12T09:47:01Z</time>
      </trkpt>
      <trkpt lat="50.66322" lon="4.1904">
        <ele>59.74</ele>
        <time>2017-03-12T09:47:15Z</time>
      </trkpt>
      <trkpt lat="50.66323" lon="4.1906">
        <ele>61.18</ele>
        <time>2017-03-12T09:47:24Z</time>
      </trkpt>
      <trkpt lat="50.66323" lon="4.1907">
        <ele>59.74</ele>
        <time>2017-03-12T09:47:29Z</time>
      </trkpt>
      <trkpt lat="50.66323" lon="4.19076">
        <ele>61.18</ele>
        <time>2017-03-12T09:47:32Z</time>
      </trkpt>
      <trkpt lat="50.6632" lon="4.19081">
        <ele>60.7</ele>
        <time>2017-03-12T09:47:35Z</time>
      </trkpt>
      <trkpt lat="50.66319" lon="4.19086">
        <ele>62.14</ele>
        <time>2017-03-12T09:47:37Z</time>
      </trkpt>
      <trkpt lat="50.66314" lon="4.19105">
        <ele>61.18</ele>
        <time>2017-03-12T09:47:46Z</time>
      </trkpt>
      <trkpt lat="50.66308" lon="4.19123">
        <ele>60.22</ele>
        <time>2017-03-12T09:47:55Z</time>
      </trkpt>
      <trkpt lat="50.66307" lon="4.19128">
        <ele>61.66</ele>
        <time>2017-03-12T09:47:58Z</time>
      </trkpt>
      <trkpt lat="50.66305" lon="4.19141">
        <ele>62.62</ele>
        <time>2017-03-12T09:48:05Z</time>
      </trkpt>
      <trkpt lat="50.66304" lon="4.19143">
        <ele>60.7</ele>
        <time>2017-03-12T09:48:07Z</time>
      </trkpt>
      <trkpt lat="50.66302" lon="4.19143">
        <ele>61.66</ele>
        <time>2017-03-12T09:48:23Z</time>
      </trkpt>
      <trkpt lat="50.66302" lon="4.19145">
        <ele>61.66</ele>
        <time>2017-03-12T09:48:25Z</time>
      </trkpt>
      <trkpt lat="50.66293" lon="4.19179">
        <ele>60.7</ele>
        <time>2017-03-12T09:48:44Z</time>
      </trkpt>
      <trkpt lat="50.6629" lon="4.19187">
        <ele>62.62</ele>
        <time>2017-03-12T09:48:48Z</time>
      </trkpt>
      <trkpt lat="50.66283" lon="4.1921">
        <ele>63.1</ele>
        <time>2017-03-12T09:49:01Z</time>
      </trkpt>
      <trkpt lat="50.66277" lon="4.19219">
        <ele>63.1</ele>
        <time>2017-03-12T09:49:07Z</time>
      </trkpt>
      <trkpt lat="50.66274" lon="4.19225">
        <ele>59.74</ele>
        <time>2017-03-12T09:49:10Z</time>
      </trkpt>
      <trkpt lat="50.66272" lon="4.19229">
        <ele>63.58</ele>
        <time>2017-03-12T09:49:13Z</time>
      </trkpt>
      <trkpt lat="50.66271" lon="4.19231">
        <ele>63.58</ele>
        <time>2017-03-12T09:49:14Z</time>
      </trkpt>
      <trkpt lat="50.66269" lon="4.19234">
        <ele>62.14</ele>
        <time>2017-03-12T09:49:16Z</time>
      </trkpt>
      <trkpt lat="50.66256" lon="4.1926">
        <ele>64.07</ele>
        <time>2017-03-12T09:49:33Z</time>
      </trkpt>
      <trkpt lat="50.66247" lon="4.19272">
        <ele>64.07</ele>
        <time>2017-03-12T09:49:42Z</time>
      </trkpt>
      <trkpt lat="50.66239" lon="4.19291">
        <ele>63.1</ele>
        <time>2017-03-12T09:49:53Z</time>
      </trkpt>
      <trkpt lat="50.66238" lon="4.19295">
        <ele>64.55</ele>
        <time>2017-03-12T09:49:55Z</time>
      </trkpt>
      <trkpt lat="50.66236" lon="4.1931">
        <ele>62.14</ele>
        <time>2017-03-12T09:50:02Z</time>
      </trkpt>
      <trkpt lat="50.66234" lon="4.19323">
        <ele>63.1</ele>
        <time>2017-03-12T09:50:08Z</time>
      </trkpt>
      <trkpt lat="50.66233" lon="4.19328">
        <ele>65.51</ele>
        <time>2017-03-12T09:50:10Z</time>
      </trkpt>
      <trkpt lat="50.66232" lon="4.1934">
        <ele>65.99</ele>
        <time>2017-03-12T09:50:16Z</time>
      </trkpt>
      <trkpt lat="50.66232" lon="4.19345">
        <ele>63.58</ele>
        <time>2017-03-12T09:50:19Z</time>
      </trkpt>
      <trkpt lat="50.66232" lon="4.19349">
        <ele>65.51</ele>
        <time>2017-03-12T09:50:21Z</time>
      </trkpt>
      <trkpt lat="50.66231" lon="4.19353">
        <ele>64.07</ele>
        <time>2017-03-12T09:50:23Z</time>
      </trkpt>
      <trkpt lat="50.66231" lon="4.1936">
        <ele>65.99</ele>
        <time>2017-03-12T09:50:26Z</time>
      </trkpt>
      <trkpt lat="50.66229" lon="4.19366">
        <ele>64.07</ele>
        <time>2017-03-12T09:50:29Z</time>
      </trkpt>
      <trkpt lat="50.66228" lon="4.1937">
        <ele>65.51</ele>
        <time>2017-03-12T09:50:31Z</time>
      </trkpt>
      <trkpt lat="50.66227" lon="4.19376">
        <ele>64.07</ele>
        <time>2017-03-12T09:50:34Z</time>
      </trkpt>
      <trkpt lat="50.66226" lon="4.19383">
        <ele>65.99</ele>
        <time>2017-03-12T09:50:37Z</time>
      </trkpt>
      <trkpt lat="50.66221" lon="4.19403">
        <ele>66.95</ele>
        <time>2017-03-12T09:50:47Z</time>
      </trkpt>
      <trkpt lat="50.66217" lon="4.19413">
        <ele>66.47</ele>
        <time>2017-03-12T09:50:54Z</time>
      </trkpt>
      <trkpt lat="50.66211" lon="4.19421">
        <ele>66.95</ele>
        <time>2017-03-12T09:51:00Z</time>
      </trkpt>
      <trkpt lat="50.66204" lon="4.19432">
        <ele>66.95</ele>
        <time>2017-03-12T09:51:07Z</time>
      </trkpt>
      <trkpt lat="50.662" lon="4.19438">
        <ele>65.51</ele>
        <time>2017-03-12T09:51:11Z</time>
      </trkpt>
      <trkpt lat="50.66196" lon="4.19446">
        <ele>66.95</ele>
        <time>2017-03-12T09:51:15Z</time>
      </trkpt>
      <trkpt lat="50.66194" lon="4.19448">
        <ele>65.99</ele>
        <time>2017-03-12T09:51:17Z</time>
      </trkpt>
      <trkpt lat="50.66179" lon="4.19465">
        <ele>69.35</ele>
        <time>2017-03-12T09:51:30Z</time>
      </trkpt>
      <trkpt lat="50.66178" lon="4.19466">
        <ele>69.35</ele>
        <time>2017-03-12T09:51:31Z</time>
      </trkpt>
      <trkpt lat="50.66175" lon="4.19466">
        <ele>67.91</ele>
        <time>2017-03-12T09:51:33Z</time>
      </trkpt>
      <trkpt lat="50.66169" lon="4.19468">
        <ele>69.35</ele>
        <time>2017-03-12T09:51:37Z</time>
      </trkpt>
      <trkpt lat="50.66163" lon="4.19471">
        <ele>66.47</ele>
        <time>2017-03-12T09:51:41Z</time>
      </trkpt>
      <trkpt lat="50.66158" lon="4.19473">
        <ele>69.35</ele>
        <time>2017-03-12T09:51:45Z</time>
      </trkpt>
      <trkpt lat="50.66141" lon="4.19482">
        <ele>66.47</ele>
        <time>2017-03-12T09:51:58Z</time>
      </trkpt>
      <trkpt lat="50.66138" lon="4.19483">
        <ele>69.35</ele>
        <time>2017-03-12T09:52:00Z</time>
      </trkpt>
      <trkpt lat="50.66137" lon="4.19484">
        <ele>69.35</ele>
        <time>2017-03-12T09:52:01Z</time>
      </trkpt>
      <trkpt lat="50.66131" lon="4.19485">
        <ele>67.91</ele>
        <time>2017-03-12T09:52:05Z</time>
      </trkpt>
      <trkpt lat="50.66127" lon="4.19486">
        <ele>70.31</ele>
        <time>2017-03-12T09:52:08Z</time>
      </trkpt>
      <trkpt lat="50.66125" lon="4.19487">
        <ele>68.39</ele>
        <time>2017-03-12T09:52:10Z</time>
      </trkpt>
      <trkpt lat="50.66117" lon="4.19488">
        <ele>71.27</ele>
        <time>2017-03-12T09:52:16Z</time>
      </trkpt>
      <trkpt lat="50.66109" lon="4.19488">
        <ele>68.87</ele>
        <time>2017-03-12T09:52:22Z</time>
      </trkpt>
      <trkpt lat="50.66097" lon="4.19491">
        <ele>72.72</ele>
        <time>2017-03-12T09:52:30Z</time>
      </trkpt>
      <trkpt lat="50.66095" lon="4.19491">
        <ele>72.72</ele>
        <time>2017-03-12T09:52:31Z</time>
      </trkpt>
      <trkpt lat="50.66091" lon="4.19492">
        <ele>71.27</ele>
        <time>2017-03-12T09:52:34Z</time>
      </trkpt>
      <trkpt lat="50.66083" lon="4.19493">
        <ele>73.68</ele>
        <time>2017-03-12T09:52:40Z</time>
      </trkpt>
      <trkpt lat="50.6608" lon="4.19493">
        <ele>70.31</ele>
        <time>2017-03-12T09:52:42Z</time>
      </trkpt>
      <trkpt lat="50.66077" lon="4.19494">
        <ele>75.6</ele>
        <time>2017-03-12T09:52:45Z</time>
      </trkpt>
      <trkpt lat="50.66073" lon="4.19494">
        <ele>72.24</ele>
        <time>2017-03-12T09:52:48Z</time>
      </trkpt>
      <trkpt lat="50.66064" lon="4.19495">
        <ele>72.24</ele>
        <time>2017-03-12T09:52:55Z</time>
      </trkpt>
      <trkpt lat="50.66062" lon="4.19495">
        <ele>74.64</ele>
        <time>2017-03-12T09:52:57Z</time>
      </trkpt>
      <trkpt lat="50.66062" lon="4.19495">
        <ele>72.24</ele>
        <time>2017-03-12T09:52:58Z</time>
      </trkpt>
      <trkpt lat="50.66051" lon="4.19498">
        <ele>73.68</ele>
        <time>2017-03-12T09:53:06Z</time>
      </trkpt>
      <trkpt lat="50.66043" lon="4.19499">
        <ele>73.68</ele>
        <time>2017-03-12T09:53:12Z</time>
      </trkpt>
      <trkpt lat="50.66039" lon="4.19499">
        <ele>75.12</ele>
        <time>2017-03-12T09:53:15Z</time>
      </trkpt>
      <trkpt lat="50.66031" lon="4.19501">
        <ele>76.56</ele>
        <time>2017-03-12T09:53:21Z</time>
      </trkpt>
      <trkpt lat="50.66026" lon="4.19501">
        <ele>75.12</ele>
        <time>2017-03-12T09:53:25Z</time>
      </trkpt>
      <trkpt lat="50.66023" lon="4.19501">
        <ele>77.04</ele>
        <time>2017-03-12T09:53:27Z</time>
      </trkpt>
      <trkpt lat="50.66017" lon="4.19502">
        <ele>73.68</ele>
        <time>2017-03-12T09:53:31Z</time>
      </trkpt>
      <trkpt lat="50.66014" lon="4.19501">
        <ele>77.52</ele>
        <time>2017-03-12T09:53:33Z</time>
      </trkpt>
      <trkpt lat="50.66013" lon="4.19501">
        <ele>77.52</ele>
        <time>2017-03-12T09:53:34Z</time>
      </trkpt>
      <trkpt lat="50.66011" lon="4.19501">
        <ele>76.08</ele>
        <time>2017-03-12T09:53:36Z</time>
      </trkpt>
      <trkpt lat="50.66001" lon="4.19502">
        <ele>75.12</ele>
        <time>2017-03-12T09:53:44Z</time>
      </trkpt>
      <trkpt lat="50.65997" lon="4.19504">
        <ele>78</ele>
        <time>2017-03-12T09:53:47Z</time>
      </trkpt>
      <trkpt lat="50.65984" lon="4.19509">
        <ele>78</ele>
        <time>2017-03-12T09:53:55Z</time>
      </trkpt>
      <trkpt lat="50.65981" lon="4.1951">
        <ele>75.12</ele>
        <time>2017-03-12T09:53:58Z</time>
      </trkpt>
      <trkpt lat="50.65979" lon="4.1951">
        <ele>78.48</ele>
        <time>2017-03-12T09:54:00Z</time>
      </trkpt>
      <trkpt lat="50.65977" lon="4.1951">
        <ele>78.48</ele>
        <time>2017-03-12T09:54:01Z</time>
      </trkpt>
      <trkpt lat="50.65968" lon="4.19512">
        <ele>75.12</ele>
        <time>2017-03-12T09:54:09Z</time>
      </trkpt>
      <trkpt lat="50.65966" lon="4.19513">
        <ele>78.97</ele>
        <time>2017-03-12T09:54:11Z</time>
      </trkpt>
      <trkpt lat="50.65965" lon="4.19514">
        <ele>78.97</ele>
        <time>2017-03-12T09:54:12Z</time>
      </trkpt>
      <trkpt lat="50.65946" lon="4.19521">
        <ele>79.45</ele>
        <time>2017-03-12T09:54:26Z</time>
      </trkpt>
      <trkpt lat="50.65934" lon="4.19526">
        <ele>78</ele>
        <time>2017-03-12T09:54:35Z</time>
      </trkpt>
      <trkpt lat="50.6593" lon="4.19528">
        <ele>80.89</ele>
        <time>2017-03-12T09:54:38Z</time>
      </trkpt>
      <trkpt lat="50.65927" lon="4.1953">
        <ele>78.48</ele>
        <time>2017-03-12T09:54:40Z</time>
      </trkpt>
      <trkpt lat="50.65917" lon="4.19541">
        <ele>82.33</ele>
        <time>2017-03-12T09:54:50Z</time>
      </trkpt>
      <trkpt lat="50.65914" lon="4.19544">
        <ele>78.97</ele>
        <time>2017-03-12T09:54:52Z</time>
      </trkpt>
      <trkpt lat="50.65913" lon="4.19545">
        <ele>78.97</ele>
        <time>2017-03-12T09:54:53Z</time>
      </trkpt>
      <trkpt lat="50.65911" lon="4.19548">
        <ele>81.37</ele>
        <time>2017-03-12T09:54:55Z</time>
      </trkpt>
      <trkpt lat="50.65908" lon="4.19552">
        <ele>79.93</ele>
        <time>2017-03-12T09:54:58Z</time>
      </trkpt>
      <trkpt lat="50.65903" lon="4.19557">
        <ele>82.81</ele>
        <time>2017-03-12T09:55:02Z</time>
      </trkpt>
      <trkpt lat="50.65896" lon="4.19571">
        <ele>82.81</ele>
        <time>2017-03-12T09:55:10Z</time>
      </trkpt>
      <trkpt lat="50.65891" lon="4.19579">
        <ele>83.77</ele>
        <time>2017-03-12T09:55:15Z</time>
      </trkpt>
      <trkpt lat="50.65889" lon="4.19581">
        <ele>81.37</ele>
        <time>2017-03-12T09:55:17Z</time>
      </trkpt>
      <trkpt lat="50.65887" lon="4.19583">
        <ele>83.29</ele>
        <time>2017-03-12T09:55:19Z</time>
      </trkpt>
      <trkpt lat="50.65886" lon="4.19586">
        <ele>81.37</ele>
        <time>2017-03-12T09:55:21Z</time>
      </trkpt>
      <trkpt lat="50.65884" lon="4.19591">
        <ele>84.73</ele>
        <time>2017-03-12T09:55:24Z</time>
      </trkpt>
      <trkpt lat="50.65883" lon="4.19592">
        <ele>84.73</ele>
        <time>2017-03-12T09:55:25Z</time>
      </trkpt>
      <trkpt lat="50.65881" lon="4.19595">
        <ele>83.29</ele>
        <time>2017-03-12T09:55:27Z</time>
      </trkpt>
      <trkpt lat="50.65878" lon="4.19598">
        <ele>85.21</ele>
        <time>2017-03-12T09:55:30Z</time>
      </trkpt>
      <trkpt lat="50.65876" lon="4.196">
        <ele>80.89</ele>
        <time>2017-03-12T09:55:32Z</time>
      </trkpt>
      <trkpt lat="50.65875" lon="4.19602">
        <ele>84.25</ele>
        <time>2017-03-12T09:55:33Z</time>
      </trkpt>
      <trkpt lat="50.65873" lon="4.19605">
        <ele>86.66</ele>
        <time>2017-03-12T09:55:35Z</time>
      </trkpt>
      <trkpt lat="50.65868" lon="4.19611">
        <ele>86.66</ele>
        <time>2017-03-12T09:55:40Z</time>
      </trkpt>
      <trkpt lat="50.65855" lon="4.19622">
        <ele>86.18</ele>
        <time>2017-03-12T09:55:53Z</time>
      </trkpt>
      <trkpt lat="50.6585" lon="4.19626">
        <ele>89.54</ele>
        <time>2017-03-12T09:55:58Z</time>
      </trkpt>
      <trkpt lat="50.65849" lon="4.19627">
        <ele>87.62</ele>
        <time>2017-03-12T09:55:59Z</time>
      </trkpt>
      <trkpt lat="50.65841" lon="4.19635">
        <ele>88.1</ele>
        <time>2017-03-12T09:56:05Z</time>
      </trkpt>
      <trkpt lat="50.65834" lon="4.1964">
        <ele>89.54</ele>
        <time>2017-03-12T09:56:10Z</time>
      </trkpt>
      <trkpt lat="50.65823" lon="4.19648">
        <ele>90.98</ele>
        <time>2017-03-12T09:56:18Z</time>
      </trkpt>
      <trkpt lat="50.65819" lon="4.19651">
        <ele>89.06</ele>
        <time>2017-03-12T09:56:21Z</time>
      </trkpt>
      <trkpt lat="50.65801" lon="4.1966">
        <ele>90.98</ele>
        <time>2017-03-12T09:56:36Z</time>
      </trkpt>
      <trkpt lat="50.65794" lon="4.19666">
        <ele>89.54</ele>
        <time>2017-03-12T09:56:43Z</time>
      </trkpt>
      <trkpt lat="50.65783" lon="4.19675">
        <ele>92.9</ele>
        <time>2017-03-12T09:56:52Z</time>
      </trkpt>
      <trkpt lat="50.65782" lon="4.19676">
        <ele>92.9</ele>
        <time>2017-03-12T09:56:53Z</time>
      </trkpt>
      <trkpt lat="50.65781" lon="4.19676">
        <ele>90.98</ele>
        <time>2017-03-12T09:56:55Z</time>
      </trkpt>
      <trkpt lat="50.65779" lon="4.19675">
        <ele>91.94</ele>
        <time>2017-03-12T09:57:08Z</time>
      </trkpt>
      <trkpt lat="50.65773" lon="4.19681">
        <ele>90.5</ele>
        <time>2017-03-12T09:57:16Z</time>
      </trkpt>
      <trkpt lat="50.65771" lon="4.19686">
        <ele>91.94</ele>
        <time>2017-03-12T09:57:20Z</time>
      </trkpt>
      <trkpt lat="50.65767" lon="4.19689">
        <ele>91.94</ele>
        <time>2017-03-12T09:57:23Z</time>
      </trkpt>
      <trkpt lat="50.65764" lon="4.19692">
        <ele>94.35</ele>
        <time>2017-03-12T09:57:26Z</time>
      </trkpt>
      <trkpt lat="50.65762" lon="4.19695">
        <ele>90.98</ele>
        <time>2017-03-12T09:57:28Z</time>
      </trkpt>
      <trkpt lat="50.65761" lon="4.19695">
        <ele>92.9</ele>
        <time>2017-03-12T09:57:29Z</time>
      </trkpt>
      <trkpt lat="50.6576" lon="4.19697">
        <ele>93.87</ele>
        <time>2017-03-12T09:57:31Z</time>
      </trkpt>
      <trkpt lat="50.65754" lon="4.19703">
        <ele>95.31</ele>
        <time>2017-03-12T09:57:37Z</time>
      </trkpt>
      <trkpt lat="50.65751" lon="4.19704">
        <ele>91.46</ele>
        <time>2017-03-12T09:57:39Z</time>
      </trkpt>
      <trkpt lat="50.65747" lon="4.19708">
        <ele>94.35</ele>
        <time>2017-03-12T09:57:42Z</time>
      </trkpt>
      <trkpt lat="50.65742" lon="4.19712">
        <ele>91.94</ele>
        <time>2017-03-12T09:57:45Z</time>
      </trkpt>
      <trkpt lat="50.6574" lon="4.19715">
        <ele>94.83</ele>
        <time>2017-03-12T09:57:47Z</time>
      </trkpt>
      <trkpt lat="50.65733" lon="4.19724">
        <ele>96.27</ele>
        <time>2017-03-12T09:57:56Z</time>
      </trkpt>
      <trkpt lat="50.65731" lon="4.19727">
        <ele>94.83</ele>
        <time>2017-03-12T09:57:58Z</time>
      </trkpt>
      <trkpt lat="50.65714" lon="4.19744">
        <ele>95.31</ele>
        <time>2017-03-12T09:58:14Z</time>
      </trkpt>
      <trkpt lat="50.657" lon="4.19755">
        <ele>99.15</ele>
        <time>2017-03-12T09:58:25Z</time>
      </trkpt>
      <trkpt lat="50.65696" lon="4.19756">
        <ele>96.75</ele>
        <time>2017-03-12T09:58:28Z</time>
      </trkpt>
      <trkpt lat="50.65673" lon="4.19765">
        <ele>98.67</ele>
        <time>2017-03-12T09:58:47Z</time>
      </trkpt>
      <trkpt lat="50.6567" lon="4.19766">
        <ele>97.23</ele>
        <time>2017-03-12T09:58:49Z</time>
      </trkpt>
      <trkpt lat="50.65668" lon="4.19766">
        <ele>99.15</ele>
        <time>2017-03-12T09:58:51Z</time>
      </trkpt>
      <trkpt lat="50.65663" lon="4.19766">
        <ele>96.75</ele>
        <time>2017-03-12T09:58:55Z</time>
      </trkpt>
      <trkpt lat="50.6566" lon="4.19766">
        <ele>99.15</ele>
        <time>2017-03-12T09:58:57Z</time>
      </trkpt>
      <trkpt lat="50.65648" lon="4.19766">
        <ele>97.71</ele>
        <time>2017-03-12T09:59:05Z</time>
      </trkpt>
      <trkpt lat="50.65644" lon="4.19765">
        <ele>99.63</ele>
        <time>2017-03-12T09:59:07Z</time>
      </trkpt>
      <trkpt lat="50.65634" lon="4.19765">
        <ele>100.6</ele>
        <time>2017-03-12T09:59:13Z</time>
      </trkpt>
      <trkpt lat="50.65607" lon="4.19769">
        <ele>99.15</ele>
        <time>2017-03-12T09:59:33Z</time>
      </trkpt>
      <trkpt lat="50.65605" lon="4.19769">
        <ele>100.11</ele>
        <time>2017-03-12T09:59:35Z</time>
      </trkpt>
      <trkpt lat="50.656" lon="4.1976">
        <ele>99.15</ele>
        <time>2017-03-12T09:59:54Z</time>
      </trkpt>
      <trkpt lat="50.65609" lon="4.19766">
        <ele>99.15</ele>
        <time>2017-03-12T10:00:29Z</time>
      </trkpt>
      <trkpt lat="50.656" lon="4.19757">
        <ele>98.67</ele>
        <time>2017-03-12T10:00:50Z</time>
      </trkpt>
      <trkpt lat="50.65602" lon="4.19754">
        <ele>98.67</ele>
        <time>2017-03-12T10:01:18Z</time>
      </trkpt>
      <trkpt lat="50.65603" lon="4.19757">
        <ele>98.19</ele>
        <time>2017-03-12T10:01:42Z</time>
      </trkpt>
      <trkpt lat="50.65604" lon="4.19758">
        <ele>98.19</ele>
        <time>2017-03-12T10:01:43Z</time>
      </trkpt>
      <trkpt lat="50.65603" lon="4.19759">
        <ele>100.11</ele>
        <time>2017-03-12T10:01:45Z</time>
      </trkpt>
      <trkpt lat="50.65602" lon="4.19768">
        <ele>98.67</ele>
        <time>2017-03-12T10:02:15Z</time>
      </trkpt>
      <trkpt lat="50.65598" lon="4.1976">
        <ele>97.71</ele>
        <time>2017-03-12T10:02:41Z</time>
      </trkpt>
      <trkpt lat="50.65587" lon="4.19733">
        <ele>97.23</ele>
        <time>2017-03-12T10:02:55Z</time>
      </trkpt>
      <trkpt lat="50.65582" lon="4.19725">
        <ele>98.19</ele>
        <time>2017-03-12T10:03:05Z</time>
      </trkpt>
      <trkpt lat="50.65574" lon="4.19715">
        <ele>95.31</ele>
        <time>2017-03-12T10:03:14Z</time>
      </trkpt>
      <trkpt lat="50.65573" lon="4.19713">
        <ele>99.15</ele>
        <time>2017-03-12T10:03:16Z</time>
      </trkpt>
      <trkpt lat="50.65572" lon="4.19712">
        <ele>99.15</ele>
        <time>2017-03-12T10:03:17Z</time>
      </trkpt>
      <trkpt lat="50.65568" lon="4.19703">
        <ele>97.71</ele>
        <time>2017-03-12T10:03:23Z</time>
      </trkpt>
      <trkpt lat="50.65557" lon="4.1968">
        <ele>97.71</ele>
        <time>2017-03-12T10:03:36Z</time>
      </trkpt>
      <trkpt lat="50.65555" lon="4.19675">
        <ele>95.79</ele>
        <time>2017-03-12T10:03:39Z</time>
      </trkpt>
      <trkpt lat="50.65554" lon="4.19671">
        <ele>97.71</ele>
        <time>2017-03-12T10:03:41Z</time>
      </trkpt>
      <trkpt lat="50.65546" lon="4.1965">
        <ele>98.67</ele>
        <time>2017-03-12T10:03:53Z</time>
      </trkpt>
      <trkpt lat="50.65546" lon="4.19646">
        <ele>97.23</ele>
        <time>2017-03-12T10:03:56Z</time>
      </trkpt>
      <trkpt lat="50.65546" lon="4.19642">
        <ele>100.6</ele>
        <time>2017-03-12T10:03:59Z</time>
      </trkpt>
      <trkpt lat="50.65546" lon="4.1964">
        <ele>99.15</ele>
        <time>2017-03-12T10:04:00Z</time>
      </trkpt>
      <trkpt lat="50.65537" lon="4.19619">
        <ele>101.56</ele>
        <time>2017-03-12T10:04:13Z</time>
      </trkpt>
      <trkpt lat="50.65536" lon="4.19617">
        <ele>99.63</ele>
        <time>2017-03-12T10:04:15Z</time>
      </trkpt>
      <trkpt lat="50.6552" lon="4.19595">
        <ele>100.11</ele>
        <time>2017-03-12T10:04:35Z</time>
      </trkpt>
      <trkpt lat="50.6552" lon="4.19594">
        <ele>100.11</ele>
        <time>2017-03-12T10:04:36Z</time>
      </trkpt>
      <trkpt lat="50.65516" lon="4.19588">
        <ele>101.56</ele>
        <time>2017-03-12T10:04:41Z</time>
      </trkpt>
      <trkpt lat="50.65512" lon="4.19581">
        <ele>100.11</ele>
        <time>2017-03-12T10:04:44Z</time>
      </trkpt>
      <trkpt lat="50.655" lon="4.19564">
        <ele>98.67</ele>
        <time>2017-03-12T10:05:00Z</time>
      </trkpt>
      <trkpt lat="50.65498" lon="4.19562">
        <ele>100.11</ele>
        <time>2017-03-12T10:05:02Z</time>
      </trkpt>
      <trkpt lat="50.65496" lon="4.19559">
        <ele>97.71</ele>
        <time>2017-03-12T10:05:04Z</time>
      </trkpt>
      <trkpt lat="50.65488" lon="4.19549">
        <ele>97.23</ele>
        <time>2017-03-12T10:05:12Z</time>
      </trkpt>
      <trkpt lat="50.65486" lon="4.19547">
        <ele>98.19</ele>
        <time>2017-03-12T10:05:14Z</time>
      </trkpt>
      <trkpt lat="50.65477" lon="4.19535">
        <ele>96.27</ele>
        <time>2017-03-12T10:05:23Z</time>
      </trkpt>
      <trkpt lat="50.65466" lon="4.19518">
        <ele>92.9</ele>
        <time>2017-03-12T10:05:37Z</time>
      </trkpt>
      <trkpt lat="50.65463" lon="4.19514">
        <ele>95.79</ele>
        <time>2017-03-12T10:05:40Z</time>
      </trkpt>
      <trkpt lat="50.65461" lon="4.1951">
        <ele>93.39</ele>
        <time>2017-03-12T10:05:43Z</time>
      </trkpt>
      <trkpt lat="50.65457" lon="4.19505">
        <ele>91.94</ele>
        <time>2017-03-12T10:05:48Z</time>
      </trkpt>
      <trkpt lat="50.65454" lon="4.19502">
        <ele>94.35</ele>
        <time>2017-03-12T10:05:50Z</time>
      </trkpt>
      <trkpt lat="50.65447" lon="4.19491">
        <ele>91.94</ele>
        <time>2017-03-12T10:05:57Z</time>
      </trkpt>
      <trkpt lat="50.65439" lon="4.19482">
        <ele>92.9</ele>
        <time>2017-03-12T10:06:05Z</time>
      </trkpt>
      <trkpt lat="50.65437" lon="4.19479">
        <ele>91.46</ele>
        <time>2017-03-12T10:06:07Z</time>
      </trkpt>
      <trkpt lat="50.6543" lon="4.19472">
        <ele>90.98</ele>
        <time>2017-03-12T10:06:17Z</time>
      </trkpt>
      <trkpt lat="50.65428" lon="4.1947">
        <ele>92.9</ele>
        <time>2017-03-12T10:06:19Z</time>
      </trkpt>
      <trkpt lat="50.65426" lon="4.19468">
        <ele>89.06</ele>
        <time>2017-03-12T10:06:21Z</time>
      </trkpt>
      <trkpt lat="50.65424" lon="4.19466">
        <ele>92.9</ele>
        <time>2017-03-12T10:06:23Z</time>
      </trkpt>
      <trkpt lat="50.65417" lon="4.1946">
        <ele>90.5</ele>
        <time>2017-03-12T10:06:29Z</time>
      </trkpt>
      <trkpt lat="50.65398" lon="4.19442">
        <ele>90.98</ele>
        <time>2017-03-12T10:06:47Z</time>
      </trkpt>
      <trkpt lat="50.65395" lon="4.19439">
        <ele>89.06</ele>
        <time>2017-03-12T10:06:50Z</time>
      </trkpt>
      <trkpt lat="50.65377" lon="4.19427">
        <ele>88.1</ele>
        <time>2017-03-12T10:07:04Z</time>
      </trkpt>
      <trkpt lat="50.65375" lon="4.19425">
        <ele>89.54</ele>
        <time>2017-03-12T10:07:06Z</time>
      </trkpt>
      <trkpt lat="50.65374" lon="4.19422">
        <ele>88.1</ele>
        <time>2017-03-12T10:07:08Z</time>
      </trkpt>
      <trkpt lat="50.65372" lon="4.19418">
        <ele>89.54</ele>
        <time>2017-03-12T10:07:10Z</time>
      </trkpt>
      <trkpt lat="50.65372" lon="4.19418">
        <ele>88.58</ele>
        <time>2017-03-12T10:07:33Z</time>
      </trkpt>
      <trkpt lat="50.6537" lon="4.19424">
        <ele>90.02</ele>
        <time>2017-03-12T10:07:40Z</time>
      </trkpt>
      <trkpt lat="50.65368" lon="4.19427">
        <ele>88.1</ele>
        <time>2017-03-12T10:07:42Z</time>
      </trkpt>
      <trkpt lat="50.65366" lon="4.19429">
        <ele>90.5</ele>
        <time>2017-03-12T10:07:44Z</time>
      </trkpt>
      <trkpt lat="50.65364" lon="4.19433">
        <ele>87.14</ele>
        <time>2017-03-12T10:07:46Z</time>
      </trkpt>
      <trkpt lat="50.65362" lon="4.1944">
        <ele>90.5</ele>
        <time>2017-03-12T10:07:49Z</time>
      </trkpt>
      <trkpt lat="50.6536" lon="4.19443">
        <ele>89.06</ele>
        <time>2017-03-12T10:07:51Z</time>
      </trkpt>
      <trkpt lat="50.65348" lon="4.19459">
        <ele>89.06</ele>
        <time>2017-03-12T10:08:04Z</time>
      </trkpt>
      <trkpt lat="50.65344" lon="4.19464">
        <ele>91.46</ele>
        <time>2017-03-12T10:08:07Z</time>
      </trkpt>
      <trkpt lat="50.65336" lon="4.19475">
        <ele>91.94</ele>
        <time>2017-03-12T10:08:14Z</time>
      </trkpt>
      <trkpt lat="50.65334" lon="4.19478">
        <ele>89.54</ele>
        <time>2017-03-12T10:08:16Z</time>
      </trkpt>
      <trkpt lat="50.65332" lon="4.19481">
        <ele>90.98</ele>
        <time>2017-03-12T10:08:18Z</time>
      </trkpt>
      <trkpt lat="50.6533" lon="4.19483">
        <ele>92.42</ele>
        <time>2017-03-12T10:08:20Z</time>
      </trkpt>
      <trkpt lat="50.65326" lon="4.19493">
        <ele>90.5</ele>
        <time>2017-03-12T10:08:25Z</time>
      </trkpt>
      <trkpt lat="50.65321" lon="4.19505">
        <ele>92.9</ele>
        <time>2017-03-12T10:08:32Z</time>
      </trkpt>
      <trkpt lat="50.65315" lon="4.19514">
        <ele>93.87</ele>
        <time>2017-03-12T10:08:38Z</time>
      </trkpt>
      <trkpt lat="50.65311" lon="4.19518">
        <ele>91.94</ele>
        <time>2017-03-12T10:08:41Z</time>
      </trkpt>
      <trkpt lat="50.65306" lon="4.19524">
        <ele>93.87</ele>
        <time>2017-03-12T10:08:45Z</time>
      </trkpt>
      <trkpt lat="50.65299" lon="4.19526">
        <ele>93.39</ele>
        <time>2017-03-12T10:08:51Z</time>
      </trkpt>
      <trkpt lat="50.65295" lon="4.1953">
        <ele>94.83</ele>
        <time>2017-03-12T10:08:55Z</time>
      </trkpt>
      <trkpt lat="50.65289" lon="4.19539">
        <ele>93.87</ele>
        <time>2017-03-12T10:09:01Z</time>
      </trkpt>
      <trkpt lat="50.65287" lon="4.19542">
        <ele>92.9</ele>
        <time>2017-03-12T10:09:03Z</time>
      </trkpt>
      <trkpt lat="50.6528" lon="4.19555">
        <ele>94.83</ele>
        <time>2017-03-12T10:09:12Z</time>
      </trkpt>
      <trkpt lat="50.65278" lon="4.19559">
        <ele>92.9</ele>
        <time>2017-03-12T10:09:15Z</time>
      </trkpt>
      <trkpt lat="50.65276" lon="4.19566">
        <ele>93.87</ele>
        <time>2017-03-12T10:09:19Z</time>
      </trkpt>
      <trkpt lat="50.65275" lon="4.19574">
        <ele>92.42</ele>
        <time>2017-03-12T10:09:23Z</time>
      </trkpt>
      <trkpt lat="50.65272" lon="4.19581">
        <ele>94.35</ele>
        <time>2017-03-12T10:09:26Z</time>
      </trkpt>
      <trkpt lat="50.65263" lon="4.19594">
        <ele>94.35</ele>
        <time>2017-03-12T10:09:34Z</time>
      </trkpt>
      <trkpt lat="50.65259" lon="4.19598">
        <ele>91.46</ele>
        <time>2017-03-12T10:09:38Z</time>
      </trkpt>
      <trkpt lat="50.65253" lon="4.19616">
        <ele>93.87</ele>
        <time>2017-03-12T10:09:47Z</time>
      </trkpt>
      <trkpt lat="50.65249" lon="4.1964">
        <ele>91.94</ele>
        <time>2017-03-12T10:09:58Z</time>
      </trkpt>
      <trkpt lat="50.65248" lon="4.19646">
        <ele>91.46</ele>
        <time>2017-03-12T10:10:01Z</time>
      </trkpt>
      <trkpt lat="50.65246" lon="4.1965">
        <ele>92.9</ele>
        <time>2017-03-12T10:10:03Z</time>
      </trkpt>
      <trkpt lat="50.65245" lon="4.19659">
        <ele>91.46</ele>
        <time>2017-03-12T10:10:08Z</time>
      </trkpt>
      <trkpt lat="50.65245" lon="4.19663">
        <ele>93.39</ele>
        <time>2017-03-12T10:10:10Z</time>
      </trkpt>
      <trkpt lat="50.65244" lon="4.19671">
        <ele>91.46</ele>
        <time>2017-03-12T10:10:14Z</time>
      </trkpt>
      <trkpt lat="50.6524" lon="4.19696">
        <ele>90.98</ele>
        <time>2017-03-12T10:10:27Z</time>
      </trkpt>
      <trkpt lat="50.65236" lon="4.19715">
        <ele>93.87</ele>
        <time>2017-03-12T10:10:37Z</time>
      </trkpt>
      <trkpt lat="50.65235" lon="4.19722">
        <ele>92.42</ele>
        <time>2017-03-12T10:10:40Z</time>
      </trkpt>
      <trkpt lat="50.65228" lon="4.19743">
        <ele>93.39</ele>
        <time>2017-03-12T10:10:51Z</time>
      </trkpt>
      <trkpt lat="50.65226" lon="4.19749">
        <ele>91.46</ele>
        <time>2017-03-12T10:10:55Z</time>
      </trkpt>
      <trkpt lat="50.65225" lon="4.19753">
        <ele>93.39</ele>
        <time>2017-03-12T10:10:57Z</time>
      </trkpt>
      <trkpt lat="50.65223" lon="4.19758">
        <ele>91.46</ele>
        <time>2017-03-12T10:11:00Z</time>
      </trkpt>
      <trkpt lat="50.65221" lon="4.19764">
        <ele>93.87</ele>
        <time>2017-03-12T10:11:03Z</time>
      </trkpt>
      <trkpt lat="50.6522" lon="4.1977">
        <ele>91.94</ele>
        <time>2017-03-12T10:11:06Z</time>
      </trkpt>
      <trkpt lat="50.65219" lon="4.19777">
        <ele>93.39</ele>
        <time>2017-03-12T10:11:10Z</time>
      </trkpt>
      <trkpt lat="50.65216" lon="4.19787">
        <ele>91.46</ele>
        <time>2017-03-12T10:11:15Z</time>
      </trkpt>
      <trkpt lat="50.65215" lon="4.1979">
        <ele>95.31</ele>
        <time>2017-03-12T10:11:17Z</time>
      </trkpt>
      <trkpt lat="50.65211" lon="4.19808">
        <ele>93.87</ele>
        <time>2017-03-12T10:11:25Z</time>
      </trkpt>
      <trkpt lat="50.65213" lon="4.19837">
        <ele>93.39</ele>
        <time>2017-03-12T10:11:35Z</time>
      </trkpt>
      <trkpt lat="50.65216" lon="4.19855">
        <ele>93.87</ele>
        <time>2017-03-12T10:11:44Z</time>
      </trkpt>
      <trkpt lat="50.65223" lon="4.19892">
        <ele>96.27</ele>
        <time>2017-03-12T10:12:02Z</time>
      </trkpt>
      <trkpt lat="50.65224" lon="4.19901">
        <ele>96.27</ele>
        <time>2017-03-12T10:12:08Z</time>
      </trkpt>
      <trkpt lat="50.65223" lon="4.19916">
        <ele>96.27</ele>
        <time>2017-03-12T10:12:19Z</time>
      </trkpt>
      <trkpt lat="50.65222" lon="4.1992">
        <ele>98.19</ele>
        <time>2017-03-12T10:12:21Z</time>
      </trkpt>
      <trkpt lat="50.65222" lon="4.19922">
        <ele>96.27</ele>
        <time>2017-03-12T10:12:22Z</time>
      </trkpt>
      <trkpt lat="50.65218" lon="4.19931">
        <ele>95.79</ele>
        <time>2017-03-12T10:12:27Z</time>
      </trkpt>
      <trkpt lat="50.65216" lon="4.19933">
        <ele>99.15</ele>
        <time>2017-03-12T10:12:29Z</time>
      </trkpt>
      <trkpt lat="50.65214" lon="4.19936">
        <ele>95.79</ele>
        <time>2017-03-12T10:12:31Z</time>
      </trkpt>
      <trkpt lat="50.65211" lon="4.19943">
        <ele>96.27</ele>
        <time>2017-03-12T10:12:36Z</time>
      </trkpt>
      <trkpt lat="50.65208" lon="4.19951">
        <ele>99.15</ele>
        <time>2017-03-12T10:12:40Z</time>
      </trkpt>
      <trkpt lat="50.65203" lon="4.1996">
        <ele>96.75</ele>
        <time>2017-03-12T10:12:45Z</time>
      </trkpt>
      <trkpt lat="50.652" lon="4.19965">
        <ele>99.15</ele>
        <time>2017-03-12T10:12:48Z</time>
      </trkpt>
      <trkpt lat="50.65186" lon="4.19992">
        <ele>97.23</ele>
        <time>2017-03-12T10:13:06Z</time>
      </trkpt>
      <trkpt lat="50.65184" lon="4.19998">
        <ele>100.6</ele>
        <time>2017-03-12T10:13:09Z</time>
      </trkpt>
      <trkpt lat="50.65176" lon="4.20009">
        <ele>99.15</ele>
        <time>2017-03-12T10:13:16Z</time>
      </trkpt>
      <trkpt lat="50.65174" lon="4.20014">
        <ele>101.08</ele>
        <time>2017-03-12T10:13:19Z</time>
      </trkpt>
      <trkpt lat="50.6516" lon="4.20042">
        <ele>101.56</ele>
        <time>2017-03-12T10:13:38Z</time>
      </trkpt>
      <trkpt lat="50.65154" lon="4.20048">
        <ele>103</ele>
        <time>2017-03-12T10:13:43Z</time>
      </trkpt>
      <trkpt lat="50.65135" lon="4.20062">
        <ele>103.48</ele>
        <time>2017-03-12T10:13:57Z</time>
      </trkpt>
      <trkpt lat="50.65128" lon="4.20066">
        <ele>104.44</ele>
        <time>2017-03-12T10:14:02Z</time>
      </trkpt>
      <trkpt lat="50.65121" lon="4.2007">
        <ele>103</ele>
        <time>2017-03-12T10:14:07Z</time>
      </trkpt>
      <trkpt lat="50.65114" lon="4.20076">
        <ele>104.92</ele>
        <time>2017-03-12T10:14:13Z</time>
      </trkpt>
      <trkpt lat="50.65111" lon="4.20078">
        <ele>103.48</ele>
        <time>2017-03-12T10:14:15Z</time>
      </trkpt>
      <trkpt lat="50.65107" lon="4.20086">
        <ele>105.4</ele>
        <time>2017-03-12T10:14:20Z</time>
      </trkpt>
      <trkpt lat="50.65096" lon="4.20092">
        <ele>104.44</ele>
        <time>2017-03-12T10:14:28Z</time>
      </trkpt>
      <trkpt lat="50.65093" lon="4.20095">
        <ele>103</ele>
        <time>2017-03-12T10:14:31Z</time>
      </trkpt>
      <trkpt lat="50.65084" lon="4.20104">
        <ele>103.48</ele>
        <time>2017-03-12T10:14:39Z</time>
      </trkpt>
      <trkpt lat="50.65067" lon="4.20115">
        <ele>104.44</ele>
        <time>2017-03-12T10:14:53Z</time>
      </trkpt>
      <trkpt lat="50.65065" lon="4.20117">
        <ele>103</ele>
        <time>2017-03-12T10:14:55Z</time>
      </trkpt>
      <trkpt lat="50.6506" lon="4.20122">
        <ele>104.44</ele>
        <time>2017-03-12T10:14:59Z</time>
      </trkpt>
      <trkpt lat="50.65057" lon="4.20126">
        <ele>102.04</ele>
        <time>2017-03-12T10:15:02Z</time>
      </trkpt>
      <trkpt lat="50.65051" lon="4.20132">
        <ele>103.96</ele>
        <time>2017-03-12T10:15:06Z</time>
      </trkpt>
      <trkpt lat="50.65048" lon="4.20135">
        <ele>102.52</ele>
        <time>2017-03-12T10:15:09Z</time>
      </trkpt>
      <trkpt lat="50.65042" lon="4.20139">
        <ele>103.48</ele>
        <time>2017-03-12T10:15:14Z</time>
      </trkpt>
      <trkpt lat="50.65038" lon="4.20144">
        <ele>101.56</ele>
        <time>2017-03-12T10:15:18Z</time>
      </trkpt>
      <trkpt lat="50.65035" lon="4.20146">
        <ele>103.96</ele>
        <time>2017-03-12T10:15:21Z</time>
      </trkpt>
      <trkpt lat="50.65034" lon="4.20147">
        <ele>102.52</ele>
        <time>2017-03-12T10:15:23Z</time>
      </trkpt>
      <trkpt lat="50.65023" lon="4.20156">
        <ele>102.04</ele>
        <time>2017-03-12T10:15:35Z</time>
      </trkpt>
      <trkpt lat="50.65007" lon="4.20162">
        <ele>100.6</ele>
        <time>2017-03-12T10:15:44Z</time>
      </trkpt>
      <trkpt lat="50.65002" lon="4.20174">
        <ele>101.56</ele>
        <time>2017-03-12T10:15:50Z</time>
      </trkpt>
      <trkpt lat="50.64997" lon="4.2018">
        <ele>102.04</ele>
        <time>2017-03-12T10:15:55Z</time>
      </trkpt>
      <trkpt lat="50.64991" lon="4.20186">
        <ele>102.52</ele>
        <time>2017-03-12T10:16:02Z</time>
      </trkpt>
      <trkpt lat="50.64989" lon="4.2019">
        <ele>101.08</ele>
        <time>2017-03-12T10:16:05Z</time>
      </trkpt>
      <trkpt lat="50.64985" lon="4.20196">
        <ele>102.04</ele>
        <time>2017-03-12T10:16:10Z</time>
      </trkpt>
      <trkpt lat="50.64978" lon="4.202">
        <ele>99.63</ele>
        <time>2017-03-12T10:16:14Z</time>
      </trkpt>
      <trkpt lat="50.64975" lon="4.20203">
        <ele>101.56</ele>
        <time>2017-03-12T10:16:16Z</time>
      </trkpt>
      <trkpt lat="50.64961" lon="4.20213">
        <ele>102.52</ele>
        <time>2017-03-12T10:16:25Z</time>
      </trkpt>
      <trkpt lat="50.64954" lon="4.2022">
        <ele>102.52</ele>
        <time>2017-03-12T10:16:32Z</time>
      </trkpt>
      <trkpt lat="50.64949" lon="4.20223">
        <ele>100.6</ele>
        <time>2017-03-12T10:16:36Z</time>
      </trkpt>
      <trkpt lat="50.64944" lon="4.20227">
        <ele>102.04</ele>
        <time>2017-03-12T10:16:41Z</time>
      </trkpt>
      <trkpt lat="50.6494" lon="4.2023">
        <ele>100.6</ele>
        <time>2017-03-12T10:16:44Z</time>
      </trkpt>
      <trkpt lat="50.64935" lon="4.20233">
        <ele>102.04</ele>
        <time>2017-03-12T10:16:47Z</time>
      </trkpt>
      <trkpt lat="50.6492" lon="4.20249">
        <ele>99.15</ele>
        <time>2017-03-12T10:17:00Z</time>
      </trkpt>
      <trkpt lat="50.64918" lon="4.20251">
        <ele>103</ele>
        <time>2017-03-12T10:17:02Z</time>
      </trkpt>
      <trkpt lat="50.64917" lon="4.20252">
        <ele>102.52</ele>
        <time>2017-03-12T10:17:03Z</time>
      </trkpt>
      <trkpt lat="50.64915" lon="4.20254">
        <ele>101.08</ele>
        <time>2017-03-12T10:17:05Z</time>
      </trkpt>
      <trkpt lat="50.64908" lon="4.20259">
        <ele>100.6</ele>
        <time>2017-03-12T10:17:12Z</time>
      </trkpt>
      <trkpt lat="50.64902" lon="4.20263">
        <ele>102.52</ele>
        <time>2017-03-12T10:17:17Z</time>
      </trkpt>
      <trkpt lat="50.64895" lon="4.20267">
        <ele>101.56</ele>
        <time>2017-03-12T10:17:22Z</time>
      </trkpt>
      <trkpt lat="50.64891" lon="4.20268">
        <ele>100.11</ele>
        <time>2017-03-12T10:17:24Z</time>
      </trkpt>
      <trkpt lat="50.64879" lon="4.20275">
        <ele>101.56</ele>
        <time>2017-03-12T10:17:31Z</time>
      </trkpt>
      <trkpt lat="50.64875" lon="4.20278">
        <ele>103.48</ele>
        <time>2017-03-12T10:17:35Z</time>
      </trkpt>
      <trkpt lat="50.6487" lon="4.2028">
        <ele>101.56</ele>
        <time>2017-03-12T10:17:39Z</time>
      </trkpt>
      <trkpt lat="50.64859" lon="4.20288">
        <ele>102.04</ele>
        <time>2017-03-12T10:17:47Z</time>
      </trkpt>
      <trkpt lat="50.64852" lon="4.20291">
        <ele>103</ele>
        <time>2017-03-12T10:17:52Z</time>
      </trkpt>
      <trkpt lat="50.64836" lon="4.20304">
        <ele>104.92</ele>
        <time>2017-03-12T10:18:07Z</time>
      </trkpt>
      <trkpt lat="50.64818" lon="4.20314">
        <ele>101.56</ele>
        <time>2017-03-12T10:18:19Z</time>
      </trkpt>
      <trkpt lat="50.64801" lon="4.20341">
        <ele>102.04</ele>
        <time>2017-03-12T10:18:38Z</time>
      </trkpt>
      <trkpt lat="50.64796" lon="4.20347">
        <ele>104.92</ele>
        <time>2017-03-12T10:18:43Z</time>
      </trkpt>
      <trkpt lat="50.64794" lon="4.20349">
        <ele>104.92</ele>
        <time>2017-03-12T10:18:44Z</time>
      </trkpt>
      <trkpt lat="50.64792" lon="4.20351">
        <ele>103.48</ele>
        <time>2017-03-12T10:18:46Z</time>
      </trkpt>
      <trkpt lat="50.64785" lon="4.20356">
        <ele>103.96</ele>
        <time>2017-03-12T10:18:51Z</time>
      </trkpt>
      <trkpt lat="50.64773" lon="4.20362">
        <ele>104.92</ele>
        <time>2017-03-12T10:19:00Z</time>
      </trkpt>
      <trkpt lat="50.64766" lon="4.20366">
        <ele>103</ele>
        <time>2017-03-12T10:19:04Z</time>
      </trkpt>
      <trkpt lat="50.64761" lon="4.2037">
        <ele>104.92</ele>
        <time>2017-03-12T10:19:08Z</time>
      </trkpt>
      <trkpt lat="50.64757" lon="4.20371">
        <ele>103.48</ele>
        <time>2017-03-12T10:19:11Z</time>
      </trkpt>
      <trkpt lat="50.64745" lon="4.20386">
        <ele>103.48</ele>
        <time>2017-03-12T10:19:22Z</time>
      </trkpt>
      <trkpt lat="50.64743" lon="4.20388">
        <ele>106.36</ele>
        <time>2017-03-12T10:19:25Z</time>
      </trkpt>
      <trkpt lat="50.64731" lon="4.20406">
        <ele>102.52</ele>
        <time>2017-03-12T10:19:37Z</time>
      </trkpt>
      <trkpt lat="50.64727" lon="4.20408">
        <ele>105.88</ele>
        <time>2017-03-12T10:19:40Z</time>
      </trkpt>
      <trkpt lat="50.64719" lon="4.20415">
        <ele>103.96</ele>
        <time>2017-03-12T10:19:46Z</time>
      </trkpt>
      <trkpt lat="50.64717" lon="4.20418">
        <ele>106.36</ele>
        <time>2017-03-12T10:19:48Z</time>
      </trkpt>
      <trkpt lat="50.64711" lon="4.20423">
        <ele>103.96</ele>
        <time>2017-03-12T10:19:53Z</time>
      </trkpt>
      <trkpt lat="50.6471" lon="4.20426">
        <ele>105.4</ele>
        <time>2017-03-12T10:19:55Z</time>
      </trkpt>
      <trkpt lat="50.64706" lon="4.20432">
        <ele>104.92</ele>
        <time>2017-03-12T10:19:59Z</time>
      </trkpt>
      <trkpt lat="50.647" lon="4.20438">
        <ele>103.48</ele>
        <time>2017-03-12T10:20:05Z</time>
      </trkpt>
      <trkpt lat="50.64698" lon="4.2044">
        <ele>107.32</ele>
        <time>2017-03-12T10:20:07Z</time>
      </trkpt>
      <trkpt lat="50.64698" lon="4.20441">
        <ele>107.32</ele>
        <time>2017-03-12T10:20:08Z</time>
      </trkpt>
      <trkpt lat="50.64695" lon="4.20443">
        <ele>105.88</ele>
        <time>2017-03-12T10:20:11Z</time>
      </trkpt>
      <trkpt lat="50.6469" lon="4.20452">
        <ele>109.73</ele>
        <time>2017-03-12T10:20:16Z</time>
      </trkpt>
      <trkpt lat="50.6469" lon="4.20454">
        <ele>105.4</ele>
        <time>2017-03-12T10:20:17Z</time>
      </trkpt>
      <trkpt lat="50.64687" lon="4.20463">
        <ele>107.81</ele>
        <time>2017-03-12T10:20:22Z</time>
      </trkpt>
      <trkpt lat="50.64685" lon="4.2047">
        <ele>106.36</ele>
        <time>2017-03-12T10:20:26Z</time>
      </trkpt>
      <trkpt lat="50.64685" lon="4.20476">
        <ele>107.81</ele>
        <time>2017-03-12T10:20:28Z</time>
      </trkpt>
      <trkpt lat="50.64684" lon="4.20481">
        <ele>107.81</ele>
        <time>2017-03-12T10:20:30Z</time>
      </trkpt>
      <trkpt lat="50.64677" lon="4.20504">
        <ele>109.25</ele>
        <time>2017-03-12T10:20:41Z</time>
      </trkpt>
      <trkpt lat="50.64674" lon="4.20514">
        <ele>108.77</ele>
        <time>2017-03-12T10:20:47Z</time>
      </trkpt>
      <trkpt lat="50.64669" lon="4.20524">
        <ele>110.21</ele>
        <time>2017-03-12T10:20:54Z</time>
      </trkpt>
      <trkpt lat="50.64667" lon="4.20529">
        <ele>108.77</ele>
        <time>2017-03-12T10:20:57Z</time>
      </trkpt>
      <trkpt lat="50.64665" lon="4.20536">
        <ele>110.21</ele>
        <time>2017-03-12T10:21:01Z</time>
      </trkpt>
      <trkpt lat="50.6466" lon="4.20542">
        <ele>108.29</ele>
        <time>2017-03-12T10:21:05Z</time>
      </trkpt>
      <trkpt lat="50.64645" lon="4.20552">
        <ele>110.69</ele>
        <time>2017-03-12T10:21:16Z</time>
      </trkpt>
      <trkpt lat="50.64628" lon="4.20566">
        <ele>111.65</ele>
        <time>2017-03-12T10:21:29Z</time>
      </trkpt>
      <trkpt lat="50.64618" lon="4.20575">
        <ele>112.61</ele>
        <time>2017-03-12T10:21:39Z</time>
      </trkpt>
      <trkpt lat="50.64617" lon="4.20576">
        <ele>112.61</ele>
        <time>2017-03-12T10:21:40Z</time>
      </trkpt>
      <trkpt lat="50.64614" lon="4.2058">
        <ele>113.57</ele>
        <time>2017-03-12T10:21:43Z</time>
      </trkpt>
      <trkpt lat="50.64607" lon="4.20589">
        <ele>113.57</ele>
        <time>2017-03-12T10:21:49Z</time>
      </trkpt>
      <trkpt lat="50.64605" lon="4.2059">
        <ele>110.21</ele>
        <time>2017-03-12T10:21:51Z</time>
      </trkpt>
      <trkpt lat="50.64603" lon="4.20591">
        <ele>114.05</ele>
        <time>2017-03-12T10:21:53Z</time>
      </trkpt>
      <trkpt lat="50.64595" lon="4.20596">
        <ele>114.05</ele>
        <time>2017-03-12T10:22:01Z</time>
      </trkpt>
      <trkpt lat="50.64577" lon="4.20606">
        <ele>115.5</ele>
        <time>2017-03-12T10:22:10Z</time>
      </trkpt>
      <trkpt lat="50.6457" lon="4.20609">
        <ele>114.05</ele>
        <time>2017-03-12T10:22:14Z</time>
      </trkpt>
      <trkpt lat="50.64558" lon="4.20618">
        <ele>116.94</ele>
        <time>2017-03-12T10:22:24Z</time>
      </trkpt>
      <trkpt lat="50.64552" lon="4.20624">
        <ele>116.46</ele>
        <time>2017-03-12T10:22:31Z</time>
      </trkpt>
      <trkpt lat="50.64547" lon="4.20633">
        <ele>114.53</ele>
        <time>2017-03-12T10:22:36Z</time>
      </trkpt>
      <trkpt lat="50.64545" lon="4.20636">
        <ele>118.38</ele>
        <time>2017-03-12T10:22:38Z</time>
      </trkpt>
      <trkpt lat="50.6454" lon="4.20642">
        <ele>115.98</ele>
        <time>2017-03-12T10:22:41Z</time>
      </trkpt>
      <trkpt lat="50.64537" lon="4.20654">
        <ele>116.94</ele>
        <time>2017-03-12T10:22:46Z</time>
      </trkpt>
      <trkpt lat="50.64529" lon="4.20672">
        <ele>116.46</ele>
        <time>2017-03-12T10:22:57Z</time>
      </trkpt>
      <trkpt lat="50.64526" lon="4.20677">
        <ele>117.9</ele>
        <time>2017-03-12T10:23:01Z</time>
      </trkpt>
      <trkpt lat="50.64517" lon="4.20687">
        <ele>117.42</ele>
        <time>2017-03-12T10:23:10Z</time>
      </trkpt>
      <trkpt lat="50.64515" lon="4.20689">
        <ele>118.86</ele>
        <time>2017-03-12T10:23:12Z</time>
      </trkpt>
      <trkpt lat="50.64505" lon="4.20695">
        <ele>117.42</ele>
        <time>2017-03-12T10:23:18Z</time>
      </trkpt>
      <trkpt lat="50.64501" lon="4.20689">
        <ele>118.86</ele>
        <time>2017-03-12T10:23:34Z</time>
      </trkpt>
      <trkpt lat="50.64511" lon="4.20679">
        <ele>116.46</ele>
        <time>2017-03-12T10:23:48Z</time>
      </trkpt>
      <trkpt lat="50.64512" lon="4.20676">
        <ele>120.3</ele>
        <time>2017-03-12T10:23:50Z</time>
      </trkpt>
      <trkpt lat="50.64511" lon="4.20672">
        <ele>120.78</ele>
        <time>2017-03-12T10:23:53Z</time>
      </trkpt>
      <trkpt lat="50.6451" lon="4.20669">
        <ele>117.9</ele>
        <time>2017-03-12T10:23:56Z</time>
      </trkpt>
      <trkpt lat="50.64509" lon="4.20668">
        <ele>121.74</ele>
        <time>2017-03-12T10:23:57Z</time>
      </trkpt>
      <trkpt lat="50.64508" lon="4.20667">
        <ele>121.26</ele>
        <time>2017-03-12T10:23:58Z</time>
      </trkpt>
      <trkpt lat="50.64507" lon="4.20663">
        <ele>120.78</ele>
        <time>2017-03-12T10:24:00Z</time>
      </trkpt>
      <trkpt lat="50.64506" lon="4.20654">
        <ele>121.74</ele>
        <time>2017-03-12T10:24:05Z</time>
      </trkpt>
      <trkpt lat="50.64505" lon="4.20648">
        <ele>124.63</ele>
        <time>2017-03-12T10:24:08Z</time>
      </trkpt>
      <trkpt lat="50.64504" lon="4.20647">
        <ele>121.26</ele>
        <time>2017-03-12T10:24:09Z</time>
      </trkpt>
      <trkpt lat="50.64503" lon="4.20646">
        <ele>121.26</ele>
        <time>2017-03-12T10:24:10Z</time>
      </trkpt>
      <trkpt lat="50.64501" lon="4.20642">
        <ele>123.67</ele>
        <time>2017-03-12T10:24:14Z</time>
      </trkpt>
      <trkpt lat="50.64499" lon="4.2064">
        <ele>122.22</ele>
        <time>2017-03-12T10:24:16Z</time>
      </trkpt>
      <trkpt lat="50.64497" lon="4.20634">
        <ele>125.11</ele>
        <time>2017-03-12T10:24:20Z</time>
      </trkpt>
      <trkpt lat="50.64492" lon="4.20626">
        <ele>122.22</ele>
        <time>2017-03-12T10:24:26Z</time>
      </trkpt>
      <trkpt lat="50.64491" lon="4.20625">
        <ele>126.07</ele>
        <time>2017-03-12T10:24:27Z</time>
      </trkpt>
      <trkpt lat="50.6449" lon="4.20624">
        <ele>126.07</ele>
        <time>2017-03-12T10:24:28Z</time>
      </trkpt>
      <trkpt lat="50.64489" lon="4.20621">
        <ele>123.67</ele>
        <time>2017-03-12T10:24:30Z</time>
      </trkpt>
      <trkpt lat="50.64487" lon="4.20616">
        <ele>125.59</ele>
        <time>2017-03-12T10:24:33Z</time>
      </trkpt>
      <trkpt lat="50.64482" lon="4.20611">
        <ele>126.07</ele>
        <time>2017-03-12T10:24:40Z</time>
      </trkpt>
      <trkpt lat="50.64473" lon="4.20594">
        <ele>126.55</ele>
        <time>2017-03-12T10:24:52Z</time>
      </trkpt>
      <trkpt lat="50.64468" lon="4.20588">
        <ele>129.92</ele>
        <time>2017-03-12T10:24:57Z</time>
      </trkpt>
      <trkpt lat="50.64463" lon="4.2058">
        <ele>129.43</ele>
        <time>2017-03-12T10:25:03Z</time>
      </trkpt>
      <trkpt lat="50.64459" lon="4.2057">
        <ele>128.47</ele>
        <time>2017-03-12T10:25:10Z</time>
      </trkpt>
      <trkpt lat="50.64455" lon="4.20561">
        <ele>131.84</ele>
        <time>2017-03-12T10:25:15Z</time>
      </trkpt>
      <trkpt lat="50.64454" lon="4.2056">
        <ele>131.84</ele>
        <time>2017-03-12T10:25:16Z</time>
      </trkpt>
      <trkpt lat="50.64453" lon="4.20558">
        <ele>129.43</ele>
        <time>2017-03-12T10:25:18Z</time>
      </trkpt>
      <trkpt lat="50.64447" lon="4.2056">
        <ele>129.43</ele>
        <time>2017-03-12T10:25:24Z</time>
      </trkpt>
      <trkpt lat="50.64443" lon="4.20564">
        <ele>132.32</ele>
        <time>2017-03-12T10:25:27Z</time>
      </trkpt>
      <trkpt lat="50.64442" lon="4.20565">
        <ele>131.36</ele>
        <time>2017-03-12T10:25:28Z</time>
      </trkpt>
      <trkpt lat="50.64438" lon="4.20571">
        <ele>132.32</ele>
        <time>2017-03-12T10:25:43Z</time>
      </trkpt>
      <trkpt lat="50.64423" lon="4.20568">
        <ele>132.32</ele>
        <time>2017-03-12T10:25:58Z</time>
      </trkpt>
      <trkpt lat="50.64421" lon="4.20567">
        <ele>130.88</ele>
        <time>2017-03-12T10:26:00Z</time>
      </trkpt>
      <trkpt lat="50.64419" lon="4.20566">
        <ele>132.8</ele>
        <time>2017-03-12T10:26:02Z</time>
      </trkpt>
      <trkpt lat="50.64394" lon="4.20556">
        <ele>131.36</ele>
        <time>2017-03-12T10:26:22Z</time>
      </trkpt>
      <trkpt lat="50.64391" lon="4.20556">
        <ele>133.28</ele>
        <time>2017-03-12T10:26:24Z</time>
      </trkpt>
      <trkpt lat="50.6438" lon="4.20555">
        <ele>132.32</ele>
        <time>2017-03-12T10:26:32Z</time>
      </trkpt>
      <trkpt lat="50.64372" lon="4.20555">
        <ele>134.24</ele>
        <time>2017-03-12T10:26:39Z</time>
      </trkpt>
      <trkpt lat="50.6437" lon="4.20555">
        <ele>132.8</ele>
        <time>2017-03-12T10:26:41Z</time>
      </trkpt>
      <trkpt lat="50.64352" lon="4.20553">
        <ele>131.84</ele>
        <time>2017-03-12T10:26:55Z</time>
      </trkpt>
      <trkpt lat="50.64342" lon="4.20552">
        <ele>131.36</ele>
        <time>2017-03-12T10:27:03Z</time>
      </trkpt>
      <trkpt lat="50.64325" lon="4.2055">
        <ele>131.36</ele>
        <time>2017-03-12T10:27:15Z</time>
      </trkpt>
      <trkpt lat="50.64313" lon="4.20555">
        <ele>132.8</ele>
        <time>2017-03-12T10:27:25Z</time>
      </trkpt>
      <trkpt lat="50.64304" lon="4.20565">
        <ele>130.88</ele>
        <time>2017-03-12T10:27:33Z</time>
      </trkpt>
      <trkpt lat="50.64302" lon="4.20569">
        <ele>132.32</ele>
        <time>2017-03-12T10:27:36Z</time>
      </trkpt>
      <trkpt lat="50.64295" lon="4.20578">
        <ele>132.8</ele>
        <time>2017-03-12T10:27:42Z</time>
      </trkpt>
      <trkpt lat="50.64294" lon="4.2058">
        <ele>132.8</ele>
        <time>2017-03-12T10:27:43Z</time>
      </trkpt>
      <trkpt lat="50.6429" lon="4.20588">
        <ele>134.24</ele>
        <time>2017-03-12T10:27:47Z</time>
      </trkpt>
      <trkpt lat="50.64289" lon="4.2059">
        <ele>132.8</ele>
        <time>2017-03-12T10:27:48Z</time>
      </trkpt>
      <trkpt lat="50.64287" lon="4.20594">
        <ele>131.36</ele>
        <time>2017-03-12T10:27:50Z</time>
      </trkpt>
      <trkpt lat="50.64282" lon="4.20603">
        <ele>131.36</ele>
        <time>2017-03-12T10:27:56Z</time>
      </trkpt>
      <trkpt lat="50.6428" lon="4.20606">
        <ele>133.28</ele>
        <time>2017-03-12T10:27:58Z</time>
      </trkpt>
      <trkpt lat="50.64278" lon="4.2061">
        <ele>131.36</ele>
        <time>2017-03-12T10:28:01Z</time>
      </trkpt>
      <trkpt lat="50.64276" lon="4.20613">
        <ele>133.76</ele>
        <time>2017-03-12T10:28:03Z</time>
      </trkpt>
      <trkpt lat="50.64273" lon="4.20618">
        <ele>131.84</ele>
        <time>2017-03-12T10:28:06Z</time>
      </trkpt>
      <trkpt lat="50.64272" lon="4.2062">
        <ele>135.68</ele>
        <time>2017-03-12T10:28:07Z</time>
      </trkpt>
      <trkpt lat="50.64272" lon="4.20621">
        <ele>135.68</ele>
        <time>2017-03-12T10:28:08Z</time>
      </trkpt>
      <trkpt lat="50.64268" lon="4.20627">
        <ele>132.8</ele>
        <time>2017-03-12T10:28:12Z</time>
      </trkpt>
      <trkpt lat="50.64264" lon="4.20634">
        <ele>136.16</ele>
        <time>2017-03-12T10:28:16Z</time>
      </trkpt>
      <trkpt lat="50.64258" lon="4.20642">
        <ele>136.16</ele>
        <time>2017-03-12T10:28:22Z</time>
      </trkpt>
      <trkpt lat="50.64257" lon="4.20643">
        <ele>132.8</ele>
        <time>2017-03-12T10:28:23Z</time>
      </trkpt>
      <trkpt lat="50.64256" lon="4.20645">
        <ele>135.68</ele>
        <time>2017-03-12T10:28:25Z</time>
      </trkpt>
      <trkpt lat="50.64255" lon="4.20647">
        <ele>135.68</ele>
        <time>2017-03-12T10:28:26Z</time>
      </trkpt>
      <trkpt lat="50.64238" lon="4.20679">
        <ele>135.2</ele>
        <time>2017-03-12T10:28:47Z</time>
      </trkpt>
      <trkpt lat="50.64238" lon="4.20692">
        <ele>135.68</ele>
        <time>2017-03-12T10:28:54Z</time>
      </trkpt>
      <trkpt lat="50.64241" lon="4.20695">
        <ele>135.68</ele>
        <time>2017-03-12T10:28:57Z</time>
      </trkpt>
      <trkpt lat="50.64242" lon="4.207">
        <ele>134.24</ele>
        <time>2017-03-12T10:28:59Z</time>
      </trkpt>
      <trkpt lat="50.6426" lon="4.20722">
        <ele>133.28</ele>
        <time>2017-03-12T10:29:17Z</time>
      </trkpt>
      <trkpt lat="50.64265" lon="4.20728">
        <ele>134.72</ele>
        <time>2017-03-12T10:29:22Z</time>
      </trkpt>
      <trkpt lat="50.64267" lon="4.20729">
        <ele>133.28</ele>
        <time>2017-03-12T10:29:24Z</time>
      </trkpt>
      <trkpt lat="50.64273" lon="4.20735">
        <ele>134.72</ele>
        <time>2017-03-12T10:29:29Z</time>
      </trkpt>
      <trkpt lat="50.64275" lon="4.20738">
        <ele>133.28</ele>
        <time>2017-03-12T10:29:31Z</time>
      </trkpt>
      <trkpt lat="50.64285" lon="4.20758">
        <ele>133.76</ele>
        <time>2017-03-12T10:29:40Z</time>
      </trkpt>
      <trkpt lat="50.64287" lon="4.20761">
        <ele>132.32</ele>
        <time>2017-03-12T10:29:42Z</time>
      </trkpt>
      <trkpt lat="50.6429" lon="4.20766">
        <ele>133.76</ele>
        <time>2017-03-12T10:29:45Z</time>
      </trkpt>
      <trkpt lat="50.64291" lon="4.20769">
        <ele>132.32</ele>
        <time>2017-03-12T10:29:47Z</time>
      </trkpt>
      <trkpt lat="50.64296" lon="4.20776">
        <ele>130.88</ele>
        <time>2017-03-12T10:29:54Z</time>
      </trkpt>
      <trkpt lat="50.64299" lon="4.20782">
        <ele>131.36</ele>
        <time>2017-03-12T10:29:59Z</time>
      </trkpt>
      <trkpt lat="50.64306" lon="4.20793">
        <ele>132.32</ele>
        <time>2017-03-12T10:30:09Z</time>
      </trkpt>
      <trkpt lat="50.64312" lon="4.20799">
        <ele>130.88</ele>
        <time>2017-03-12T10:30:15Z</time>
      </trkpt>
      <trkpt lat="50.64324" lon="4.20817">
        <ele>131.36</ele>
        <time>2017-03-12T10:30:25Z</time>
      </trkpt>
      <trkpt lat="50.64327" lon="4.20828">
        <ele>129.92</ele>
        <time>2017-03-12T10:30:30Z</time>
      </trkpt>
      <trkpt lat="50.64327" lon="4.20839">
        <ele>130.88</ele>
        <time>2017-03-12T10:30:35Z</time>
      </trkpt>
      <trkpt lat="50.64326" lon="4.20847">
        <ele>127.51</ele>
        <time>2017-03-12T10:30:39Z</time>
      </trkpt>
      <trkpt lat="50.64325" lon="4.2085">
        <ele>127.51</ele>
        <time>2017-03-12T10:30:40Z</time>
      </trkpt>
      <trkpt lat="50.64325" lon="4.20852">
        <ele>130.88</ele>
        <time>2017-03-12T10:30:41Z</time>
      </trkpt>
      <trkpt lat="50.64321" lon="4.20862">
        <ele>129.92</ele>
        <time>2017-03-12T10:30:46Z</time>
      </trkpt>
      <trkpt lat="50.64318" lon="4.2087">
        <ele>130.4</ele>
        <time>2017-03-12T10:30:50Z</time>
      </trkpt>
      <trkpt lat="50.64312" lon="4.20874">
        <ele>128.47</ele>
        <time>2017-03-12T10:30:56Z</time>
      </trkpt>
      <trkpt lat="50.64309" lon="4.20877">
        <ele>130.4</ele>
        <time>2017-03-12T10:30:58Z</time>
      </trkpt>
      <trkpt lat="50.64304" lon="4.20881">
        <ele>128.95</ele>
        <time>2017-03-12T10:31:02Z</time>
      </trkpt>
      <trkpt lat="50.64298" lon="4.20889">
        <ele>129.43</ele>
        <time>2017-03-12T10:31:07Z</time>
      </trkpt>
      <trkpt lat="50.64296" lon="4.20891">
        <ele>129.43</ele>
        <time>2017-03-12T10:31:09Z</time>
      </trkpt>
      <trkpt lat="50.64293" lon="4.20895">
        <ele>127.51</ele>
        <time>2017-03-12T10:31:12Z</time>
      </trkpt>
      <trkpt lat="50.6429" lon="4.209">
        <ele>128.95</ele>
        <time>2017-03-12T10:31:16Z</time>
      </trkpt>
      <trkpt lat="50.64288" lon="4.20903">
        <ele>127.03</ele>
        <time>2017-03-12T10:31:18Z</time>
      </trkpt>
      <trkpt lat="50.64282" lon="4.20914">
        <ele>127.51</ele>
        <time>2017-03-12T10:31:24Z</time>
      </trkpt>
      <trkpt lat="50.64277" lon="4.20923">
        <ele>126.55</ele>
        <time>2017-03-12T10:31:30Z</time>
      </trkpt>
      <trkpt lat="50.6427" lon="4.20934">
        <ele>127.51</ele>
        <time>2017-03-12T10:31:36Z</time>
      </trkpt>
      <trkpt lat="50.64269" lon="4.20935">
        <ele>125.11</ele>
        <time>2017-03-12T10:31:37Z</time>
      </trkpt>
      <trkpt lat="50.6426" lon="4.20952">
        <ele>125.59</ele>
        <time>2017-03-12T10:31:48Z</time>
      </trkpt>
      <trkpt lat="50.64251" lon="4.20969">
        <ele>125.11</ele>
        <time>2017-03-12T10:32:00Z</time>
      </trkpt>
      <trkpt lat="50.64245" lon="4.20982">
        <ele>123.67</ele>
        <time>2017-03-12T10:32:08Z</time>
      </trkpt>
      <trkpt lat="50.64236" lon="4.20998">
        <ele>122.71</ele>
        <time>2017-03-12T10:32:19Z</time>
      </trkpt>
      <trkpt lat="50.64231" lon="4.21004">
        <ele>121.26</ele>
        <time>2017-03-12T10:32:24Z</time>
      </trkpt>
      <trkpt lat="50.64229" lon="4.21007">
        <ele>122.71</ele>
        <time>2017-03-12T10:32:26Z</time>
      </trkpt>
      <trkpt lat="50.64226" lon="4.21011">
        <ele>121.26</ele>
        <time>2017-03-12T10:32:30Z</time>
      </trkpt>
      <trkpt lat="50.64212" lon="4.21026">
        <ele>121.74</ele>
        <time>2017-03-12T10:32:44Z</time>
      </trkpt>
      <trkpt lat="50.64207" lon="4.21035">
        <ele>120.78</ele>
        <time>2017-03-12T10:32:49Z</time>
      </trkpt>
      <trkpt lat="50.64201" lon="4.21041">
        <ele>119.82</ele>
        <time>2017-03-12T10:32:55Z</time>
      </trkpt>
      <trkpt lat="50.64198" lon="4.21054">
        <ele>120.3</ele>
        <time>2017-03-12T10:33:06Z</time>
      </trkpt>
      <trkpt lat="50.64198" lon="4.21058">
        <ele>117.42</ele>
        <time>2017-03-12T10:33:08Z</time>
      </trkpt>
      <trkpt lat="50.64198" lon="4.21062">
        <ele>120.3</ele>
        <time>2017-03-12T10:33:10Z</time>
      </trkpt>
      <trkpt lat="50.64195" lon="4.21071">
        <ele>117.9</ele>
        <time>2017-03-12T10:33:15Z</time>
      </trkpt>
      <trkpt lat="50.64193" lon="4.21073">
        <ele>119.82</ele>
        <time>2017-03-12T10:33:17Z</time>
      </trkpt>
      <trkpt lat="50.64192" lon="4.21079">
        <ele>119.82</ele>
        <time>2017-03-12T10:33:21Z</time>
      </trkpt>
      <trkpt lat="50.64192" lon="4.21081">
        <ele>118.38</ele>
        <time>2017-03-12T10:33:23Z</time>
      </trkpt>
      <trkpt lat="50.64181" lon="4.21105">
        <ele>115.98</ele>
        <time>2017-03-12T10:33:40Z</time>
      </trkpt>
      <trkpt lat="50.64178" lon="4.21108">
        <ele>118.38</ele>
        <time>2017-03-12T10:33:43Z</time>
      </trkpt>
      <trkpt lat="50.64175" lon="4.21113">
        <ele>116.94</ele>
        <time>2017-03-12T10:33:45Z</time>
      </trkpt>
      <trkpt lat="50.64172" lon="4.21117">
        <ele>117.42</ele>
        <time>2017-03-12T10:33:49Z</time>
      </trkpt>
      <trkpt lat="50.6417" lon="4.21121">
        <ele>115.98</ele>
        <time>2017-03-12T10:33:52Z</time>
      </trkpt>
      <trkpt lat="50.64165" lon="4.2112">
        <ele>115.98</ele>
        <time>2017-03-12T10:34:11Z</time>
      </trkpt>
      <trkpt lat="50.64168" lon="4.21115">
        <ele>114.53</ele>
        <time>2017-03-12T10:34:30Z</time>
      </trkpt>
      <trkpt lat="50.64168" lon="4.21115">
        <ele>116.94</ele>
        <time>2017-03-12T10:34:32Z</time>
      </trkpt>
      <trkpt lat="50.64169" lon="4.21116">
        <ele>115.01</ele>
        <time>2017-03-12T10:34:35Z</time>
      </trkpt>
      <trkpt lat="50.64169" lon="4.21117">
        <ele>116.94</ele>
        <time>2017-03-12T10:34:37Z</time>
      </trkpt>
      <trkpt lat="50.64169" lon="4.21118">
        <ele>110.21</ele>
        <time>2017-03-12T10:34:39Z</time>
      </trkpt>
      <trkpt lat="50.64169" lon="4.21118">
        <ele>122.71</ele>
        <time>2017-03-12T10:34:40Z</time>
      </trkpt>
      <trkpt lat="50.64169" lon="4.21118">
        <ele>115.01</ele>
        <time>2017-03-12T10:34:41Z</time>
      </trkpt>
      <trkpt lat="50.6417" lon="4.2112">
        <ele>116.46</ele>
        <time>2017-03-12T10:34:45Z</time>
      </trkpt>
      <trkpt lat="50.64168" lon="4.21117">
        <ele>115.5</ele>
        <time>2017-03-12T10:35:00Z</time>
      </trkpt>
      <trkpt lat="50.64178" lon="4.21134">
        <ele>115.98</ele>
        <time>2017-03-12T10:35:19Z</time>
      </trkpt>
      <trkpt lat="50.64181" lon="4.21136">
        <ele>115.98</ele>
        <time>2017-03-12T10:35:21Z</time>
      </trkpt>
      <trkpt lat="50.64164" lon="4.21131">
        <ele>116.46</ele>
        <time>2017-03-12T10:48:21Z</time>
      </trkpt>
      <trkpt lat="50.64168" lon="4.21136">
        <ele>116.46</ele>
        <time>2017-03-12T10:48:55Z</time>
      </trkpt>
      <trkpt lat="50.64178" lon="4.21134">
        <ele>116.46</ele>
        <time>2017-03-12T10:49:21Z</time>
      </trkpt>
      <trkpt lat="50.64195" lon="4.2114">
        <ele>116.46</ele>
        <time>2017-03-12T10:49:45Z</time>
      </trkpt>
      <trkpt lat="50.64178" lon="4.21136">
        <ele>118.38</ele>
        <time>2017-03-12T10:50:05Z</time>
      </trkpt>
      <trkpt lat="50.64176" lon="4.21138">
        <ele>116.46</ele>
        <time>2017-03-12T10:50:07Z</time>
      </trkpt>
      <trkpt lat="50.64159" lon="4.21144">
        <ele>116.46</ele>
        <time>2017-03-12T10:50:41Z</time>
      </trkpt>
      <trkpt lat="50.6419" lon="4.21144">
        <ele>116.46</ele>
        <time>2017-03-12T10:51:10Z</time>
      </trkpt>
      <trkpt lat="50.64189" lon="4.21133">
        <ele>116.46</ele>
        <time>2017-03-12T10:51:40Z</time>
      </trkpt>
      <trkpt lat="50.64187" lon="4.21147">
        <ele>116.46</ele>
        <time>2017-03-12T10:52:06Z</time>
      </trkpt>
      <trkpt lat="50.64184" lon="4.21142">
        <ele>116.46</ele>
        <time>2017-03-12T10:52:31Z</time>
      </trkpt>
      <trkpt lat="50.64184" lon="4.21142">
        <ele>116.46</ele>
        <time>2017-03-12T10:52:56Z</time>
      </trkpt>
      <trkpt lat="50.64183" lon="4.21137">
        <ele>116.46</ele>
        <time>2017-03-12T10:53:31Z</time>
      </trkpt>
      <trkpt lat="50.6418" lon="4.21139">
        <ele>118.38</ele>
        <time>2017-03-12T10:53:51Z</time>
      </trkpt>
      <trkpt lat="50.6418" lon="4.21141">
        <ele>116.94</ele>
        <time>2017-03-12T10:53:54Z</time>
      </trkpt>
      <trkpt lat="50.64174" lon="4.21131">
        <ele>116.94</ele>
        <time>2017-03-12T10:54:13Z</time>
      </trkpt>
      <trkpt lat="50.64165" lon="4.21131">
        <ele>117.42</ele>
        <time>2017-03-12T10:54:35Z</time>
      </trkpt>
      <trkpt lat="50.6417" lon="4.21137">
        <ele>117.42</ele>
        <time>2017-03-12T10:54:42Z</time>
      </trkpt>
      <trkpt lat="50.64175" lon="4.21133">
        <ele>117.42</ele>
        <time>2017-03-12T10:55:03Z</time>
      </trkpt>
      <trkpt lat="50.64174" lon="4.21122">
        <ele>117.42</ele>
        <time>2017-03-12T10:55:28Z</time>
      </trkpt>
      <trkpt lat="50.64174" lon="4.21123">
        <ele>117.42</ele>
        <time>2017-03-12T10:55:54Z</time>
      </trkpt>
      <trkpt lat="50.64172" lon="4.21125">
        <ele>117.42</ele>
        <time>2017-03-12T10:56:17Z</time>
      </trkpt>
      <trkpt lat="50.64167" lon="4.21116">
        <ele>117.42</ele>
        <time>2017-03-12T10:56:32Z</time>
      </trkpt>
      <trkpt lat="50.6417" lon="4.21118">
        <ele>117.42</ele>
        <time>2017-03-12T10:56:36Z</time>
      </trkpt>
      <trkpt lat="50.64186" lon="4.21126">
        <ele>117.42</ele>
        <time>2017-03-12T10:56:51Z</time>
      </trkpt>
      <trkpt lat="50.64194" lon="4.21127">
        <ele>117.42</ele>
        <time>2017-03-12T10:57:01Z</time>
      </trkpt>
      <trkpt lat="50.64212" lon="4.21138">
        <ele>117.42</ele>
        <time>2017-03-12T10:57:16Z</time>
      </trkpt>
      <trkpt lat="50.64216" lon="4.21139">
        <ele>117.42</ele>
        <time>2017-03-12T10:57:19Z</time>
      </trkpt>
      <trkpt lat="50.6422" lon="4.21141">
        <ele>116.94</ele>
        <time>2017-03-12T10:57:22Z</time>
      </trkpt>
      <trkpt lat="50.64225" lon="4.21141">
        <ele>116.94</ele>
        <time>2017-03-12T10:57:25Z</time>
      </trkpt>
      <trkpt lat="50.64241" lon="4.2116">
        <ele>116.46</ele>
        <time>2017-03-12T10:57:42Z</time>
      </trkpt>
      <trkpt lat="50.64256" lon="4.21182">
        <ele>115.01</ele>
        <time>2017-03-12T10:57:58Z</time>
      </trkpt>
      <trkpt lat="50.64267" lon="4.21203">
        <ele>114.05</ele>
        <time>2017-03-12T10:58:12Z</time>
      </trkpt>
      <trkpt lat="50.64271" lon="4.21209">
        <ele>114.05</ele>
        <time>2017-03-12T10:58:16Z</time>
      </trkpt>
      <trkpt lat="50.64289" lon="4.21218">
        <ele>113.09</ele>
        <time>2017-03-12T10:58:31Z</time>
      </trkpt>
      <trkpt lat="50.64301" lon="4.21226">
        <ele>114.53</ele>
        <time>2017-03-12T10:58:41Z</time>
      </trkpt>
      <trkpt lat="50.64313" lon="4.2123">
        <ele>114.53</ele>
        <time>2017-03-12T10:58:49Z</time>
      </trkpt>
      <trkpt lat="50.64318" lon="4.21236">
        <ele>114.53</ele>
        <time>2017-03-12T10:58:56Z</time>
      </trkpt>
      <trkpt lat="50.64324" lon="4.2124">
        <ele>112.61</ele>
        <time>2017-03-12T10:59:01Z</time>
      </trkpt>
      <trkpt lat="50.64325" lon="4.21243">
        <ele>113.09</ele>
        <time>2017-03-12T10:59:04Z</time>
      </trkpt>
      <trkpt lat="50.64335" lon="4.2126">
        <ele>111.65</ele>
        <time>2017-03-12T10:59:14Z</time>
      </trkpt>
      <trkpt lat="50.64347" lon="4.21284">
        <ele>111.17</ele>
        <time>2017-03-12T10:59:29Z</time>
      </trkpt>
      <trkpt lat="50.64349" lon="4.21289">
        <ele>110.69</ele>
        <time>2017-03-12T10:59:33Z</time>
      </trkpt>
      <trkpt lat="50.64353" lon="4.21296">
        <ele>110.69</ele>
        <time>2017-03-12T10:59:37Z</time>
      </trkpt>
      <trkpt lat="50.64358" lon="4.21305">
        <ele>110.21</ele>
        <time>2017-03-12T10:59:43Z</time>
      </trkpt>
      <trkpt lat="50.64369" lon="4.21317">
        <ele>109.25</ele>
        <time>2017-03-12T10:59:54Z</time>
      </trkpt>
      <trkpt lat="50.64381" lon="4.21334">
        <ele>107.81</ele>
        <time>2017-03-12T11:00:08Z</time>
      </trkpt>
      <trkpt lat="50.64395" lon="4.21359">
        <ele>106.84</ele>
        <time>2017-03-12T11:00:24Z</time>
      </trkpt>
      <trkpt lat="50.64404" lon="4.21375">
        <ele>106.36</ele>
        <time>2017-03-12T11:00:35Z</time>
      </trkpt>
      <trkpt lat="50.64406" lon="4.21377">
        <ele>106.36</ele>
        <time>2017-03-12T11:00:37Z</time>
      </trkpt>
      <trkpt lat="50.64417" lon="4.21397">
        <ele>105.88</ele>
        <time>2017-03-12T11:00:51Z</time>
      </trkpt>
      <trkpt lat="50.64429" lon="4.21415">
        <ele>104.92</ele>
        <time>2017-03-12T11:01:04Z</time>
      </trkpt>
      <trkpt lat="50.64434" lon="4.21422">
        <ele>104.92</ele>
        <time>2017-03-12T11:01:09Z</time>
      </trkpt>
      <trkpt lat="50.64436" lon="4.21426">
        <ele>104.92</ele>
        <time>2017-03-12T11:01:11Z</time>
      </trkpt>
      <trkpt lat="50.64454" lon="4.21447">
        <ele>105.88</ele>
        <time>2017-03-12T11:01:28Z</time>
      </trkpt>
      <trkpt lat="50.6447" lon="4.21469">
        <ele>105.4</ele>
        <time>2017-03-12T11:01:43Z</time>
      </trkpt>
      <trkpt lat="50.64475" lon="4.21476">
        <ele>105.4</ele>
        <time>2017-03-12T11:01:48Z</time>
      </trkpt>
      <trkpt lat="50.64492" lon="4.21499">
        <ele>105.4</ele>
        <time>2017-03-12T11:02:03Z</time>
      </trkpt>
      <trkpt lat="50.64508" lon="4.2152">
        <ele>105.4</ele>
        <time>2017-03-12T11:02:19Z</time>
      </trkpt>
      <trkpt lat="50.64514" lon="4.21529">
        <ele>104.44</ele>
        <time>2017-03-12T11:02:34Z</time>
      </trkpt>
      <trkpt lat="50.64523" lon="4.21545">
        <ele>103.48</ele>
        <time>2017-03-12T11:02:46Z</time>
      </trkpt>
      <trkpt lat="50.64528" lon="4.21551">
        <ele>103</ele>
        <time>2017-03-12T11:02:50Z</time>
      </trkpt>
      <trkpt lat="50.64543" lon="4.21576">
        <ele>101.08</ele>
        <time>2017-03-12T11:03:06Z</time>
      </trkpt>
      <trkpt lat="50.64547" lon="4.21584">
        <ele>100.11</ele>
        <time>2017-03-12T11:03:13Z</time>
      </trkpt>
      <trkpt lat="50.64548" lon="4.21585">
        <ele>100.11</ele>
        <time>2017-03-12T11:03:14Z</time>
      </trkpt>
      <trkpt lat="50.64552" lon="4.21594">
        <ele>99.63</ele>
        <time>2017-03-12T11:03:20Z</time>
      </trkpt>
      <trkpt lat="50.64557" lon="4.21605">
        <ele>98.67</ele>
        <time>2017-03-12T11:03:28Z</time>
      </trkpt>
      <trkpt lat="50.64568" lon="4.21622">
        <ele>96.75</ele>
        <time>2017-03-12T11:03:43Z</time>
      </trkpt>
      <trkpt lat="50.64577" lon="4.21637">
        <ele>95.79</ele>
        <time>2017-03-12T11:03:55Z</time>
      </trkpt>
      <trkpt lat="50.64578" lon="4.21648">
        <ele>94.83</ele>
        <time>2017-03-12T11:04:02Z</time>
      </trkpt>
      <trkpt lat="50.64581" lon="4.21656">
        <ele>94.83</ele>
        <time>2017-03-12T11:04:07Z</time>
      </trkpt>
      <trkpt lat="50.64584" lon="4.21672">
        <ele>93.87</ele>
        <time>2017-03-12T11:04:16Z</time>
      </trkpt>
      <trkpt lat="50.64589" lon="4.21684">
        <ele>94.35</ele>
        <time>2017-03-12T11:04:22Z</time>
      </trkpt>
      <trkpt lat="50.64598" lon="4.21701">
        <ele>93.87</ele>
        <time>2017-03-12T11:04:32Z</time>
      </trkpt>
      <trkpt lat="50.64598" lon="4.21703">
        <ele>93.87</ele>
        <time>2017-03-12T11:04:33Z</time>
      </trkpt>
      <trkpt lat="50.646" lon="4.21705">
        <ele>93.87</ele>
        <time>2017-03-12T11:04:34Z</time>
      </trkpt>
      <trkpt lat="50.64601" lon="4.21707">
        <ele>93.87</ele>
        <time>2017-03-12T11:04:35Z</time>
      </trkpt>
      <trkpt lat="50.64602" lon="4.21709">
        <ele>93.87</ele>
        <time>2017-03-12T11:04:36Z</time>
      </trkpt>
      <trkpt lat="50.64603" lon="4.21711">
        <ele>93.87</ele>
        <time>2017-03-12T11:04:37Z</time>
      </trkpt>
      <trkpt lat="50.64604" lon="4.21713">
        <ele>93.87</ele>
        <time>2017-03-12T11:04:38Z</time>
      </trkpt>
      <trkpt lat="50.64611" lon="4.21731">
        <ele>93.87</ele>
        <time>2017-03-12T11:04:49Z</time>
      </trkpt>
      <trkpt lat="50.64611" lon="4.21733">
        <ele>93.87</ele>
        <time>2017-03-12T11:04:50Z</time>
      </trkpt>
      <trkpt lat="50.6462" lon="4.21759">
        <ele>95.31</ele>
        <time>2017-03-12T11:05:02Z</time>
      </trkpt>
      <trkpt lat="50.64631" lon="4.21786">
        <ele>96.27</ele>
        <time>2017-03-12T11:05:15Z</time>
      </trkpt>
      <trkpt lat="50.64634" lon="4.21794">
        <ele>96.27</ele>
        <time>2017-03-12T11:05:19Z</time>
      </trkpt>
      <trkpt lat="50.64635" lon="4.21796">
        <ele>96.27</ele>
        <time>2017-03-12T11:05:20Z</time>
      </trkpt>
      <trkpt lat="50.64635" lon="4.21798">
        <ele>96.27</ele>
        <time>2017-03-12T11:05:21Z</time>
      </trkpt>
      <trkpt lat="50.64644" lon="4.21819">
        <ele>96.27</ele>
        <time>2017-03-12T11:05:33Z</time>
      </trkpt>
      <trkpt lat="50.64652" lon="4.21838">
        <ele>96.27</ele>
        <time>2017-03-12T11:05:45Z</time>
      </trkpt>
      <trkpt lat="50.64656" lon="4.21848">
        <ele>96.27</ele>
        <time>2017-03-12T11:05:50Z</time>
      </trkpt>
      <trkpt lat="50.64657" lon="4.21851">
        <ele>96.27</ele>
        <time>2017-03-12T11:05:51Z</time>
      </trkpt>
      <trkpt lat="50.64658" lon="4.21853">
        <ele>96.27</ele>
        <time>2017-03-12T11:05:52Z</time>
      </trkpt>
      <trkpt lat="50.64659" lon="4.21854">
        <ele>96.27</ele>
        <time>2017-03-12T11:05:53Z</time>
      </trkpt>
      <trkpt lat="50.64659" lon="4.21855">
        <ele>96.27</ele>
        <time>2017-03-12T11:05:54Z</time>
      </trkpt>
      <trkpt lat="50.64669" lon="4.21886">
        <ele>96.27</ele>
        <time>2017-03-12T11:06:10Z</time>
      </trkpt>
      <trkpt lat="50.64679" lon="4.21911">
        <ele>96.27</ele>
        <time>2017-03-12T11:06:26Z</time>
      </trkpt>
      <trkpt lat="50.64689" lon="4.21934">
        <ele>96.27</ele>
        <time>2017-03-12T11:06:40Z</time>
      </trkpt>
      <trkpt lat="50.6469" lon="4.21937">
        <ele>96.27</ele>
        <time>2017-03-12T11:06:41Z</time>
      </trkpt>
      <trkpt lat="50.64691" lon="4.21939">
        <ele>96.27</ele>
        <time>2017-03-12T11:06:42Z</time>
      </trkpt>
      <trkpt lat="50.64692" lon="4.21941">
        <ele>96.27</ele>
        <time>2017-03-12T11:06:43Z</time>
      </trkpt>
      <trkpt lat="50.64693" lon="4.21943">
        <ele>96.27</ele>
        <time>2017-03-12T11:06:44Z</time>
      </trkpt>
      <trkpt lat="50.647" lon="4.21967">
        <ele>94.83</ele>
        <time>2017-03-12T11:06:58Z</time>
      </trkpt>
      <trkpt lat="50.64706" lon="4.21984">
        <ele>94.35</ele>
        <time>2017-03-12T11:07:10Z</time>
      </trkpt>
      <trkpt lat="50.64706" lon="4.21986">
        <ele>94.83</ele>
        <time>2017-03-12T11:07:11Z</time>
      </trkpt>
      <trkpt lat="50.64715" lon="4.22015">
        <ele>93.39</ele>
        <time>2017-03-12T11:07:26Z</time>
      </trkpt>
      <trkpt lat="50.64716" lon="4.22016">
        <ele>93.39</ele>
        <time>2017-03-12T11:07:27Z</time>
      </trkpt>
      <trkpt lat="50.64726" lon="4.22045">
        <ele>93.39</ele>
        <time>2017-03-12T11:07:42Z</time>
      </trkpt>
      <trkpt lat="50.64732" lon="4.22063">
        <ele>93.39</ele>
        <time>2017-03-12T11:07:53Z</time>
      </trkpt>
      <trkpt lat="50.64733" lon="4.22065">
        <ele>93.39</ele>
        <time>2017-03-12T11:07:54Z</time>
      </trkpt>
      <trkpt lat="50.64735" lon="4.22069">
        <ele>93.39</ele>
        <time>2017-03-12T11:07:57Z</time>
      </trkpt>
      <trkpt lat="50.64735" lon="4.22071">
        <ele>93.39</ele>
        <time>2017-03-12T11:07:58Z</time>
      </trkpt>
      <trkpt lat="50.64736" lon="4.22073">
        <ele>93.39</ele>
        <time>2017-03-12T11:07:59Z</time>
      </trkpt>
      <trkpt lat="50.64736" lon="4.22075">
        <ele>93.39</ele>
        <time>2017-03-12T11:08:00Z</time>
      </trkpt>
      <trkpt lat="50.64737" lon="4.22076">
        <ele>93.39</ele>
        <time>2017-03-12T11:08:01Z</time>
      </trkpt>
      <trkpt lat="50.64741" lon="4.22088">
        <ele>93.39</ele>
        <time>2017-03-12T11:08:07Z</time>
      </trkpt>
      <trkpt lat="50.64743" lon="4.22094">
        <ele>92.9</ele>
        <time>2017-03-12T11:08:12Z</time>
      </trkpt>
      <trkpt lat="50.64743" lon="4.22095">
        <ele>92.9</ele>
        <time>2017-03-12T11:08:13Z</time>
      </trkpt>
      <trkpt lat="50.64746" lon="4.22103">
        <ele>92.9</ele>
        <time>2017-03-12T11:08:19Z</time>
      </trkpt>
      <trkpt lat="50.64747" lon="4.22105">
        <ele>92.9</ele>
        <time>2017-03-12T11:08:20Z</time>
      </trkpt>
      <trkpt lat="50.64748" lon="4.22108">
        <ele>92.42</ele>
        <time>2017-03-12T11:08:21Z</time>
      </trkpt>
      <trkpt lat="50.64756" lon="4.22128">
        <ele>91.94</ele>
        <time>2017-03-12T11:08:33Z</time>
      </trkpt>
      <trkpt lat="50.64756" lon="4.22132">
        <ele>90.98</ele>
        <time>2017-03-12T11:08:35Z</time>
      </trkpt>
      <trkpt lat="50.6476" lon="4.22142">
        <ele>90.5</ele>
        <time>2017-03-12T11:08:45Z</time>
      </trkpt>
      <trkpt lat="50.64765" lon="4.22149">
        <ele>90.5</ele>
        <time>2017-03-12T11:08:56Z</time>
      </trkpt>
      <trkpt lat="50.64764" lon="4.22147">
        <ele>90.5</ele>
        <time>2017-03-12T11:08:59Z</time>
      </trkpt>
      <trkpt lat="50.64765" lon="4.22143">
        <ele>90.5</ele>
        <time>2017-03-12T11:09:14Z</time>
      </trkpt>
      <trkpt lat="50.64765" lon="4.22145">
        <ele>90.5</ele>
        <time>2017-03-12T11:09:19Z</time>
      </trkpt>
      <trkpt lat="50.64765" lon="4.22148">
        <ele>90.5</ele>
        <time>2017-03-12T11:09:20Z</time>
      </trkpt>
      <trkpt lat="50.64772" lon="4.2218">
        <ele>90.02</ele>
        <time>2017-03-12T11:09:34Z</time>
      </trkpt>
      <trkpt lat="50.64774" lon="4.22212">
        <ele>88.58</ele>
        <time>2017-03-12T11:09:49Z</time>
      </trkpt>
      <trkpt lat="50.64778" lon="4.22241">
        <ele>88.58</ele>
        <time>2017-03-12T11:10:03Z</time>
      </trkpt>
      <trkpt lat="50.64777" lon="4.22267">
        <ele>88.1</ele>
        <time>2017-03-12T11:10:16Z</time>
      </trkpt>
      <trkpt lat="50.64777" lon="4.22299">
        <ele>87.62</ele>
        <time>2017-03-12T11:10:31Z</time>
      </trkpt>
      <trkpt lat="50.64776" lon="4.22324">
        <ele>87.14</ele>
        <time>2017-03-12T11:10:44Z</time>
      </trkpt>
      <trkpt lat="50.64776" lon="4.22326">
        <ele>87.14</ele>
        <time>2017-03-12T11:10:45Z</time>
      </trkpt>
      <trkpt lat="50.64777" lon="4.22328">
        <ele>87.14</ele>
        <time>2017-03-12T11:10:46Z</time>
      </trkpt>
      <trkpt lat="50.64777" lon="4.2233">
        <ele>87.14</ele>
        <time>2017-03-12T11:10:47Z</time>
      </trkpt>
      <trkpt lat="50.64776" lon="4.22347">
        <ele>86.18</ele>
        <time>2017-03-12T11:10:55Z</time>
      </trkpt>
      <trkpt lat="50.64776" lon="4.22361">
        <ele>85.69</ele>
        <time>2017-03-12T11:11:04Z</time>
      </trkpt>
      <trkpt lat="50.64775" lon="4.22363">
        <ele>85.69</ele>
        <time>2017-03-12T11:11:05Z</time>
      </trkpt>
      <trkpt lat="50.64775" lon="4.22365">
        <ele>85.69</ele>
        <time>2017-03-12T11:11:06Z</time>
      </trkpt>
      <trkpt lat="50.64774" lon="4.22396">
        <ele>84.73</ele>
        <time>2017-03-12T11:11:21Z</time>
      </trkpt>
      <trkpt lat="50.64771" lon="4.22424">
        <ele>85.21</ele>
        <time>2017-03-12T11:11:33Z</time>
      </trkpt>
      <trkpt lat="50.64771" lon="4.22426">
        <ele>84.73</ele>
        <time>2017-03-12T11:11:34Z</time>
      </trkpt>
      <trkpt lat="50.64771" lon="4.22428">
        <ele>84.73</ele>
        <time>2017-03-12T11:11:35Z</time>
      </trkpt>
      <trkpt lat="50.64769" lon="4.22451">
        <ele>84.25</ele>
        <time>2017-03-12T11:11:49Z</time>
      </trkpt>
      <trkpt lat="50.64765" lon="4.22481">
        <ele>83.77</ele>
        <time>2017-03-12T11:12:03Z</time>
      </trkpt>
      <trkpt lat="50.64765" lon="4.22497">
        <ele>82.81</ele>
        <time>2017-03-12T11:12:10Z</time>
      </trkpt>
      <trkpt lat="50.64764" lon="4.225">
        <ele>82.81</ele>
        <time>2017-03-12T11:12:11Z</time>
      </trkpt>
      <trkpt lat="50.64762" lon="4.22528">
        <ele>82.81</ele>
        <time>2017-03-12T11:12:26Z</time>
      </trkpt>
      <trkpt lat="50.64762" lon="4.22562">
        <ele>81.85</ele>
        <time>2017-03-12T11:12:42Z</time>
      </trkpt>
      <trkpt lat="50.64763" lon="4.22595">
        <ele>81.37</ele>
        <time>2017-03-12T11:12:58Z</time>
      </trkpt>
      <trkpt lat="50.64763" lon="4.22628">
        <ele>80.41</ele>
        <time>2017-03-12T11:13:14Z</time>
      </trkpt>
      <trkpt lat="50.64763" lon="4.22655">
        <ele>79.45</ele>
        <time>2017-03-12T11:13:27Z</time>
      </trkpt>
      <trkpt lat="50.64766" lon="4.22691">
        <ele>78.97</ele>
        <time>2017-03-12T11:13:43Z</time>
      </trkpt>
      <trkpt lat="50.64771" lon="4.22718">
        <ele>78.48</ele>
        <time>2017-03-12T11:13:57Z</time>
      </trkpt>
      <trkpt lat="50.64778" lon="4.22739">
        <ele>77.52</ele>
        <time>2017-03-12T11:14:11Z</time>
      </trkpt>
      <trkpt lat="50.64789" lon="4.22768">
        <ele>77.04</ele>
        <time>2017-03-12T11:14:27Z</time>
      </trkpt>
      <trkpt lat="50.64796" lon="4.22788">
        <ele>76.56</ele>
        <time>2017-03-12T11:14:39Z</time>
      </trkpt>
      <trkpt lat="50.64797" lon="4.2279">
        <ele>76.08</ele>
        <time>2017-03-12T11:14:40Z</time>
      </trkpt>
      <trkpt lat="50.64798" lon="4.22792">
        <ele>75.6</ele>
        <time>2017-03-12T11:14:41Z</time>
      </trkpt>
      <trkpt lat="50.64798" lon="4.22794">
        <ele>75.6</ele>
        <time>2017-03-12T11:14:42Z</time>
      </trkpt>
      <trkpt lat="50.648" lon="4.22796">
        <ele>75.6</ele>
        <time>2017-03-12T11:14:43Z</time>
      </trkpt>
      <trkpt lat="50.64801" lon="4.22797">
        <ele>75.6</ele>
        <time>2017-03-12T11:14:44Z</time>
      </trkpt>
      <trkpt lat="50.64802" lon="4.22799">
        <ele>75.6</ele>
        <time>2017-03-12T11:14:45Z</time>
      </trkpt>
      <trkpt lat="50.64812" lon="4.22822">
        <ele>75.12</ele>
        <time>2017-03-12T11:14:58Z</time>
      </trkpt>
      <trkpt lat="50.64819" lon="4.2284">
        <ele>74.64</ele>
        <time>2017-03-12T11:15:11Z</time>
      </trkpt>
      <trkpt lat="50.64831" lon="4.22857">
        <ele>73.68</ele>
        <time>2017-03-12T11:15:24Z</time>
      </trkpt>
      <trkpt lat="50.64837" lon="4.22882">
        <ele>73.2</ele>
        <time>2017-03-12T11:15:38Z</time>
      </trkpt>
      <trkpt lat="50.64838" lon="4.22886">
        <ele>73.2</ele>
        <time>2017-03-12T11:15:40Z</time>
      </trkpt>
      <trkpt lat="50.64838" lon="4.22887">
        <ele>73.2</ele>
        <time>2017-03-12T11:15:41Z</time>
      </trkpt>
      <trkpt lat="50.64839" lon="4.22889">
        <ele>73.2</ele>
        <time>2017-03-12T11:15:42Z</time>
      </trkpt>
      <trkpt lat="50.6484" lon="4.22891">
        <ele>73.2</ele>
        <time>2017-03-12T11:15:43Z</time>
      </trkpt>
      <trkpt lat="50.64841" lon="4.22893">
        <ele>73.2</ele>
        <time>2017-03-12T11:15:44Z</time>
      </trkpt>
      <trkpt lat="50.64842" lon="4.22894">
        <ele>72.72</ele>
        <time>2017-03-12T11:15:45Z</time>
      </trkpt>
      <trkpt lat="50.64843" lon="4.22895">
        <ele>72.72</ele>
        <time>2017-03-12T11:15:46Z</time>
      </trkpt>
      <trkpt lat="50.64844" lon="4.22897">
        <ele>72.72</ele>
        <time>2017-03-12T11:15:47Z</time>
      </trkpt>
      <trkpt lat="50.64845" lon="4.22899">
        <ele>72.72</ele>
        <time>2017-03-12T11:15:48Z</time>
      </trkpt>
      <trkpt lat="50.64845" lon="4.22901">
        <ele>72.72</ele>
        <time>2017-03-12T11:15:49Z</time>
      </trkpt>
      <trkpt lat="50.64846" lon="4.22903">
        <ele>72.72</ele>
        <time>2017-03-12T11:15:50Z</time>
      </trkpt>
      <trkpt lat="50.64857" lon="4.2293">
        <ele>71.27</ele>
        <time>2017-03-12T11:16:06Z</time>
      </trkpt>
      <trkpt lat="50.64865" lon="4.22946">
        <ele>70.31</ele>
        <time>2017-03-12T11:16:16Z</time>
      </trkpt>
      <trkpt lat="50.64873" lon="4.22968">
        <ele>68.39</ele>
        <time>2017-03-12T11:16:29Z</time>
      </trkpt>
      <trkpt lat="50.64878" lon="4.22983">
        <ele>67.43</ele>
        <time>2017-03-12T11:16:41Z</time>
      </trkpt>
      <trkpt lat="50.64878" lon="4.22986">
        <ele>67.43</ele>
        <time>2017-03-12T11:16:43Z</time>
      </trkpt>
      <trkpt lat="50.64879" lon="4.22988">
        <ele>67.43</ele>
        <time>2017-03-12T11:16:44Z</time>
      </trkpt>
      <trkpt lat="50.6488" lon="4.22992">
        <ele>66.47</ele>
        <time>2017-03-12T11:16:46Z</time>
      </trkpt>
      <trkpt lat="50.6488" lon="4.22994">
        <ele>66.47</ele>
        <time>2017-03-12T11:16:47Z</time>
      </trkpt>
      <trkpt lat="50.64881" lon="4.22996">
        <ele>66.47</ele>
        <time>2017-03-12T11:16:48Z</time>
      </trkpt>
      <trkpt lat="50.64882" lon="4.22998">
        <ele>66.47</ele>
        <time>2017-03-12T11:16:49Z</time>
      </trkpt>
      <trkpt lat="50.64883" lon="4.23">
        <ele>66.47</ele>
        <time>2017-03-12T11:16:50Z</time>
      </trkpt>
      <trkpt lat="50.64884" lon="4.23002">
        <ele>66.47</ele>
        <time>2017-03-12T11:16:51Z</time>
      </trkpt>
      <trkpt lat="50.64885" lon="4.23004">
        <ele>65.99</ele>
        <time>2017-03-12T11:16:52Z</time>
      </trkpt>
      <trkpt lat="50.64886" lon="4.23007">
        <ele>65.99</ele>
        <time>2017-03-12T11:16:53Z</time>
      </trkpt>
      <trkpt lat="50.64886" lon="4.23009">
        <ele>65.99</ele>
        <time>2017-03-12T11:16:54Z</time>
      </trkpt>
      <trkpt lat="50.64887" lon="4.23011">
        <ele>65.99</ele>
        <time>2017-03-12T11:16:55Z</time>
      </trkpt>
      <trkpt lat="50.64887" lon="4.23014">
        <ele>65.99</ele>
        <time>2017-03-12T11:16:56Z</time>
      </trkpt>
      <trkpt lat="50.64889" lon="4.2302">
        <ele>65.51</ele>
        <time>2017-03-12T11:16:59Z</time>
      </trkpt>
      <trkpt lat="50.64889" lon="4.23023">
        <ele>65.51</ele>
        <time>2017-03-12T11:17:00Z</time>
      </trkpt>
      <trkpt lat="50.64893" lon="4.2304">
        <ele>64.55</ele>
        <time>2017-03-12T11:17:11Z</time>
      </trkpt>
      <trkpt lat="50.64894" lon="4.23042">
        <ele>64.55</ele>
        <time>2017-03-12T11:17:12Z</time>
      </trkpt>
      <trkpt lat="50.64894" lon="4.23044">
        <ele>64.55</ele>
        <time>2017-03-12T11:17:13Z</time>
      </trkpt>
      <trkpt lat="50.64895" lon="4.23045">
        <ele>64.55</ele>
        <time>2017-03-12T11:17:14Z</time>
      </trkpt>
      <trkpt lat="50.64896" lon="4.23047">
        <ele>64.55</ele>
        <time>2017-03-12T11:17:15Z</time>
      </trkpt>
      <trkpt lat="50.64897" lon="4.23049">
        <ele>64.07</ele>
        <time>2017-03-12T11:17:16Z</time>
      </trkpt>
      <trkpt lat="50.64897" lon="4.23052">
        <ele>64.07</ele>
        <time>2017-03-12T11:17:17Z</time>
      </trkpt>
      <trkpt lat="50.64898" lon="4.23054">
        <ele>64.07</ele>
        <time>2017-03-12T11:17:18Z</time>
      </trkpt>
      <trkpt lat="50.64899" lon="4.23056">
        <ele>64.07</ele>
        <time>2017-03-12T11:17:19Z</time>
      </trkpt>
      <trkpt lat="50.649" lon="4.23058">
        <ele>64.07</ele>
        <time>2017-03-12T11:17:20Z</time>
      </trkpt>
      <trkpt lat="50.64909" lon="4.23085">
        <ele>62.62</ele>
        <time>2017-03-12T11:17:35Z</time>
      </trkpt>
      <trkpt lat="50.64912" lon="4.23092">
        <ele>61.66</ele>
        <time>2017-03-12T11:17:39Z</time>
      </trkpt>
      <trkpt lat="50.64923" lon="4.23121">
        <ele>60.22</ele>
        <time>2017-03-12T11:17:55Z</time>
      </trkpt>
      <trkpt lat="50.64924" lon="4.23121">
        <ele>60.22</ele>
        <time>2017-03-12T11:17:57Z</time>
      </trkpt>
      <trkpt lat="50.64925" lon="4.23123">
        <ele>60.22</ele>
        <time>2017-03-12T11:17:58Z</time>
      </trkpt>
      <trkpt lat="50.64926" lon="4.23124">
        <ele>60.22</ele>
        <time>2017-03-12T11:17:59Z</time>
      </trkpt>
      <trkpt lat="50.64927" lon="4.23126">
        <ele>60.22</ele>
        <time>2017-03-12T11:18:00Z</time>
      </trkpt>
      <trkpt lat="50.64928" lon="4.23128">
        <ele>60.22</ele>
        <time>2017-03-12T11:18:01Z</time>
      </trkpt>
      <trkpt lat="50.64929" lon="4.2313">
        <ele>60.22</ele>
        <time>2017-03-12T11:18:02Z</time>
      </trkpt>
      <trkpt lat="50.64929" lon="4.23132">
        <ele>60.22</ele>
        <time>2017-03-12T11:18:03Z</time>
      </trkpt>
      <trkpt lat="50.64938" lon="4.23158">
        <ele>58.3</ele>
        <time>2017-03-12T11:18:18Z</time>
      </trkpt>
      <trkpt lat="50.64946" lon="4.23176">
        <ele>57.34</ele>
        <time>2017-03-12T11:18:30Z</time>
      </trkpt>
      <trkpt lat="50.64951" lon="4.23203">
        <ele>55.89</ele>
        <time>2017-03-12T11:18:44Z</time>
      </trkpt>
      <trkpt lat="50.6495" lon="4.23211">
        <ele>55.41</ele>
        <time>2017-03-12T11:18:48Z</time>
      </trkpt>
      <trkpt lat="50.6495" lon="4.23217">
        <ele>55.41</ele>
        <time>2017-03-12T11:18:51Z</time>
      </trkpt>
      <trkpt lat="50.6495" lon="4.23219">
        <ele>55.41</ele>
        <time>2017-03-12T11:18:52Z</time>
      </trkpt>
      <trkpt lat="50.64949" lon="4.23242">
        <ele>54.93</ele>
        <time>2017-03-12T11:19:05Z</time>
      </trkpt>
      <trkpt lat="50.6495" lon="4.23246">
        <ele>54.93</ele>
        <time>2017-03-12T11:19:07Z</time>
      </trkpt>
      <trkpt lat="50.64949" lon="4.23248">
        <ele>54.93</ele>
        <time>2017-03-12T11:19:08Z</time>
      </trkpt>
      <trkpt lat="50.64947" lon="4.23276">
        <ele>53.97</ele>
        <time>2017-03-12T11:19:23Z</time>
      </trkpt>
      <trkpt lat="50.64947" lon="4.23304">
        <ele>52.53</ele>
        <time>2017-03-12T11:19:36Z</time>
      </trkpt>
      <trkpt lat="50.64954" lon="4.23331">
        <ele>51.57</ele>
        <time>2017-03-12T11:19:49Z</time>
      </trkpt>
      <trkpt lat="50.64958" lon="4.23334">
        <ele>51.57</ele>
        <time>2017-03-12T11:19:52Z</time>
      </trkpt>
      <trkpt lat="50.64972" lon="4.23336">
        <ele>50.13</ele>
        <time>2017-03-12T11:20:05Z</time>
      </trkpt>
      <trkpt lat="50.64988" lon="4.23345">
        <ele>48.2</ele>
        <time>2017-03-12T11:20:20Z</time>
      </trkpt>
      <trkpt lat="50.64992" lon="4.23348">
        <ele>47.72</ele>
        <time>2017-03-12T11:20:25Z</time>
      </trkpt>
      <trkpt lat="50.64993" lon="4.23348">
        <ele>47.24</ele>
        <time>2017-03-12T11:20:26Z</time>
      </trkpt>
      <trkpt lat="50.64995" lon="4.23348">
        <ele>47.24</ele>
        <time>2017-03-12T11:20:27Z</time>
      </trkpt>
      <trkpt lat="50.64996" lon="4.23348">
        <ele>47.24</ele>
        <time>2017-03-12T11:20:28Z</time>
      </trkpt>
      <trkpt lat="50.64997" lon="4.23348">
        <ele>47.24</ele>
        <time>2017-03-12T11:20:29Z</time>
      </trkpt>
      <trkpt lat="50.65013" lon="4.23346">
        <ele>46.28</ele>
        <time>2017-03-12T11:20:42Z</time>
      </trkpt>
      <trkpt lat="50.65024" lon="4.23335">
        <ele>46.28</ele>
        <time>2017-03-12T11:20:55Z</time>
      </trkpt>
      <trkpt lat="50.65042" lon="4.2332">
        <ele>46.28</ele>
        <time>2017-03-12T11:21:10Z</time>
      </trkpt>
      <trkpt lat="50.65059" lon="4.23301">
        <ele>46.28</ele>
        <time>2017-03-12T11:21:27Z</time>
      </trkpt>
      <trkpt lat="50.65073" lon="4.23287">
        <ele>45.8</ele>
        <time>2017-03-12T11:21:41Z</time>
      </trkpt>
      <trkpt lat="50.65086" lon="4.23285">
        <ele>45.8</ele>
        <time>2017-03-12T11:21:54Z</time>
      </trkpt>
      <trkpt lat="50.65097" lon="4.23272">
        <ele>45.8</ele>
        <time>2017-03-12T11:22:05Z</time>
      </trkpt>
      <trkpt lat="50.65106" lon="4.23264">
        <ele>45.8</ele>
        <time>2017-03-12T11:22:14Z</time>
      </trkpt>
      <trkpt lat="50.65107" lon="4.23263">
        <ele>45.8</ele>
        <time>2017-03-12T11:22:15Z</time>
      </trkpt>
      <trkpt lat="50.65108" lon="4.23262">
        <ele>45.8</ele>
        <time>2017-03-12T11:22:16Z</time>
      </trkpt>
      <trkpt lat="50.65123" lon="4.23248">
        <ele>45.8</ele>
        <time>2017-03-12T11:22:31Z</time>
      </trkpt>
      <trkpt lat="50.65136" lon="4.23238">
        <ele>45.8</ele>
        <time>2017-03-12T11:22:44Z</time>
      </trkpt>
      <trkpt lat="50.65147" lon="4.2323">
        <ele>45.8</ele>
        <time>2017-03-12T11:22:55Z</time>
      </trkpt>
      <trkpt lat="50.65153" lon="4.23238">
        <ele>45.8</ele>
        <time>2017-03-12T11:23:08Z</time>
      </trkpt>
      <trkpt lat="50.65158" lon="4.23239">
        <ele>45.8</ele>
        <time>2017-03-12T11:23:21Z</time>
      </trkpt>
      <trkpt lat="50.65165" lon="4.23232">
        <ele>45.8</ele>
        <time>2017-03-12T11:23:33Z</time>
      </trkpt>
      <trkpt lat="50.65166" lon="4.23232">
        <ele>45.8</ele>
        <time>2017-03-12T11:23:34Z</time>
      </trkpt>
      <trkpt lat="50.65167" lon="4.23231">
        <ele>45.8</ele>
        <time>2017-03-12T11:23:35Z</time>
      </trkpt>
      <trkpt lat="50.65169" lon="4.2323">
        <ele>45.8</ele>
        <time>2017-03-12T11:23:36Z</time>
      </trkpt>
      <trkpt lat="50.6517" lon="4.23229">
        <ele>45.8</ele>
        <time>2017-03-12T11:23:37Z</time>
      </trkpt>
      <trkpt lat="50.65177" lon="4.23224">
        <ele>45.8</ele>
        <time>2017-03-12T11:23:47Z</time>
      </trkpt>
      <trkpt lat="50.65191" lon="4.23216">
        <ele>46.76</ele>
        <time>2017-03-12T11:24:00Z</time>
      </trkpt>
      <trkpt lat="50.65198" lon="4.23217">
        <ele>47.24</ele>
        <time>2017-03-12T11:24:12Z</time>
      </trkpt>
      <trkpt lat="50.65199" lon="4.23227">
        <ele>47.24</ele>
        <time>2017-03-12T11:24:23Z</time>
      </trkpt>
      <trkpt lat="50.65197" lon="4.23218">
        <ele>46.28</ele>
        <time>2017-03-12T11:24:40Z</time>
      </trkpt>
      <trkpt lat="50.65196" lon="4.23218">
        <ele>46.28</ele>
        <time>2017-03-12T11:24:41Z</time>
      </trkpt>
      <trkpt lat="50.65194" lon="4.23213">
        <ele>46.76</ele>
        <time>2017-03-12T11:24:59Z</time>
      </trkpt>
      <trkpt lat="50.65196" lon="4.23228">
        <ele>46.28</ele>
        <time>2017-03-12T11:25:25Z</time>
      </trkpt>
      <trkpt lat="50.652" lon="4.23228">
        <ele>49.65</ele>
        <time>2017-03-12T11:25:44Z</time>
      </trkpt>
      <trkpt lat="50.65201" lon="4.23228">
        <ele>44.84</ele>
        <time>2017-03-12T11:25:46Z</time>
      </trkpt>
      <trkpt lat="50.65201" lon="4.23229">
        <ele>49.16</ele>
        <time>2017-03-12T11:25:47Z</time>
      </trkpt>
      <trkpt lat="50.65199" lon="4.23229">
        <ele>42.44</ele>
        <time>2017-03-12T11:25:55Z</time>
      </trkpt>
      <trkpt lat="50.65198" lon="4.23229">
        <ele>49.65</ele>
        <time>2017-03-12T11:25:56Z</time>
      </trkpt>
      <trkpt lat="50.65197" lon="4.23228">
        <ele>44.36</ele>
        <time>2017-03-12T11:25:57Z</time>
      </trkpt>
      <trkpt lat="50.65195" lon="4.23226">
        <ele>51.09</ele>
        <time>2017-03-12T11:26:00Z</time>
      </trkpt>
      <trkpt lat="50.65195" lon="4.23226">
        <ele>47.24</ele>
        <time>2017-03-12T11:26:01Z</time>
      </trkpt>
      <trkpt lat="50.65197" lon="4.23227">
        <ele>47.72</ele>
        <time>2017-03-12T11:26:11Z</time>
      </trkpt>
      <trkpt lat="50.65198" lon="4.23216">
        <ele>46.28</ele>
        <time>2017-03-12T11:26:34Z</time>
      </trkpt>
      <trkpt lat="50.65198" lon="4.23216">
        <ele>46.28</ele>
        <time>2017-03-12T11:26:35Z</time>
      </trkpt>
      <trkpt lat="50.65199" lon="4.23222">
        <ele>46.28</ele>
        <time>2017-03-12T11:27:12Z</time>
      </trkpt>
      <trkpt lat="50.65198" lon="4.23224">
        <ele>47.72</ele>
        <time>2017-03-12T11:27:33Z</time>
      </trkpt>
      <trkpt lat="50.65197" lon="4.23224">
        <ele>48.2</ele>
        <time>2017-03-12T11:27:41Z</time>
      </trkpt>
      <trkpt lat="50.65192" lon="4.232">
        <ele>48.2</ele>
        <time>2017-03-12T11:28:03Z</time>
      </trkpt>
      <trkpt lat="50.65196" lon="4.23211">
        <ele>45.8</ele>
        <time>2017-03-12T11:28:34Z</time>
      </trkpt>
      <trkpt lat="50.65199" lon="4.23218">
        <ele>48.2</ele>
        <time>2017-03-12T11:29:03Z</time>
      </trkpt>
      <trkpt lat="50.65196" lon="4.23217">
        <ele>46.76</ele>
        <time>2017-03-12T11:29:27Z</time>
      </trkpt>
      <trkpt lat="50.65195" lon="4.23225">
        <ele>48.68</ele>
        <time>2017-03-12T11:29:51Z</time>
      </trkpt>
      <trkpt lat="50.65198" lon="4.23224">
        <ele>49.16</ele>
        <time>2017-03-12T11:30:29Z</time>
      </trkpt>
      <trkpt lat="50.65196" lon="4.23227">
        <ele>49.16</ele>
        <time>2017-03-12T11:31:06Z</time>
      </trkpt>
      <trkpt lat="50.65198" lon="4.23218">
        <ele>49.16</ele>
        <time>2017-03-12T11:31:36Z</time>
      </trkpt>
      <trkpt lat="50.65194" lon="4.23208">
        <ele>49.16</ele>
        <time>2017-03-12T11:32:01Z</time>
      </trkpt>
      <trkpt lat="50.65191" lon="4.232">
        <ele>48.2</ele>
        <time>2017-03-12T11:32:18Z</time>
      </trkpt>
      <trkpt lat="50.6519" lon="4.23196">
        <ele>49.65</ele>
        <time>2017-03-12T11:32:24Z</time>
      </trkpt>
      <trkpt lat="50.65191" lon="4.23201">
        <ele>49.16</ele>
        <time>2017-03-12T11:32:51Z</time>
      </trkpt>
      <trkpt lat="50.65196" lon="4.23214">
        <ele>50.61</ele>
        <time>2017-03-12T11:33:10Z</time>
      </trkpt>
      <trkpt lat="50.65197" lon="4.23202">
        <ele>49.16</ele>
        <time>2017-03-12T11:33:31Z</time>
      </trkpt>
      <trkpt lat="50.65196" lon="4.232">
        <ele>50.61</ele>
        <time>2017-03-12T11:33:33Z</time>
      </trkpt>
      <trkpt lat="50.65195" lon="4.23199">
        <ele>49.16</ele>
        <time>2017-03-12T11:33:35Z</time>
      </trkpt>
      <trkpt lat="50.65194" lon="4.23202">
        <ele>50.13</ele>
        <time>2017-03-12T11:33:45Z</time>
      </trkpt>
      <trkpt lat="50.65191" lon="4.23199">
        <ele>50.61</ele>
        <time>2017-03-12T11:34:05Z</time>
      </trkpt>
      <trkpt lat="50.65195" lon="4.23194">
        <ele>50.61</ele>
        <time>2017-03-12T11:34:32Z</time>
      </trkpt>
      <trkpt lat="50.652" lon="4.232">
        <ele>50.61</ele>
        <time>2017-03-12T11:34:59Z</time>
      </trkpt>
      <trkpt lat="50.65192" lon="4.23198">
        <ele>50.61</ele>
        <time>2017-03-12T11:35:27Z</time>
      </trkpt>
      <trkpt lat="50.65192" lon="4.23202">
        <ele>49.16</ele>
        <time>2017-03-12T11:35:41Z</time>
      </trkpt>
      <trkpt lat="50.65187" lon="4.23199">
        <ele>49.16</ele>
        <time>2017-03-12T11:36:08Z</time>
      </trkpt>
      <trkpt lat="50.65189" lon="4.23202">
        <ele>51.09</ele>
        <time>2017-03-12T11:36:16Z</time>
      </trkpt>
      <trkpt lat="50.65193" lon="4.23198">
        <ele>50.13</ele>
        <time>2017-03-12T11:36:43Z</time>
      </trkpt>
      <trkpt lat="50.65188" lon="4.23194">
        <ele>50.13</ele>
        <time>2017-03-12T11:37:15Z</time>
      </trkpt>
      <trkpt lat="50.65187" lon="4.23185">
        <ele>51.09</ele>
        <time>2017-03-12T11:37:44Z</time>
      </trkpt>
      <trkpt lat="50.65189" lon="4.23197">
        <ele>50.13</ele>
        <time>2017-03-12T11:38:15Z</time>
      </trkpt>
      <trkpt lat="50.65194" lon="4.23215">
        <ele>50.13</ele>
        <time>2017-03-12T11:38:44Z</time>
      </trkpt>
      <trkpt lat="50.65197" lon="4.23209">
        <ele>51.57</ele>
        <time>2017-03-12T11:39:21Z</time>
      </trkpt>
      <trkpt lat="50.65197" lon="4.23215">
        <ele>51.57</ele>
        <time>2017-03-12T11:39:49Z</time>
      </trkpt>
      <trkpt lat="50.65197" lon="4.23213">
        <ele>50.13</ele>
        <time>2017-03-12T11:39:51Z</time>
      </trkpt>
      <trkpt lat="50.65184" lon="4.23173">
        <ele>50.13</ele>
        <time>2017-03-12T11:40:26Z</time>
      </trkpt>
      <trkpt lat="50.65181" lon="4.23164">
        <ele>50.61</ele>
        <time>2017-03-12T11:40:53Z</time>
      </trkpt>
      <trkpt lat="50.65183" lon="4.2318">
        <ele>50.61</ele>
        <time>2017-03-12T11:41:24Z</time>
      </trkpt>
      <trkpt lat="50.65191" lon="4.23183">
        <ele>50.61</ele>
        <time>2017-03-12T11:42:00Z</time>
      </trkpt>
      <trkpt lat="50.65193" lon="4.23195">
        <ele>51.09</ele>
        <time>2017-03-12T11:42:35Z</time>
      </trkpt>
      <trkpt lat="50.65186" lon="4.23188">
        <ele>51.09</ele>
        <time>2017-03-12T11:43:01Z</time>
      </trkpt>
      <trkpt lat="50.65186" lon="4.23184">
        <ele>51.57</ele>
        <time>2017-03-12T11:43:34Z</time>
      </trkpt>
      <trkpt lat="50.65189" lon="4.2319">
        <ele>52.53</ele>
        <time>2017-03-12T11:44:07Z</time>
      </trkpt>
      <trkpt lat="50.65193" lon="4.23193">
        <ele>53.01</ele>
        <time>2017-03-12T11:44:36Z</time>
      </trkpt>
      <trkpt lat="50.65186" lon="4.23183">
        <ele>53.49</ele>
        <time>2017-03-12T11:45:08Z</time>
      </trkpt>
      <trkpt lat="50.65187" lon="4.2319">
        <ele>52.53</ele>
        <time>2017-03-12T11:45:35Z</time>
      </trkpt>
      <trkpt lat="50.65181" lon="4.23185">
        <ele>52.53</ele>
        <time>2017-03-12T11:46:06Z</time>
      </trkpt>
      <trkpt lat="50.65188" lon="4.23215">
        <ele>53.01</ele>
        <time>2017-03-12T11:46:26Z</time>
      </trkpt>
      <trkpt lat="50.65187" lon="4.23211">
        <ele>54.45</ele>
        <time>2017-03-12T11:46:48Z</time>
      </trkpt>
      <trkpt lat="50.65191" lon="4.23214">
        <ele>53.49</ele>
        <time>2017-03-12T11:47:07Z</time>
      </trkpt>
      <trkpt lat="50.65184" lon="4.23189">
        <ele>53.49</ele>
        <time>2017-03-12T11:47:37Z</time>
      </trkpt>
      <trkpt lat="50.65187" lon="4.23189">
        <ele>53.49</ele>
        <time>2017-03-12T11:48:03Z</time>
      </trkpt>
      <trkpt lat="50.65187" lon="4.23191">
        <ele>45.8</ele>
        <time>2017-03-12T11:48:05Z</time>
      </trkpt>
      <trkpt lat="50.65187" lon="4.23193">
        <ele>60.22</ele>
        <time>2017-03-12T11:48:06Z</time>
      </trkpt>
      <trkpt lat="50.65188" lon="4.23194">
        <ele>53.49</ele>
        <time>2017-03-12T11:48:07Z</time>
      </trkpt>
      <trkpt lat="50.65187" lon="4.23193">
        <ele>49.16</ele>
        <time>2017-03-12T11:48:08Z</time>
      </trkpt>
      <trkpt lat="50.65187" lon="4.23192">
        <ele>45.8</ele>
        <time>2017-03-12T11:48:09Z</time>
      </trkpt>
      <trkpt lat="50.65186" lon="4.23191">
        <ele>59.74</ele>
        <time>2017-03-12T11:48:10Z</time>
      </trkpt>
      <trkpt lat="50.65186" lon="4.2319">
        <ele>49.16</ele>
        <time>2017-03-12T11:48:11Z</time>
      </trkpt>
      <trkpt lat="50.65186" lon="4.2319">
        <ele>63.58</ele>
        <time>2017-03-12T11:48:12Z</time>
      </trkpt>
      <trkpt lat="50.65185" lon="4.23191">
        <ele>54.45</ele>
        <time>2017-03-12T11:48:13Z</time>
      </trkpt>
      <trkpt lat="50.65185" lon="4.23192">
        <ele>54.45</ele>
        <time>2017-03-12T11:48:14Z</time>
      </trkpt>
      <trkpt lat="50.65193" lon="4.23206">
        <ele>54.45</ele>
        <time>2017-03-12T11:48:30Z</time>
      </trkpt>
      <trkpt lat="50.65196" lon="4.2321">
        <ele>55.41</ele>
        <time>2017-03-12T11:48:44Z</time>
      </trkpt>
      <trkpt lat="50.65189" lon="4.23199">
        <ele>53.97</ele>
        <time>2017-03-12T11:48:57Z</time>
      </trkpt>
      <trkpt lat="50.65186" lon="4.23195">
        <ele>57.82</ele>
        <time>2017-03-12T11:49:01Z</time>
      </trkpt>
      <trkpt lat="50.65186" lon="4.23194">
        <ele>55.89</ele>
        <time>2017-03-12T11:49:02Z</time>
      </trkpt>
      <trkpt lat="50.65185" lon="4.23192">
        <ele>54.93</ele>
        <time>2017-03-12T11:49:04Z</time>
      </trkpt>
      <trkpt lat="50.65188" lon="4.23201">
        <ele>54.93</ele>
        <time>2017-03-12T11:49:24Z</time>
      </trkpt>
      <trkpt lat="50.65189" lon="4.23194">
        <ele>55.41</ele>
        <time>2017-03-12T11:49:56Z</time>
      </trkpt>
      <trkpt lat="50.65199" lon="4.23187">
        <ele>54.45</ele>
        <time>2017-03-12T11:50:18Z</time>
      </trkpt>
      <trkpt lat="50.65224" lon="4.23213">
        <ele>53.97</ele>
        <time>2017-03-12T11:50:42Z</time>
      </trkpt>
      <trkpt lat="50.65246" lon="4.23206">
        <ele>54.45</ele>
        <time>2017-03-12T11:51:03Z</time>
      </trkpt>
      <trkpt lat="50.65249" lon="4.23207">
        <ele>54.45</ele>
        <time>2017-03-12T11:51:26Z</time>
      </trkpt>
      <trkpt lat="50.65253" lon="4.23238">
        <ele>54.45</ele>
        <time>2017-03-12T11:51:43Z</time>
      </trkpt>
      <trkpt lat="50.65258" lon="4.23258">
        <ele>53.97</ele>
        <time>2017-03-12T11:51:59Z</time>
      </trkpt>
      <trkpt lat="50.65256" lon="4.23261">
        <ele>54.93</ele>
        <time>2017-03-12T11:52:01Z</time>
      </trkpt>
      <trkpt lat="50.65239" lon="4.2328">
        <ele>53.97</ele>
        <time>2017-03-12T11:52:19Z</time>
      </trkpt>
      <trkpt lat="50.65235" lon="4.23285">
        <ele>54.93</ele>
        <time>2017-03-12T11:52:24Z</time>
      </trkpt>
      <trkpt lat="50.65231" lon="4.23289">
        <ele>53.49</ele>
        <time>2017-03-12T11:52:29Z</time>
      </trkpt>
      <trkpt lat="50.6523" lon="4.23291">
        <ele>54.93</ele>
        <time>2017-03-12T11:52:31Z</time>
      </trkpt>
      <trkpt lat="50.65203" lon="4.23306">
        <ele>55.41</ele>
        <time>2017-03-12T11:52:53Z</time>
      </trkpt>
      <trkpt lat="50.652" lon="4.23306">
        <ele>53.49</ele>
        <time>2017-03-12T11:52:55Z</time>
      </trkpt>
      <trkpt lat="50.65193" lon="4.23338">
        <ele>54.93</ele>
        <time>2017-03-12T11:53:15Z</time>
      </trkpt>
      <trkpt lat="50.65193" lon="4.23342">
        <ele>54.45</ele>
        <time>2017-03-12T11:53:37Z</time>
      </trkpt>
      <trkpt lat="50.652" lon="4.23368">
        <ele>54.45</ele>
        <time>2017-03-12T11:53:56Z</time>
      </trkpt>
      <trkpt lat="50.65214" lon="4.23363">
        <ele>54.93</ele>
        <time>2017-03-12T11:54:05Z</time>
      </trkpt>
      <trkpt lat="50.65217" lon="4.2336">
        <ele>53.49</ele>
        <time>2017-03-12T11:54:08Z</time>
      </trkpt>
      <trkpt lat="50.65234" lon="4.23342">
        <ele>53.49</ele>
        <time>2017-03-12T11:54:25Z</time>
      </trkpt>
      <trkpt lat="50.65243" lon="4.23331">
        <ele>54.93</ele>
        <time>2017-03-12T11:54:35Z</time>
      </trkpt>
      <trkpt lat="50.65247" lon="4.23329">
        <ele>53.49</ele>
        <time>2017-03-12T11:54:38Z</time>
      </trkpt>
      <trkpt lat="50.65258" lon="4.23322">
        <ele>53.01</ele>
        <time>2017-03-12T11:54:46Z</time>
      </trkpt>
      <trkpt lat="50.65259" lon="4.23321">
        <ele>53.01</ele>
        <time>2017-03-12T11:54:47Z</time>
      </trkpt>
      <trkpt lat="50.6526" lon="4.23319">
        <ele>52.05</ele>
        <time>2017-03-12T11:54:48Z</time>
      </trkpt>
      <trkpt lat="50.65267" lon="4.23311">
        <ele>53.01</ele>
        <time>2017-03-12T11:54:55Z</time>
      </trkpt>
      <trkpt lat="50.65276" lon="4.23304">
        <ele>51.57</ele>
        <time>2017-03-12T11:55:02Z</time>
      </trkpt>
      <trkpt lat="50.65284" lon="4.23295">
        <ele>52.05</ele>
        <time>2017-03-12T11:55:11Z</time>
      </trkpt>
      <trkpt lat="50.65286" lon="4.23294">
        <ele>50.61</ele>
        <time>2017-03-12T11:55:13Z</time>
      </trkpt>
      <trkpt lat="50.65305" lon="4.23281">
        <ele>49.16</ele>
        <time>2017-03-12T11:55:31Z</time>
      </trkpt>
      <trkpt lat="50.65321" lon="4.23275">
        <ele>49.16</ele>
        <time>2017-03-12T11:55:48Z</time>
      </trkpt>
      <trkpt lat="50.65323" lon="4.23274">
        <ele>47.72</ele>
        <time>2017-03-12T11:55:50Z</time>
      </trkpt>
      <trkpt lat="50.65347" lon="4.23268">
        <ele>48.68</ele>
        <time>2017-03-12T11:56:10Z</time>
      </trkpt>
      <trkpt lat="50.65373" lon="4.23269">
        <ele>48.2</ele>
        <time>2017-03-12T11:56:29Z</time>
      </trkpt>
      <trkpt lat="50.65388" lon="4.23271">
        <ele>49.16</ele>
        <time>2017-03-12T11:56:41Z</time>
      </trkpt>
      <trkpt lat="50.6541" lon="4.23276">
        <ele>48.68</ele>
        <time>2017-03-12T11:56:59Z</time>
      </trkpt>
      <trkpt lat="50.65418" lon="4.23278">
        <ele>47.24</ele>
        <time>2017-03-12T11:57:05Z</time>
      </trkpt>
      <trkpt lat="50.65421" lon="4.2328">
        <ele>48.68</ele>
        <time>2017-03-12T11:57:08Z</time>
      </trkpt>
      <trkpt lat="50.65428" lon="4.23287">
        <ele>47.24</ele>
        <time>2017-03-12T11:57:15Z</time>
      </trkpt>
      <trkpt lat="50.6543" lon="4.23289">
        <ele>48.68</ele>
        <time>2017-03-12T11:57:17Z</time>
      </trkpt>
      <trkpt lat="50.65433" lon="4.23295">
        <ele>48.68</ele>
        <time>2017-03-12T11:57:21Z</time>
      </trkpt>
      <trkpt lat="50.65434" lon="4.23299">
        <ele>48.68</ele>
        <time>2017-03-12T11:57:23Z</time>
      </trkpt>
      <trkpt lat="50.6544" lon="4.23318">
        <ele>49.16</ele>
        <time>2017-03-12T11:57:34Z</time>
      </trkpt>
      <trkpt lat="50.65441" lon="4.23323">
        <ele>47.72</ele>
        <time>2017-03-12T11:57:37Z</time>
      </trkpt>
      <trkpt lat="50.65442" lon="4.23341">
        <ele>48.2</ele>
        <time>2017-03-12T11:57:49Z</time>
      </trkpt>
      <trkpt lat="50.65443" lon="4.23347">
        <ele>50.61</ele>
        <time>2017-03-12T11:57:53Z</time>
      </trkpt>
      <trkpt lat="50.65443" lon="4.23348">
        <ele>49.16</ele>
        <time>2017-03-12T11:57:55Z</time>
      </trkpt>
      <trkpt lat="50.65442" lon="4.23347">
        <ele>48.68</ele>
        <time>2017-03-12T11:58:21Z</time>
      </trkpt>
      <trkpt lat="50.65453" lon="4.2335">
        <ele>48.2</ele>
        <time>2017-03-12T11:58:47Z</time>
      </trkpt>
      <trkpt lat="50.65457" lon="4.23356">
        <ele>50.13</ele>
        <time>2017-03-12T11:58:50Z</time>
      </trkpt>
      <trkpt lat="50.65463" lon="4.23366">
        <ele>50.61</ele>
        <time>2017-03-12T11:58:56Z</time>
      </trkpt>
      <trkpt lat="50.65476" lon="4.23371">
        <ele>52.05</ele>
        <time>2017-03-12T11:59:06Z</time>
      </trkpt>
      <trkpt lat="50.65478" lon="4.23372">
        <ele>49.65</ele>
        <time>2017-03-12T11:59:08Z</time>
      </trkpt>
      <trkpt lat="50.6548" lon="4.23373">
        <ele>52.53</ele>
        <time>2017-03-12T11:59:09Z</time>
      </trkpt>
      <trkpt lat="50.65481" lon="4.23373">
        <ele>52.53</ele>
        <time>2017-03-12T11:59:10Z</time>
      </trkpt>
      <trkpt lat="50.65489" lon="4.23377">
        <ele>51.57</ele>
        <time>2017-03-12T11:59:16Z</time>
      </trkpt>
      <trkpt lat="50.65492" lon="4.23378">
        <ele>53.49</ele>
        <time>2017-03-12T11:59:18Z</time>
      </trkpt>
      <trkpt lat="50.65498" lon="4.2338">
        <ele>53.97</ele>
        <time>2017-03-12T11:59:22Z</time>
      </trkpt>
      <trkpt lat="50.65506" lon="4.23388">
        <ele>56.37</ele>
        <time>2017-03-12T11:59:31Z</time>
      </trkpt>
      <trkpt lat="50.65512" lon="4.23393">
        <ele>56.86</ele>
        <time>2017-03-12T11:59:37Z</time>
      </trkpt>
      <trkpt lat="50.65518" lon="4.23398">
        <ele>55.41</ele>
        <time>2017-03-12T11:59:43Z</time>
      </trkpt>
      <trkpt lat="50.6552" lon="4.234">
        <ele>57.82</ele>
        <time>2017-03-12T11:59:45Z</time>
      </trkpt>
      <trkpt lat="50.65528" lon="4.23407">
        <ele>58.78</ele>
        <time>2017-03-12T11:59:52Z</time>
      </trkpt>
      <trkpt lat="50.65535" lon="4.2341">
        <ele>56.86</ele>
        <time>2017-03-12T11:59:57Z</time>
      </trkpt>
      <trkpt lat="50.65539" lon="4.23412">
        <ele>58.78</ele>
        <time>2017-03-12T12:00:00Z</time>
      </trkpt>
      <trkpt lat="50.65546" lon="4.23422">
        <ele>58.3</ele>
        <time>2017-03-12T12:00:08Z</time>
      </trkpt>
      <trkpt lat="50.65551" lon="4.23426">
        <ele>61.18</ele>
        <time>2017-03-12T12:00:13Z</time>
      </trkpt>
      <trkpt lat="50.65557" lon="4.2343">
        <ele>61.66</ele>
        <time>2017-03-12T12:00:19Z</time>
      </trkpt>
      <trkpt lat="50.65571" lon="4.2344">
        <ele>61.66</ele>
        <time>2017-03-12T12:00:33Z</time>
      </trkpt>
      <trkpt lat="50.65575" lon="4.23442">
        <ele>63.1</ele>
        <time>2017-03-12T12:00:36Z</time>
      </trkpt>
      <trkpt lat="50.65584" lon="4.23455">
        <ele>65.51</ele>
        <time>2017-03-12T12:00:47Z</time>
      </trkpt>
      <trkpt lat="50.6559" lon="4.2347">
        <ele>66.95</ele>
        <time>2017-03-12T12:00:57Z</time>
      </trkpt>
      <trkpt lat="50.6559" lon="4.23473">
        <ele>67.43</ele>
        <time>2017-03-12T12:00:58Z</time>
      </trkpt>
      <trkpt lat="50.65595" lon="4.23512">
        <ele>66.47</ele>
        <time>2017-03-12T12:01:19Z</time>
      </trkpt>
      <trkpt lat="50.65597" lon="4.23517">
        <ele>67.91</ele>
        <time>2017-03-12T12:01:22Z</time>
      </trkpt>
      <trkpt lat="50.65601" lon="4.23525">
        <ele>66.47</ele>
        <time>2017-03-12T12:01:28Z</time>
      </trkpt>
      <trkpt lat="50.65602" lon="4.2353">
        <ele>68.39</ele>
        <time>2017-03-12T12:01:30Z</time>
      </trkpt>
      <trkpt lat="50.65603" lon="4.23548">
        <ele>68.87</ele>
        <time>2017-03-12T12:01:38Z</time>
      </trkpt>
      <trkpt lat="50.65607" lon="4.23557">
        <ele>67.43</ele>
        <time>2017-03-12T12:01:44Z</time>
      </trkpt>
      <trkpt lat="50.65608" lon="4.23558">
        <ele>68.87</ele>
        <time>2017-03-12T12:01:46Z</time>
      </trkpt>
      <trkpt lat="50.65613" lon="4.23576">
        <ele>67.91</ele>
        <time>2017-03-12T12:01:57Z</time>
      </trkpt>
      <trkpt lat="50.65614" lon="4.23579">
        <ele>69.35</ele>
        <time>2017-03-12T12:01:59Z</time>
      </trkpt>
      <trkpt lat="50.65626" lon="4.23596">
        <ele>70.79</ele>
        <time>2017-03-12T12:02:14Z</time>
      </trkpt>
      <trkpt lat="50.65629" lon="4.23603">
        <ele>69.83</ele>
        <time>2017-03-12T12:02:18Z</time>
      </trkpt>
      <trkpt lat="50.65638" lon="4.23617">
        <ele>71.76</ele>
        <time>2017-03-12T12:02:28Z</time>
      </trkpt>
      <trkpt lat="50.65644" lon="4.23622">
        <ele>69.83</ele>
        <time>2017-03-12T12:02:33Z</time>
      </trkpt>
      <trkpt lat="50.65658" lon="4.23637">
        <ele>72.72</ele>
        <time>2017-03-12T12:02:48Z</time>
      </trkpt>
      <trkpt lat="50.65663" lon="4.23643">
        <ele>71.76</ele>
        <time>2017-03-12T12:02:53Z</time>
      </trkpt>
      <trkpt lat="50.65665" lon="4.23645">
        <ele>73.2</ele>
        <time>2017-03-12T12:02:55Z</time>
      </trkpt>
      <trkpt lat="50.65668" lon="4.23647">
        <ele>71.76</ele>
        <time>2017-03-12T12:02:59Z</time>
      </trkpt>
      <trkpt lat="50.6567" lon="4.23649">
        <ele>73.68</ele>
        <time>2017-03-12T12:03:01Z</time>
      </trkpt>
      <trkpt lat="50.65677" lon="4.23654">
        <ele>74.16</ele>
        <time>2017-03-12T12:03:08Z</time>
      </trkpt>
      <trkpt lat="50.65678" lon="4.23656">
        <ele>72.72</ele>
        <time>2017-03-12T12:03:10Z</time>
      </trkpt>
      <trkpt lat="50.65681" lon="4.23662">
        <ele>74.16</ele>
        <time>2017-03-12T12:03:15Z</time>
      </trkpt>
      <trkpt lat="50.65682" lon="4.23666">
        <ele>72.72</ele>
        <time>2017-03-12T12:03:18Z</time>
      </trkpt>
      <trkpt lat="50.65683" lon="4.23668">
        <ele>74.64</ele>
        <time>2017-03-12T12:03:20Z</time>
      </trkpt>
      <trkpt lat="50.65692" lon="4.23687">
        <ele>75.6</ele>
        <time>2017-03-12T12:03:32Z</time>
      </trkpt>
      <trkpt lat="50.65703" lon="4.23702">
        <ele>76.56</ele>
        <time>2017-03-12T12:03:43Z</time>
      </trkpt>
      <trkpt lat="50.65712" lon="4.23714">
        <ele>75.6</ele>
        <time>2017-03-12T12:03:54Z</time>
      </trkpt>
      <trkpt lat="50.65719" lon="4.2372">
        <ele>77.04</ele>
        <time>2017-03-12T12:03:59Z</time>
      </trkpt>
      <trkpt lat="50.65741" lon="4.23714">
        <ele>77.04</ele>
        <time>2017-03-12T12:04:21Z</time>
      </trkpt>
      <trkpt lat="50.65744" lon="4.2371">
        <ele>78.97</ele>
        <time>2017-03-12T12:04:24Z</time>
      </trkpt>
      <trkpt lat="50.65766" lon="4.2368">
        <ele>78.48</ele>
        <time>2017-03-12T12:04:49Z</time>
      </trkpt>
      <trkpt lat="50.65777" lon="4.2366">
        <ele>81.85</ele>
        <time>2017-03-12T12:05:04Z</time>
      </trkpt>
      <trkpt lat="50.6579" lon="4.23639">
        <ele>82.33</ele>
        <time>2017-03-12T12:05:21Z</time>
      </trkpt>
      <trkpt lat="50.65791" lon="4.23636">
        <ele>80.89</ele>
        <time>2017-03-12T12:05:23Z</time>
      </trkpt>
      <trkpt lat="50.65793" lon="4.23634">
        <ele>82.81</ele>
        <time>2017-03-12T12:05:25Z</time>
      </trkpt>
      <trkpt lat="50.65796" lon="4.2363">
        <ele>81.37</ele>
        <time>2017-03-12T12:05:31Z</time>
      </trkpt>
      <trkpt lat="50.65797" lon="4.23631">
        <ele>82.81</ele>
        <time>2017-03-12T12:05:34Z</time>
      </trkpt>
      <trkpt lat="50.65812" lon="4.23651">
        <ele>84.25</ele>
        <time>2017-03-12T12:05:53Z</time>
      </trkpt>
      <trkpt lat="50.65824" lon="4.23664">
        <ele>85.69</ele>
        <time>2017-03-12T12:06:07Z</time>
      </trkpt>
      <trkpt lat="50.65826" lon="4.23666">
        <ele>84.25</ele>
        <time>2017-03-12T12:06:09Z</time>
      </trkpt>
      <trkpt lat="50.65838" lon="4.23685">
        <ele>88.1</ele>
        <time>2017-03-12T12:06:26Z</time>
      </trkpt>
      <trkpt lat="50.6584" lon="4.23687">
        <ele>85.21</ele>
        <time>2017-03-12T12:06:28Z</time>
      </trkpt>
      <trkpt lat="50.65844" lon="4.23693">
        <ele>88.58</ele>
        <time>2017-03-12T12:06:34Z</time>
      </trkpt>
      <trkpt lat="50.65847" lon="4.23695">
        <ele>86.66</ele>
        <time>2017-03-12T12:06:37Z</time>
      </trkpt>
      <trkpt lat="50.65857" lon="4.23703">
        <ele>89.06</ele>
        <time>2017-03-12T12:06:47Z</time>
      </trkpt>
      <trkpt lat="50.65858" lon="4.23706">
        <ele>86.18</ele>
        <time>2017-03-12T12:06:49Z</time>
      </trkpt>
      <trkpt lat="50.65866" lon="4.23715">
        <ele>90.5</ele>
        <time>2017-03-12T12:06:58Z</time>
      </trkpt>
      <trkpt lat="50.65867" lon="4.23716">
        <ele>90.5</ele>
        <time>2017-03-12T12:06:59Z</time>
      </trkpt>
      <trkpt lat="50.6587" lon="4.23717">
        <ele>88.58</ele>
        <time>2017-03-12T12:07:01Z</time>
      </trkpt>
      <trkpt lat="50.65885" lon="4.23738">
        <ele>89.54</ele>
        <time>2017-03-12T12:07:20Z</time>
      </trkpt>
      <trkpt lat="50.65887" lon="4.2374">
        <ele>90.5</ele>
        <time>2017-03-12T12:07:22Z</time>
      </trkpt>
      <trkpt lat="50.65895" lon="4.23756">
        <ele>89.54</ele>
        <time>2017-03-12T12:07:41Z</time>
      </trkpt>
      <trkpt lat="50.65898" lon="4.2376">
        <ele>91.46</ele>
        <time>2017-03-12T12:07:44Z</time>
      </trkpt>
      <trkpt lat="50.65904" lon="4.23764">
        <ele>91.46</ele>
        <time>2017-03-12T12:07:50Z</time>
      </trkpt>
      <trkpt lat="50.65908" lon="4.23768">
        <ele>90.02</ele>
        <time>2017-03-12T12:07:54Z</time>
      </trkpt>
      <trkpt lat="50.65909" lon="4.2377">
        <ele>91.46</ele>
        <time>2017-03-12T12:07:56Z</time>
      </trkpt>
      <trkpt lat="50.65931" lon="4.23793">
        <ele>92.9</ele>
        <time>2017-03-12T12:08:20Z</time>
      </trkpt>
      <trkpt lat="50.65952" lon="4.23813">
        <ele>95.31</ele>
        <time>2017-03-12T12:08:42Z</time>
      </trkpt>
      <trkpt lat="50.65955" lon="4.23814">
        <ele>95.79</ele>
        <time>2017-03-12T12:08:44Z</time>
      </trkpt>
      <trkpt lat="50.65955" lon="4.23816">
        <ele>93.87</ele>
        <time>2017-03-12T12:08:47Z</time>
      </trkpt>
      <trkpt lat="50.65957" lon="4.23818">
        <ele>95.79</ele>
        <time>2017-03-12T12:08:49Z</time>
      </trkpt>
      <trkpt lat="50.65979" lon="4.23835">
        <ele>98.19</ele>
        <time>2017-03-12T12:09:10Z</time>
      </trkpt>
      <trkpt lat="50.65992" lon="4.23839">
        <ele>99.63</ele>
        <time>2017-03-12T12:09:30Z</time>
      </trkpt>
      <trkpt lat="50.65993" lon="4.23839">
        <ele>101.08</ele>
        <time>2017-03-12T12:09:33Z</time>
      </trkpt>
      <trkpt lat="50.66017" lon="4.23857">
        <ele>102.04</ele>
        <time>2017-03-12T12:09:51Z</time>
      </trkpt>
      <trkpt lat="50.66034" lon="4.23871">
        <ele>104.92</ele>
        <time>2017-03-12T12:10:09Z</time>
      </trkpt>
      <trkpt lat="50.66042" lon="4.23874">
        <ele>105.88</ele>
        <time>2017-03-12T12:10:19Z</time>
      </trkpt>
      <trkpt lat="50.66045" lon="4.23874">
        <ele>104.44</ele>
        <time>2017-03-12T12:10:22Z</time>
      </trkpt>
      <trkpt lat="50.66059" lon="4.23875">
        <ele>107.81</ele>
        <time>2017-03-12T12:10:34Z</time>
      </trkpt>
      <trkpt lat="50.66077" lon="4.23861">
        <ele>105.88</ele>
        <time>2017-03-12T12:10:54Z</time>
      </trkpt>
      <trkpt lat="50.66088" lon="4.23827">
        <ele>104.92</ele>
        <time>2017-03-12T12:11:14Z</time>
      </trkpt>
      <trkpt lat="50.66098" lon="4.23804">
        <ele>101.08</ele>
        <time>2017-03-12T12:11:32Z</time>
      </trkpt>
      <trkpt lat="50.6611" lon="4.23777">
        <ele>100.6</ele>
        <time>2017-03-12T12:11:55Z</time>
      </trkpt>
      <trkpt lat="50.6611" lon="4.23773">
        <ele>99.63</ele>
        <time>2017-03-12T12:12:18Z</time>
      </trkpt>
      <trkpt lat="50.66121" lon="4.23756">
        <ele>96.27</ele>
        <time>2017-03-12T12:12:38Z</time>
      </trkpt>
      <trkpt lat="50.66127" lon="4.23741">
        <ele>93.87</ele>
        <time>2017-03-12T12:12:49Z</time>
      </trkpt>
      <trkpt lat="50.66142" lon="4.23718">
        <ele>91.94</ele>
        <time>2017-03-12T12:13:09Z</time>
      </trkpt>
      <trkpt lat="50.66153" lon="4.23691">
        <ele>90.02</ele>
        <time>2017-03-12T12:13:28Z</time>
      </trkpt>
      <trkpt lat="50.66163" lon="4.23669">
        <ele>90.98</ele>
        <time>2017-03-12T12:13:42Z</time>
      </trkpt>
      <trkpt lat="50.66168" lon="4.23658">
        <ele>90.98</ele>
        <time>2017-03-12T12:13:49Z</time>
      </trkpt>
      <trkpt lat="50.66169" lon="4.23656">
        <ele>92.42</ele>
        <time>2017-03-12T12:13:50Z</time>
      </trkpt>
      <trkpt lat="50.66171" lon="4.2365">
        <ele>92.42</ele>
        <time>2017-03-12T12:13:54Z</time>
      </trkpt>
      <trkpt lat="50.66188" lon="4.23621">
        <ele>92.9</ele>
        <time>2017-03-12T12:14:10Z</time>
      </trkpt>
      <trkpt lat="50.66196" lon="4.23606">
        <ele>95.79</ele>
        <time>2017-03-12T12:14:21Z</time>
      </trkpt>
      <trkpt lat="50.66196" lon="4.23605">
        <ele>95.79</ele>
        <time>2017-03-12T12:14:22Z</time>
      </trkpt>
      <trkpt lat="50.66203" lon="4.23594">
        <ele>98.19</ele>
        <time>2017-03-12T12:14:32Z</time>
      </trkpt>
      <trkpt lat="50.66204" lon="4.23591">
        <ele>96.27</ele>
        <time>2017-03-12T12:14:35Z</time>
      </trkpt>
      <trkpt lat="50.66204" lon="4.23588">
        <ele>98.67</ele>
        <time>2017-03-12T12:14:37Z</time>
      </trkpt>
      <trkpt lat="50.66212" lon="4.23566">
        <ele>101.08</ele>
        <time>2017-03-12T12:14:58Z</time>
      </trkpt>
      <trkpt lat="50.66218" lon="4.23553">
        <ele>104.44</ele>
        <time>2017-03-12T12:15:08Z</time>
      </trkpt>
      <trkpt lat="50.66221" lon="4.23552">
        <ele>102.52</ele>
        <time>2017-03-12T12:15:09Z</time>
      </trkpt>
      <trkpt lat="50.66224" lon="4.23548">
        <ele>104.92</ele>
        <time>2017-03-12T12:15:12Z</time>
      </trkpt>
      <trkpt lat="50.66232" lon="4.23538">
        <ele>105.4</ele>
        <time>2017-03-12T12:15:25Z</time>
      </trkpt>
      <trkpt lat="50.66239" lon="4.23533">
        <ele>107.32</ele>
        <time>2017-03-12T12:15:31Z</time>
      </trkpt>
      <trkpt lat="50.66242" lon="4.2353">
        <ele>106.36</ele>
        <time>2017-03-12T12:15:37Z</time>
      </trkpt>
      <trkpt lat="50.66244" lon="4.23516">
        <ele>108.77</ele>
        <time>2017-03-12T12:15:53Z</time>
      </trkpt>
      <trkpt lat="50.66237" lon="4.23494">
        <ele>108.77</ele>
        <time>2017-03-12T12:16:05Z</time>
      </trkpt>
      <trkpt lat="50.66235" lon="4.23488">
        <ele>107.32</ele>
        <time>2017-03-12T12:16:10Z</time>
      </trkpt>
      <trkpt lat="50.66231" lon="4.23481">
        <ele>108.77</ele>
        <time>2017-03-12T12:16:16Z</time>
      </trkpt>
      <trkpt lat="50.66226" lon="4.2347">
        <ele>108.77</ele>
        <time>2017-03-12T12:16:39Z</time>
      </trkpt>
      <trkpt lat="50.66222" lon="4.23444">
        <ele>108.29</ele>
        <time>2017-03-12T12:16:56Z</time>
      </trkpt>
      <trkpt lat="50.6622" lon="4.23428">
        <ele>108.29</ele>
        <time>2017-03-12T12:17:04Z</time>
      </trkpt>
      <trkpt lat="50.6622" lon="4.23424">
        <ele>109.73</ele>
        <time>2017-03-12T12:17:06Z</time>
      </trkpt>
      <trkpt lat="50.6622" lon="4.23415">
        <ele>106.84</ele>
        <time>2017-03-12T12:17:10Z</time>
      </trkpt>
      <trkpt lat="50.6622" lon="4.23401">
        <ele>110.69</ele>
        <time>2017-03-12T12:17:16Z</time>
      </trkpt>
      <trkpt lat="50.66217" lon="4.23366">
        <ele>109.73</ele>
        <time>2017-03-12T12:17:37Z</time>
      </trkpt>
      <trkpt lat="50.66217" lon="4.23362">
        <ele>107.81</ele>
        <time>2017-03-12T12:17:39Z</time>
      </trkpt>
      <trkpt lat="50.66212" lon="4.23326">
        <ele>107.32</ele>
        <time>2017-03-12T12:18:01Z</time>
      </trkpt>
      <trkpt lat="50.66212" lon="4.23318">
        <ele>105.88</ele>
        <time>2017-03-12T12:18:04Z</time>
      </trkpt>
      <trkpt lat="50.66214" lon="4.23297">
        <ele>105.88</ele>
        <time>2017-03-12T12:18:17Z</time>
      </trkpt>
      <trkpt lat="50.66214" lon="4.23294">
        <ele>107.32</ele>
        <time>2017-03-12T12:18:19Z</time>
      </trkpt>
      <trkpt lat="50.66214" lon="4.23291">
        <ele>106.36</ele>
        <time>2017-03-12T12:18:21Z</time>
      </trkpt>
      <trkpt lat="50.66214" lon="4.23257">
        <ele>104.92</ele>
        <time>2017-03-12T12:18:39Z</time>
      </trkpt>
      <trkpt lat="50.66213" lon="4.23246">
        <ele>106.84</ele>
        <time>2017-03-12T12:18:45Z</time>
      </trkpt>
      <trkpt lat="50.66214" lon="4.23241">
        <ele>105.4</ele>
        <time>2017-03-12T12:18:47Z</time>
      </trkpt>
      <trkpt lat="50.66215" lon="4.23217">
        <ele>105.4</ele>
        <time>2017-03-12T12:18:56Z</time>
      </trkpt>
      <trkpt lat="50.66216" lon="4.23195">
        <ele>104.44</ele>
        <time>2017-03-12T12:19:07Z</time>
      </trkpt>
      <trkpt lat="50.66223" lon="4.23159">
        <ele>104.44</ele>
        <time>2017-03-12T12:19:26Z</time>
      </trkpt>
      <trkpt lat="50.66228" lon="4.23127">
        <ele>104.92</ele>
        <time>2017-03-12T12:19:43Z</time>
      </trkpt>
      <trkpt lat="50.66229" lon="4.23121">
        <ele>103.48</ele>
        <time>2017-03-12T12:19:46Z</time>
      </trkpt>
      <trkpt lat="50.66237" lon="4.23084">
        <ele>102.52</ele>
        <time>2017-03-12T12:20:06Z</time>
      </trkpt>
      <trkpt lat="50.66243" lon="4.2304">
        <ele>100.11</ele>
        <time>2017-03-12T12:20:26Z</time>
      </trkpt>
      <trkpt lat="50.66251" lon="4.23015">
        <ele>99.15</ele>
        <time>2017-03-12T12:20:44Z</time>
      </trkpt>
      <trkpt lat="50.66254" lon="4.22998">
        <ele>98.67</ele>
        <time>2017-03-12T12:21:05Z</time>
      </trkpt>
      <trkpt lat="50.66264" lon="4.22979">
        <ele>97.23</ele>
        <time>2017-03-12T12:21:17Z</time>
      </trkpt>
      <trkpt lat="50.66277" lon="4.22951">
        <ele>96.75</ele>
        <time>2017-03-12T12:21:34Z</time>
      </trkpt>
      <trkpt lat="50.66279" lon="4.22947">
        <ele>95.31</ele>
        <time>2017-03-12T12:21:36Z</time>
      </trkpt>
      <trkpt lat="50.66289" lon="4.22915">
        <ele>93.39</ele>
        <time>2017-03-12T12:21:57Z</time>
      </trkpt>
      <trkpt lat="50.66295" lon="4.22896">
        <ele>91.46</ele>
        <time>2017-03-12T12:22:16Z</time>
      </trkpt>
      <trkpt lat="50.66308" lon="4.22881">
        <ele>88.1</ele>
        <time>2017-03-12T12:22:35Z</time>
      </trkpt>
      <trkpt lat="50.66318" lon="4.22859">
        <ele>86.66</ele>
        <time>2017-03-12T12:22:53Z</time>
      </trkpt>
      <trkpt lat="50.66332" lon="4.22845">
        <ele>83.77</ele>
        <time>2017-03-12T12:23:10Z</time>
      </trkpt>
      <trkpt lat="50.66334" lon="4.22845">
        <ele>82.81</ele>
        <time>2017-03-12T12:23:19Z</time>
      </trkpt>
      <trkpt lat="50.66349" lon="4.2285">
        <ele>80.41</ele>
        <time>2017-03-12T12:23:37Z</time>
      </trkpt>
      <trkpt lat="50.66366" lon="4.22835">
        <ele>78.48</ele>
        <time>2017-03-12T12:23:52Z</time>
      </trkpt>
      <trkpt lat="50.66378" lon="4.22824">
        <ele>78.97</ele>
        <time>2017-03-12T12:24:03Z</time>
      </trkpt>
      <trkpt lat="50.66385" lon="4.22819">
        <ele>77.52</ele>
        <time>2017-03-12T12:24:09Z</time>
      </trkpt>
      <trkpt lat="50.66407" lon="4.22795">
        <ele>75.12</ele>
        <time>2017-03-12T12:24:28Z</time>
      </trkpt>
      <trkpt lat="50.66425" lon="4.22761">
        <ele>72.72</ele>
        <time>2017-03-12T12:24:48Z</time>
      </trkpt>
      <trkpt lat="50.66436" lon="4.22741">
        <ele>71.27</ele>
        <time>2017-03-12T12:25:04Z</time>
      </trkpt>
      <trkpt lat="50.66447" lon="4.22719">
        <ele>72.24</ele>
        <time>2017-03-12T12:25:19Z</time>
      </trkpt>
      <trkpt lat="50.66453" lon="4.22712">
        <ele>70.31</ele>
        <time>2017-03-12T12:25:24Z</time>
      </trkpt>
      <trkpt lat="50.66469" lon="4.22693">
        <ele>68.87</ele>
        <time>2017-03-12T12:25:42Z</time>
      </trkpt>
      <trkpt lat="50.66483" lon="4.22669">
        <ele>66.95</ele>
        <time>2017-03-12T12:25:58Z</time>
      </trkpt>
      <trkpt lat="50.66486" lon="4.22658">
        <ele>66.47</ele>
        <time>2017-03-12T12:26:15Z</time>
      </trkpt>
      <trkpt lat="50.66487" lon="4.22652">
        <ele>66.47</ele>
        <time>2017-03-12T12:26:46Z</time>
      </trkpt>
      <trkpt lat="50.66491" lon="4.22644">
        <ele>65.51</ele>
        <time>2017-03-12T12:27:12Z</time>
      </trkpt>
      <trkpt lat="50.66499" lon="4.22628">
        <ele>64.07</ele>
        <time>2017-03-12T12:27:27Z</time>
      </trkpt>
      <trkpt lat="50.66504" lon="4.22615">
        <ele>61.66</ele>
        <time>2017-03-12T12:27:37Z</time>
      </trkpt>
      <trkpt lat="50.66511" lon="4.22596">
        <ele>60.7</ele>
        <time>2017-03-12T12:27:50Z</time>
      </trkpt>
      <trkpt lat="50.66512" lon="4.22594">
        <ele>60.7</ele>
        <time>2017-03-12T12:27:51Z</time>
      </trkpt>
      <trkpt lat="50.66519" lon="4.22573">
        <ele>60.22</ele>
        <time>2017-03-12T12:28:06Z</time>
      </trkpt>
      <trkpt lat="50.66523" lon="4.22566">
        <ele>58.78</ele>
        <time>2017-03-12T12:28:11Z</time>
      </trkpt>
      <trkpt lat="50.6654" lon="4.22567">
        <ele>56.37</ele>
        <time>2017-03-12T12:28:32Z</time>
      </trkpt>
      <trkpt lat="50.66546" lon="4.2257">
        <ele>53.97</ele>
        <time>2017-03-12T12:28:53Z</time>
      </trkpt>
      <trkpt lat="50.66559" lon="4.2257">
        <ele>50.61</ele>
        <time>2017-03-12T12:29:10Z</time>
      </trkpt>
      <trkpt lat="50.66565" lon="4.22565">
        <ele>51.09</ele>
        <time>2017-03-12T12:29:14Z</time>
      </trkpt>
      <trkpt lat="50.66584" lon="4.22556">
        <ele>50.61</ele>
        <time>2017-03-12T12:29:23Z</time>
      </trkpt>
      <trkpt lat="50.66588" lon="4.22555">
        <ele>49.16</ele>
        <time>2017-03-12T12:29:26Z</time>
      </trkpt>
      <trkpt lat="50.6659" lon="4.22555">
        <ele>49.16</ele>
        <time>2017-03-12T12:29:27Z</time>
      </trkpt>
      <trkpt lat="50.66592" lon="4.22556">
        <ele>49.16</ele>
        <time>2017-03-12T12:29:28Z</time>
      </trkpt>
      <trkpt lat="50.66608" lon="4.22555">
        <ele>48.68</ele>
        <time>2017-03-12T12:29:40Z</time>
      </trkpt>
      <trkpt lat="50.6663" lon="4.22532">
        <ele>47.72</ele>
        <time>2017-03-12T12:30:00Z</time>
      </trkpt>
      <trkpt lat="50.66635" lon="4.22518">
        <ele>46.76</ele>
        <time>2017-03-12T12:30:09Z</time>
      </trkpt>
      <trkpt lat="50.66636" lon="4.22515">
        <ele>48.68</ele>
        <time>2017-03-12T12:30:11Z</time>
      </trkpt>
      <trkpt lat="50.66638" lon="4.22512">
        <ele>46.76</ele>
        <time>2017-03-12T12:30:13Z</time>
      </trkpt>
      <trkpt lat="50.66648" lon="4.22507">
        <ele>47.24</ele>
        <time>2017-03-12T12:30:27Z</time>
      </trkpt>
      <trkpt lat="50.66656" lon="4.22512">
        <ele>48.2</ele>
        <time>2017-03-12T12:30:36Z</time>
      </trkpt>
      <trkpt lat="50.66659" lon="4.22514">
        <ele>46.76</ele>
        <time>2017-03-12T12:30:38Z</time>
      </trkpt>
      <trkpt lat="50.6667" lon="4.22523">
        <ele>47.72</ele>
        <time>2017-03-12T12:30:45Z</time>
      </trkpt>
      <trkpt lat="50.66675" lon="4.22525">
        <ele>46.28</ele>
        <time>2017-03-12T12:30:48Z</time>
      </trkpt>
      <trkpt lat="50.66692" lon="4.2254">
        <ele>46.28</ele>
        <time>2017-03-12T12:31:04Z</time>
      </trkpt>
      <trkpt lat="50.66701" lon="4.2254">
        <ele>46.76</ele>
        <time>2017-03-12T12:31:13Z</time>
      </trkpt>
      <trkpt lat="50.66702" lon="4.22534">
        <ele>46.76</ele>
        <time>2017-03-12T12:31:16Z</time>
      </trkpt>
      <trkpt lat="50.66702" lon="4.22531">
        <ele>46.76</ele>
        <time>2017-03-12T12:31:17Z</time>
      </trkpt>
      <trkpt lat="50.66705" lon="4.225">
        <ele>45.8</ele>
        <time>2017-03-12T12:31:33Z</time>
      </trkpt>
      <trkpt lat="50.66715" lon="4.2247">
        <ele>44.84</ele>
        <time>2017-03-12T12:31:52Z</time>
      </trkpt>
      <trkpt lat="50.66724" lon="4.22461">
        <ele>45.32</ele>
        <time>2017-03-12T12:31:59Z</time>
      </trkpt>
      <trkpt lat="50.66728" lon="4.22458">
        <ele>43.4</ele>
        <time>2017-03-12T12:32:03Z</time>
      </trkpt>
      <trkpt lat="50.66742" lon="4.22443">
        <ele>42.92</ele>
        <time>2017-03-12T12:32:16Z</time>
      </trkpt>
      <trkpt lat="50.66756" lon="4.22425">
        <ele>43.4</ele>
        <time>2017-03-12T12:32:29Z</time>
      </trkpt>
      <trkpt lat="50.66762" lon="4.22419">
        <ele>41.95</ele>
        <time>2017-03-12T12:32:34Z</time>
      </trkpt>
      <trkpt lat="50.66768" lon="4.22409">
        <ele>42.92</ele>
        <time>2017-03-12T12:32:41Z</time>
      </trkpt>
      <trkpt lat="50.66769" lon="4.22406">
        <ele>41.47</ele>
        <time>2017-03-12T12:32:43Z</time>
      </trkpt>
      <trkpt lat="50.66789" lon="4.22376">
        <ele>41.95</ele>
        <time>2017-03-12T12:33:05Z</time>
      </trkpt>
      <trkpt lat="50.66792" lon="4.22371">
        <ele>43.4</ele>
        <time>2017-03-12T12:33:09Z</time>
      </trkpt>
      <trkpt lat="50.668" lon="4.22352">
        <ele>42.44</ele>
        <time>2017-03-12T12:33:27Z</time>
      </trkpt>
      <trkpt lat="50.66801" lon="4.22347">
        <ele>44.36</ele>
        <time>2017-03-12T12:33:30Z</time>
      </trkpt>
      <trkpt lat="50.66803" lon="4.2234">
        <ele>42.92</ele>
        <time>2017-03-12T12:33:34Z</time>
      </trkpt>
      <trkpt lat="50.66804" lon="4.22336">
        <ele>45.32</ele>
        <time>2017-03-12T12:33:36Z</time>
      </trkpt>
      <trkpt lat="50.66804" lon="4.22333">
        <ele>43.4</ele>
        <time>2017-03-12T12:33:38Z</time>
      </trkpt>
      <trkpt lat="50.66806" lon="4.22327">
        <ele>45.8</ele>
        <time>2017-03-12T12:33:42Z</time>
      </trkpt>
      <trkpt lat="50.66807" lon="4.22323">
        <ele>44.84</ele>
        <time>2017-03-12T12:33:44Z</time>
      </trkpt>
      <trkpt lat="50.66809" lon="4.22313">
        <ele>46.28</ele>
        <time>2017-03-12T12:33:49Z</time>
      </trkpt>
      <trkpt lat="50.66811" lon="4.22297">
        <ele>46.76</ele>
        <time>2017-03-12T12:33:58Z</time>
      </trkpt>
      <trkpt lat="50.66815" lon="4.22275">
        <ele>46.76</ele>
        <time>2017-03-12T12:34:16Z</time>
      </trkpt>
      <trkpt lat="50.66817" lon="4.22254">
        <ele>47.24</ele>
        <time>2017-03-12T12:34:33Z</time>
      </trkpt>
      <trkpt lat="50.66817" lon="4.2225">
        <ele>45.8</ele>
        <time>2017-03-12T12:34:35Z</time>
      </trkpt>
      <trkpt lat="50.66817" lon="4.22228">
        <ele>45.32</ele>
        <time>2017-03-12T12:34:49Z</time>
      </trkpt>
      <trkpt lat="50.66817" lon="4.22224">
        <ele>47.72</ele>
        <time>2017-03-12T12:34:51Z</time>
      </trkpt>
      <trkpt lat="50.66818" lon="4.22216">
        <ele>46.28</ele>
        <time>2017-03-12T12:34:55Z</time>
      </trkpt>
      <trkpt lat="50.66819" lon="4.22208">
        <ele>48.2</ele>
        <time>2017-03-12T12:34:59Z</time>
      </trkpt>
      <trkpt lat="50.6682" lon="4.22203">
        <ele>46.28</ele>
        <time>2017-03-12T12:35:02Z</time>
      </trkpt>
      <trkpt lat="50.6682" lon="4.22199">
        <ele>47.72</ele>
        <time>2017-03-12T12:35:04Z</time>
      </trkpt>
      <trkpt lat="50.66821" lon="4.2217">
        <ele>47.24</ele>
        <time>2017-03-12T12:35:22Z</time>
      </trkpt>
      <trkpt lat="50.66815" lon="4.22162">
        <ele>45.8</ele>
        <time>2017-03-12T12:35:34Z</time>
      </trkpt>
      <trkpt lat="50.66813" lon="4.22161">
        <ele>45.8</ele>
        <time>2017-03-12T12:35:35Z</time>
      </trkpt>
      <trkpt lat="50.66799" lon="4.22163">
        <ele>44.84</ele>
        <time>2017-03-12T12:35:52Z</time>
      </trkpt>
      <trkpt lat="50.66788" lon="4.2214">
        <ele>44.36</ele>
        <time>2017-03-12T12:36:11Z</time>
      </trkpt>
      <trkpt lat="50.66788" lon="4.22138">
        <ele>44.36</ele>
        <time>2017-03-12T12:36:12Z</time>
      </trkpt>
      <trkpt lat="50.66787" lon="4.22124">
        <ele>45.8</ele>
        <time>2017-03-12T12:36:19Z</time>
      </trkpt>
      <trkpt lat="50.66787" lon="4.22117">
        <ele>44.36</ele>
        <time>2017-03-12T12:36:22Z</time>
      </trkpt>
      <trkpt lat="50.66786" lon="4.22113">
        <ele>45.32</ele>
        <time>2017-03-12T12:36:24Z</time>
      </trkpt>
      <trkpt lat="50.66786" lon="4.2211">
        <ele>43.88</ele>
        <time>2017-03-12T12:36:26Z</time>
      </trkpt>
      <trkpt lat="50.66787" lon="4.22109">
        <ele>45.8</ele>
        <time>2017-03-12T12:36:28Z</time>
      </trkpt>
      <trkpt lat="50.66786" lon="4.221">
        <ele>44.84</ele>
        <time>2017-03-12T12:36:41Z</time>
      </trkpt>
      <trkpt lat="50.66785" lon="4.22081">
        <ele>46.76</ele>
        <time>2017-03-12T12:36:51Z</time>
      </trkpt>
      <trkpt lat="50.66779" lon="4.22048">
        <ele>47.72</ele>
        <time>2017-03-12T12:37:07Z</time>
      </trkpt>
      <trkpt lat="50.66751" lon="4.22044">
        <ele>48.2</ele>
        <time>2017-03-12T12:37:27Z</time>
      </trkpt>
      <trkpt lat="50.6675" lon="4.22044">
        <ele>48.2</ele>
        <time>2017-03-12T12:37:28Z</time>
      </trkpt>
      <trkpt lat="50.66747" lon="4.22043">
        <ele>46.76</ele>
        <time>2017-03-12T12:37:30Z</time>
      </trkpt>
      <trkpt lat="50.66745" lon="4.22042">
        <ele>47.72</ele>
        <time>2017-03-12T12:37:32Z</time>
      </trkpt>
      <trkpt lat="50.66742" lon="4.22042">
        <ele>46.76</ele>
        <time>2017-03-12T12:37:34Z</time>
      </trkpt>
      <trkpt lat="50.66739" lon="4.22041">
        <ele>48.2</ele>
        <time>2017-03-12T12:37:37Z</time>
      </trkpt>
      <trkpt lat="50.66717" lon="4.22038">
        <ele>46.76</ele>
        <time>2017-03-12T12:37:53Z</time>
      </trkpt>
      <trkpt lat="50.66715" lon="4.22037">
        <ele>48.2</ele>
        <time>2017-03-12T12:37:55Z</time>
      </trkpt>
      <trkpt lat="50.66706" lon="4.22038">
        <ele>46.76</ele>
        <time>2017-03-12T12:38:02Z</time>
      </trkpt>
      <trkpt lat="50.66683" lon="4.22027">
        <ele>45.8</ele>
        <time>2017-03-12T12:38:24Z</time>
      </trkpt>
      <trkpt lat="50.66678" lon="4.22002">
        <ele>46.76</ele>
        <time>2017-03-12T12:38:41Z</time>
      </trkpt>
      <trkpt lat="50.66683" lon="4.21959">
        <ele>45.32</ele>
        <time>2017-03-12T12:39:03Z</time>
      </trkpt>
      <trkpt lat="50.66695" lon="4.21945">
        <ele>45.8</ele>
        <time>2017-03-12T12:39:21Z</time>
      </trkpt>
      <trkpt lat="50.66697" lon="4.21946">
        <ele>46.76</ele>
        <time>2017-03-12T12:39:23Z</time>
      </trkpt>
      <trkpt lat="50.66699" lon="4.21948">
        <ele>48.2</ele>
        <time>2017-03-12T12:39:26Z</time>
      </trkpt>
      <trkpt lat="50.66702" lon="4.21949">
        <ele>46.76</ele>
        <time>2017-03-12T12:39:28Z</time>
      </trkpt>
      <trkpt lat="50.66707" lon="4.21951">
        <ele>49.16</ele>
        <time>2017-03-12T12:39:35Z</time>
      </trkpt>
      <trkpt lat="50.66715" lon="4.21951">
        <ele>47.24</ele>
        <time>2017-03-12T12:39:41Z</time>
      </trkpt>
      <trkpt lat="50.66719" lon="4.21951">
        <ele>50.13</ele>
        <time>2017-03-12T12:39:44Z</time>
      </trkpt>
      <trkpt lat="50.66729" lon="4.21952">
        <ele>47.72</ele>
        <time>2017-03-12T12:39:51Z</time>
      </trkpt>
      <trkpt lat="50.66732" lon="4.21955">
        <ele>50.13</ele>
        <time>2017-03-12T12:39:53Z</time>
      </trkpt>
      <trkpt lat="50.66749" lon="4.21969">
        <ele>51.57</ele>
        <time>2017-03-12T12:40:05Z</time>
      </trkpt>
      <trkpt lat="50.66751" lon="4.21971">
        <ele>50.13</ele>
        <time>2017-03-12T12:40:07Z</time>
      </trkpt>
      <trkpt lat="50.66753" lon="4.21971">
        <ele>52.05</ele>
        <time>2017-03-12T12:40:09Z</time>
      </trkpt>
      <trkpt lat="50.66759" lon="4.21966">
        <ele>52.05</ele>
        <time>2017-03-12T12:40:16Z</time>
      </trkpt>
      <trkpt lat="50.66761" lon="4.21923">
        <ele>53.97</ele>
        <time>2017-03-12T12:40:37Z</time>
      </trkpt>
      <trkpt lat="50.66755" lon="4.21883">
        <ele>52.53</ele>
        <time>2017-03-12T12:40:58Z</time>
      </trkpt>
      <trkpt lat="50.66754" lon="4.21879">
        <ele>54.45</ele>
        <time>2017-03-12T12:41:00Z</time>
      </trkpt>
      <trkpt lat="50.66746" lon="4.21855">
        <ele>53.97</ele>
        <time>2017-03-12T12:41:14Z</time>
      </trkpt>
      <trkpt lat="50.66745" lon="4.21851">
        <ele>55.41</ele>
        <time>2017-03-12T12:41:16Z</time>
      </trkpt>
      <trkpt lat="50.66747" lon="4.2181">
        <ele>57.82</ele>
        <time>2017-03-12T12:41:41Z</time>
      </trkpt>
      <trkpt lat="50.66753" lon="4.21808">
        <ele>58.78</ele>
        <time>2017-03-12T12:41:46Z</time>
      </trkpt>
      <trkpt lat="50.66764" lon="4.21812">
        <ele>57.34</ele>
        <time>2017-03-12T12:41:55Z</time>
      </trkpt>
      <trkpt lat="50.66766" lon="4.21812">
        <ele>59.26</ele>
        <time>2017-03-12T12:41:57Z</time>
      </trkpt>
      <trkpt lat="50.66782" lon="4.21809">
        <ele>59.74</ele>
        <time>2017-03-12T12:42:13Z</time>
      </trkpt>
      <trkpt lat="50.66784" lon="4.21809">
        <ele>62.14</ele>
        <time>2017-03-12T12:42:15Z</time>
      </trkpt>
      <trkpt lat="50.66806" lon="4.21802">
        <ele>63.1</ele>
        <time>2017-03-12T12:42:34Z</time>
      </trkpt>
      <trkpt lat="50.66813" lon="4.218">
        <ele>63.1</ele>
        <time>2017-03-12T12:42:39Z</time>
      </trkpt>
      <trkpt lat="50.66819" lon="4.21797">
        <ele>61.66</ele>
        <time>2017-03-12T12:42:43Z</time>
      </trkpt>
      <trkpt lat="50.66825" lon="4.21796">
        <ele>63.1</ele>
        <time>2017-03-12T12:42:47Z</time>
      </trkpt>
      <trkpt lat="50.66828" lon="4.21796">
        <ele>61.66</ele>
        <time>2017-03-12T12:42:49Z</time>
      </trkpt>
      <trkpt lat="50.66834" lon="4.21798">
        <ele>62.62</ele>
        <time>2017-03-12T12:42:55Z</time>
      </trkpt>
      <trkpt lat="50.66842" lon="4.218">
        <ele>60.7</ele>
        <time>2017-03-12T12:43:03Z</time>
      </trkpt>
      <trkpt lat="50.66855" lon="4.21798">
        <ele>60.22</ele>
        <time>2017-03-12T12:43:13Z</time>
      </trkpt>
      <trkpt lat="50.66856" lon="4.21797">
        <ele>61.66</ele>
        <time>2017-03-12T12:43:15Z</time>
      </trkpt>
      <trkpt lat="50.66858" lon="4.21797">
        <ele>60.7</ele>
        <time>2017-03-12T12:43:17Z</time>
      </trkpt>
      <trkpt lat="50.66867" lon="4.21796">
        <ele>62.14</ele>
        <time>2017-03-12T12:43:25Z</time>
      </trkpt>
      <trkpt lat="50.66886" lon="4.21794">
        <ele>62.62</ele>
        <time>2017-03-12T12:43:43Z</time>
      </trkpt>
      <trkpt lat="50.66887" lon="4.21807">
        <ele>62.62</ele>
        <time>2017-03-12T12:43:50Z</time>
      </trkpt>
      <trkpt lat="50.66888" lon="4.21818">
        <ele>60.7</ele>
        <time>2017-03-12T12:43:55Z</time>
      </trkpt>
      <trkpt lat="50.66893" lon="4.21846">
        <ele>59.74</ele>
        <time>2017-03-12T12:44:12Z</time>
      </trkpt>
      <trkpt lat="50.66896" lon="4.21868">
        <ele>57.82</ele>
        <time>2017-03-12T12:44:25Z</time>
      </trkpt>
      <trkpt lat="50.66897" lon="4.21902">
        <ele>56.37</ele>
        <time>2017-03-12T12:44:44Z</time>
      </trkpt>
      <trkpt lat="50.66899" lon="4.2192">
        <ele>55.89</ele>
        <time>2017-03-12T12:44:59Z</time>
      </trkpt>
      <trkpt lat="50.66907" lon="4.21945">
        <ele>54.45</ele>
        <time>2017-03-12T12:45:18Z</time>
      </trkpt>
      <trkpt lat="50.66916" lon="4.21947">
        <ele>53.49</ele>
        <time>2017-03-12T12:45:24Z</time>
      </trkpt>
      <trkpt lat="50.66918" lon="4.21948">
        <ele>55.41</ele>
        <time>2017-03-12T12:45:26Z</time>
      </trkpt>
      <trkpt lat="50.66924" lon="4.21954">
        <ele>53.97</ele>
        <time>2017-03-12T12:45:31Z</time>
      </trkpt>
      <trkpt lat="50.66938" lon="4.21975">
        <ele>54.93</ele>
        <time>2017-03-12T12:45:51Z</time>
      </trkpt>
      <trkpt lat="50.66935" lon="4.21965">
        <ele>54.45</ele>
        <time>2017-03-12T12:46:10Z</time>
      </trkpt>
      <trkpt lat="50.66936" lon="4.21956">
        <ele>54.93</ele>
        <time>2017-03-12T12:46:32Z</time>
      </trkpt>
      <trkpt lat="50.66937" lon="4.21956">
        <ele>54.93</ele>
        <time>2017-03-12T12:46:50Z</time>
      </trkpt>
      <trkpt lat="50.66982" lon="4.21989">
        <ele>54.93</ele>
        <time>2017-03-12T12:48:36Z</time>
      </trkpt>
      <trkpt lat="50.66954" lon="4.21976">
        <ele>54.93</ele>
        <time>2017-03-12T12:48:59Z</time>
      </trkpt>
      <trkpt lat="50.66949" lon="4.21975">
        <ele>53.49</ele>
        <time>2017-03-12T12:49:10Z</time>
      </trkpt>
      <trkpt lat="50.66949" lon="4.21974">
        <ele>54.93</ele>
        <time>2017-03-12T12:49:12Z</time>
      </trkpt>
      <trkpt lat="50.66948" lon="4.21967">
        <ele>51.57</ele>
        <time>2017-03-12T12:49:23Z</time>
      </trkpt>
      <trkpt lat="50.66947" lon="4.21965">
        <ele>57.34</ele>
        <time>2017-03-12T12:49:25Z</time>
      </trkpt>
      <trkpt lat="50.66946" lon="4.21964">
        <ele>52.05</ele>
        <time>2017-03-12T12:49:28Z</time>
      </trkpt>
      <trkpt lat="50.66945" lon="4.21963">
        <ele>54.93</ele>
        <time>2017-03-12T12:49:29Z</time>
      </trkpt>
      <trkpt lat="50.66935" lon="4.21964">
        <ele>53.97</ele>
        <time>2017-03-12T12:49:59Z</time>
      </trkpt>
      <trkpt lat="50.66932" lon="4.21966">
        <ele>53.97</ele>
        <time>2017-03-12T12:50:33Z</time>
      </trkpt>
      <trkpt lat="50.66925" lon="4.21968">
        <ele>53.01</ele>
        <time>2017-03-12T12:51:06Z</time>
      </trkpt>
      <trkpt lat="50.6693" lon="4.21969">
        <ele>53.97</ele>
        <time>2017-03-12T12:51:28Z</time>
      </trkpt>
      <trkpt lat="50.66942" lon="4.21967">
        <ele>53.97</ele>
        <time>2017-03-12T12:51:56Z</time>
      </trkpt>
      <trkpt lat="50.66942" lon="4.21962">
        <ele>53.97</ele>
        <time>2017-03-12T12:52:29Z</time>
      </trkpt>
      <trkpt lat="50.66944" lon="4.21971">
        <ele>54.45</ele>
        <time>2017-03-12T12:53:00Z</time>
      </trkpt>
      <trkpt lat="50.66946" lon="4.2197">
        <ele>54.45</ele>
        <time>2017-03-12T12:53:32Z</time>
      </trkpt>
      <trkpt lat="50.66947" lon="4.21967">
        <ele>54.45</ele>
        <time>2017-03-12T12:53:57Z</time>
      </trkpt>
      <trkpt lat="50.66944" lon="4.21963">
        <ele>53.01</ele>
        <time>2017-03-12T12:54:02Z</time>
      </trkpt>
      <trkpt lat="50.66943" lon="4.21961">
        <ele>54.45</ele>
        <time>2017-03-12T12:54:04Z</time>
      </trkpt>
      <trkpt lat="50.66941" lon="4.21943">
        <ele>55.41</ele>
        <time>2017-03-12T12:54:22Z</time>
      </trkpt>
      <trkpt lat="50.66944" lon="4.21938">
        <ele>54.45</ele>
        <time>2017-03-12T12:54:26Z</time>
      </trkpt>
      <trkpt lat="50.66951" lon="4.21938">
        <ele>55.41</ele>
        <time>2017-03-12T12:54:35Z</time>
      </trkpt>
      <trkpt lat="50.6694" lon="4.21961">
        <ele>54.45</ele>
        <time>2017-03-12T12:55:00Z</time>
      </trkpt>
      <trkpt lat="50.66935" lon="4.21966">
        <ele>54.45</ele>
        <time>2017-03-12T12:55:19Z</time>
      </trkpt>
      <trkpt lat="50.66945" lon="4.21968">
        <ele>53.49</ele>
        <time>2017-03-12T12:55:44Z</time>
      </trkpt>
      <trkpt lat="50.66947" lon="4.21968">
        <ele>54.93</ele>
        <time>2017-03-12T12:55:46Z</time>
      </trkpt>
      <trkpt lat="50.6695" lon="4.21966">
        <ele>54.93</ele>
        <time>2017-03-12T12:56:07Z</time>
      </trkpt>
      <trkpt lat="50.66963" lon="4.21967">
        <ele>54.93</ele>
        <time>2017-03-12T12:56:23Z</time>
      </trkpt>
      <trkpt lat="50.66951" lon="4.21963">
        <ele>54.93</ele>
        <time>2017-03-12T12:56:44Z</time>
      </trkpt>
      <trkpt lat="50.66948" lon="4.21965">
        <ele>54.93</ele>
        <time>2017-03-12T12:57:09Z</time>
      </trkpt>
      <trkpt lat="50.66951" lon="4.21974">
        <ele>54.93</ele>
        <time>2017-03-12T12:57:35Z</time>
      </trkpt>
      <trkpt lat="50.66963" lon="4.21978">
        <ele>54.93</ele>
        <time>2017-03-12T12:58:03Z</time>
      </trkpt>
      <trkpt lat="50.66962" lon="4.21973">
        <ele>54.45</ele>
        <time>2017-03-12T12:58:29Z</time>
      </trkpt>
      <trkpt lat="50.66944" lon="4.21973">
        <ele>53.97</ele>
        <time>2017-03-12T12:58:50Z</time>
      </trkpt>
      <trkpt lat="50.66933" lon="4.21971">
        <ele>55.89</ele>
        <time>2017-03-12T12:59:02Z</time>
      </trkpt>
      <trkpt lat="50.66931" lon="4.21971">
        <ele>54.45</ele>
        <time>2017-03-12T12:59:05Z</time>
      </trkpt>
      <trkpt lat="50.66923" lon="4.21961">
        <ele>55.41</ele>
        <time>2017-03-12T12:59:29Z</time>
      </trkpt>
      <trkpt lat="50.66928" lon="4.21963">
        <ele>55.41</ele>
        <time>2017-03-12T12:59:55Z</time>
      </trkpt>
      <trkpt lat="50.6693" lon="4.21966">
        <ele>55.41</ele>
        <time>2017-03-12T13:00:22Z</time>
      </trkpt>
      <trkpt lat="50.66931" lon="4.21966">
        <ele>53.49</ele>
        <time>2017-03-12T13:00:29Z</time>
      </trkpt>
      <trkpt lat="50.66931" lon="4.21966">
        <ele>54.93</ele>
        <time>2017-03-12T13:00:31Z</time>
      </trkpt>
      <trkpt lat="50.66922" lon="4.21957">
        <ele>54.93</ele>
        <time>2017-03-12T13:00:55Z</time>
      </trkpt>
      <trkpt lat="50.66937" lon="4.21964">
        <ele>53.97</ele>
        <time>2017-03-12T13:01:09Z</time>
      </trkpt>
      <trkpt lat="50.66899" lon="4.21948">
        <ele>54.93</ele>
        <time>2017-03-12T13:01:26Z</time>
      </trkpt>
      <trkpt lat="50.66847" lon="4.21929">
        <ele>54.45</ele>
        <time>2017-03-12T13:01:56Z</time>
      </trkpt>
      <trkpt lat="50.66923" lon="4.21963">
        <ele>53.97</ele>
        <time>2017-03-12T13:02:22Z</time>
      </trkpt>
      <trkpt lat="50.66927" lon="4.21966">
        <ele>57.34</ele>
        <time>2017-03-12T13:02:50Z</time>
      </trkpt>
      <trkpt lat="50.66925" lon="4.21965">
        <ele>53.97</ele>
        <time>2017-03-12T13:02:54Z</time>
      </trkpt>
      <trkpt lat="50.6694" lon="4.21968">
        <ele>54.45</ele>
        <time>2017-03-12T13:03:15Z</time>
      </trkpt>
      <trkpt lat="50.66939" lon="4.21973">
        <ele>55.89</ele>
        <time>2017-03-12T13:03:40Z</time>
      </trkpt>
      <trkpt lat="50.66931" lon="4.21973">
        <ele>54.93</ele>
        <time>2017-03-12T13:03:57Z</time>
      </trkpt>
      <trkpt lat="50.66914" lon="4.2196">
        <ele>54.93</ele>
        <time>2017-03-12T13:04:14Z</time>
      </trkpt>
      <trkpt lat="50.669" lon="4.21941">
        <ele>55.89</ele>
        <time>2017-03-12T13:04:32Z</time>
      </trkpt>
      <trkpt lat="50.66899" lon="4.21909">
        <ele>58.3</ele>
        <time>2017-03-12T13:04:48Z</time>
      </trkpt>
      <trkpt lat="50.669" lon="4.21892">
        <ele>58.3</ele>
        <time>2017-03-12T13:04:55Z</time>
      </trkpt>
      <trkpt lat="50.66899" lon="4.21862">
        <ele>59.26</ele>
        <time>2017-03-12T13:05:09Z</time>
      </trkpt>
      <trkpt lat="50.66898" lon="4.21847">
        <ele>60.7</ele>
        <time>2017-03-12T13:05:17Z</time>
      </trkpt>
      <trkpt lat="50.66898" lon="4.21843">
        <ele>59.26</ele>
        <time>2017-03-12T13:05:19Z</time>
      </trkpt>
      <trkpt lat="50.66895" lon="4.21828">
        <ele>60.22</ele>
        <time>2017-03-12T13:05:28Z</time>
      </trkpt>
      <trkpt lat="50.66894" lon="4.21824">
        <ele>62.62</ele>
        <time>2017-03-12T13:05:30Z</time>
      </trkpt>
      <trkpt lat="50.66892" lon="4.21805">
        <ele>63.1</ele>
        <time>2017-03-12T13:05:42Z</time>
      </trkpt>
      <trkpt lat="50.66898" lon="4.21782">
        <ele>64.07</ele>
        <time>2017-03-12T13:05:57Z</time>
      </trkpt>
      <trkpt lat="50.66899" lon="4.21782">
        <ele>63.58</ele>
        <time>2017-03-12T13:05:58Z</time>
      </trkpt>
      <trkpt lat="50.66923" lon="4.21778">
        <ele>63.1</ele>
        <time>2017-03-12T13:06:16Z</time>
      </trkpt>
      <trkpt lat="50.66949" lon="4.21781">
        <ele>60.22</ele>
        <time>2017-03-12T13:06:39Z</time>
      </trkpt>
      <trkpt lat="50.66956" lon="4.21781">
        <ele>60.7</ele>
        <time>2017-03-12T13:06:46Z</time>
      </trkpt>
      <trkpt lat="50.66959" lon="4.21782">
        <ele>58.3</ele>
        <time>2017-03-12T13:06:48Z</time>
      </trkpt>
      <trkpt lat="50.6696" lon="4.21795">
        <ele>58.78</ele>
        <time>2017-03-12T13:06:55Z</time>
      </trkpt>
      <trkpt lat="50.66964" lon="4.21832">
        <ele>59.26</ele>
        <time>2017-03-12T13:07:13Z</time>
      </trkpt>
      <trkpt lat="50.66967" lon="4.21846">
        <ele>56.86</ele>
        <time>2017-03-12T13:07:21Z</time>
      </trkpt>
      <trkpt lat="50.66968" lon="4.21848">
        <ele>57.82</ele>
        <time>2017-03-12T13:07:23Z</time>
      </trkpt>
      <trkpt lat="50.6697" lon="4.21862">
        <ele>56.37</ele>
        <time>2017-03-12T13:07:30Z</time>
      </trkpt>
      <trkpt lat="50.66972" lon="4.21868">
        <ele>57.82</ele>
        <time>2017-03-12T13:07:34Z</time>
      </trkpt>
      <trkpt lat="50.66973" lon="4.21871">
        <ele>56.37</ele>
        <time>2017-03-12T13:07:36Z</time>
      </trkpt>
      <trkpt lat="50.66978" lon="4.21909">
        <ele>54.93</ele>
        <time>2017-03-12T13:07:55Z</time>
      </trkpt>
      <trkpt lat="50.66983" lon="4.21941">
        <ele>54.93</ele>
        <time>2017-03-12T13:08:12Z</time>
      </trkpt>
      <trkpt lat="50.66983" lon="4.21944">
        <ele>54.93</ele>
        <time>2017-03-12T13:08:13Z</time>
      </trkpt>
      <trkpt lat="50.66984" lon="4.21952">
        <ele>53.01</ele>
        <time>2017-03-12T13:08:18Z</time>
      </trkpt>
      <trkpt lat="50.66985" lon="4.21988">
        <ele>53.97</ele>
        <time>2017-03-12T13:08:37Z</time>
      </trkpt>
      <trkpt lat="50.66985" lon="4.22007">
        <ele>52.53</ele>
        <time>2017-03-12T13:08:45Z</time>
      </trkpt>
      <trkpt lat="50.66984" lon="4.22021">
        <ele>53.49</ele>
        <time>2017-03-12T13:08:56Z</time>
      </trkpt>
      <trkpt lat="50.66983" lon="4.22024">
        <ele>52.05</ele>
        <time>2017-03-12T13:08:58Z</time>
      </trkpt>
      <trkpt lat="50.66982" lon="4.22029">
        <ele>50.61</ele>
        <time>2017-03-12T13:09:00Z</time>
      </trkpt>
      <trkpt lat="50.66981" lon="4.22033">
        <ele>52.05</ele>
        <time>2017-03-12T13:09:02Z</time>
      </trkpt>
      <trkpt lat="50.66983" lon="4.22062">
        <ele>52.05</ele>
        <time>2017-03-12T13:09:16Z</time>
      </trkpt>
      <trkpt lat="50.66985" lon="4.22074">
        <ele>50.61</ele>
        <time>2017-03-12T13:09:22Z</time>
      </trkpt>
      <trkpt lat="50.66987" lon="4.22103">
        <ele>49.16</ele>
        <time>2017-03-12T13:09:37Z</time>
      </trkpt>
      <trkpt lat="50.66987" lon="4.22136">
        <ele>47.72</ele>
        <time>2017-03-12T13:09:56Z</time>
      </trkpt>
      <trkpt lat="50.66988" lon="4.22146">
        <ele>48.68</ele>
        <time>2017-03-12T13:10:02Z</time>
      </trkpt>
      <trkpt lat="50.66988" lon="4.22147">
        <ele>48.68</ele>
        <time>2017-03-12T13:10:03Z</time>
      </trkpt>
      <trkpt lat="50.66989" lon="4.22151">
        <ele>47.24</ele>
        <time>2017-03-12T13:10:05Z</time>
      </trkpt>
      <trkpt lat="50.66986" lon="4.22173">
        <ele>46.28</ele>
        <time>2017-03-12T13:10:15Z</time>
      </trkpt>
      <trkpt lat="50.66988" lon="4.22205">
        <ele>44.84</ele>
        <time>2017-03-12T13:10:32Z</time>
      </trkpt>
      <trkpt lat="50.67003" lon="4.22214">
        <ele>42.92</ele>
        <time>2017-03-12T13:10:46Z</time>
      </trkpt>
      <trkpt lat="50.67028" lon="4.22222">
        <ele>41.95</ele>
        <time>2017-03-12T13:11:06Z</time>
      </trkpt>
      <trkpt lat="50.67036" lon="4.22225">
        <ele>42.44</ele>
        <time>2017-03-12T13:11:12Z</time>
      </trkpt>
      <trkpt lat="50.67048" lon="4.22229">
        <ele>41.47</ele>
        <time>2017-03-12T13:11:21Z</time>
      </trkpt>
      <trkpt lat="50.67052" lon="4.22231">
        <ele>40.03</ele>
        <time>2017-03-12T13:11:24Z</time>
      </trkpt>
      <trkpt lat="50.6708" lon="4.22238">
        <ele>39.07</ele>
        <time>2017-03-12T13:11:44Z</time>
      </trkpt>
      <trkpt lat="50.67091" lon="4.22238">
        <ele>40.51</ele>
        <time>2017-03-12T13:11:51Z</time>
      </trkpt>
      <trkpt lat="50.67094" lon="4.22237">
        <ele>39.07</ele>
        <time>2017-03-12T13:11:54Z</time>
      </trkpt>
      <trkpt lat="50.671" lon="4.2223">
        <ele>37.15</ele>
        <time>2017-03-12T13:12:00Z</time>
      </trkpt>
      <trkpt lat="50.67101" lon="4.22227">
        <ele>40.99</ele>
        <time>2017-03-12T13:12:02Z</time>
      </trkpt>
      <trkpt lat="50.67102" lon="4.22226">
        <ele>40.03</ele>
        <time>2017-03-12T13:12:03Z</time>
      </trkpt>
      <trkpt lat="50.67125" lon="4.22208">
        <ele>39.07</ele>
        <time>2017-03-12T13:12:20Z</time>
      </trkpt>
      <trkpt lat="50.67127" lon="4.22202">
        <ele>42.44</ele>
        <time>2017-03-12T13:12:24Z</time>
      </trkpt>
      <trkpt lat="50.67128" lon="4.222">
        <ele>39.55</ele>
        <time>2017-03-12T13:12:25Z</time>
      </trkpt>
      <trkpt lat="50.67128" lon="4.22187">
        <ele>43.4</ele>
        <time>2017-03-12T13:12:31Z</time>
      </trkpt>
      <trkpt lat="50.67127" lon="4.22164">
        <ele>43.88</ele>
        <time>2017-03-12T13:12:43Z</time>
      </trkpt>
      <trkpt lat="50.67124" lon="4.22156">
        <ele>42.44</ele>
        <time>2017-03-12T13:12:47Z</time>
      </trkpt>
      <trkpt lat="50.67132" lon="4.2214">
        <ele>42.92</ele>
        <time>2017-03-12T13:13:04Z</time>
      </trkpt>
      <trkpt lat="50.67147" lon="4.22117">
        <ele>43.88</ele>
        <time>2017-03-12T13:13:20Z</time>
      </trkpt>
      <trkpt lat="50.67171" lon="4.22108">
        <ele>44.36</ele>
        <time>2017-03-12T13:13:42Z</time>
      </trkpt>
      <trkpt lat="50.67169" lon="4.22084">
        <ele>43.4</ele>
        <time>2017-03-12T13:13:57Z</time>
      </trkpt>
      <trkpt lat="50.67167" lon="4.22068">
        <ele>42.92</ele>
        <time>2017-03-12T13:14:04Z</time>
      </trkpt>
      <trkpt lat="50.67169" lon="4.22049">
        <ele>43.4</ele>
        <time>2017-03-12T13:14:14Z</time>
      </trkpt>
      <trkpt lat="50.67169" lon="4.22044">
        <ele>43.4</ele>
        <time>2017-03-12T13:14:41Z</time>
      </trkpt>
      <trkpt lat="50.67169" lon="4.22038">
        <ele>41.47</ele>
        <time>2017-03-12T13:14:43Z</time>
      </trkpt>
      <trkpt lat="50.6717" lon="4.22032">
        <ele>42.92</ele>
        <time>2017-03-12T13:14:45Z</time>
      </trkpt>
      <trkpt lat="50.67181" lon="4.22019">
        <ele>42.92</ele>
        <time>2017-03-12T13:14:57Z</time>
      </trkpt>
      <trkpt lat="50.67201" lon="4.22026">
        <ele>43.4</ele>
        <time>2017-03-12T13:15:11Z</time>
      </trkpt>
      <trkpt lat="50.67204" lon="4.22027">
        <ele>41.47</ele>
        <time>2017-03-12T13:15:13Z</time>
      </trkpt>
      <trkpt lat="50.67208" lon="4.22028">
        <ele>42.92</ele>
        <time>2017-03-12T13:15:17Z</time>
      </trkpt>
      <trkpt lat="50.67221" lon="4.22033">
        <ele>41.47</ele>
        <time>2017-03-12T13:15:27Z</time>
      </trkpt>
      <trkpt lat="50.67224" lon="4.22034">
        <ele>42.92</ele>
        <time>2017-03-12T13:15:29Z</time>
      </trkpt>
      <trkpt lat="50.67227" lon="4.22036">
        <ele>41.95</ele>
        <time>2017-03-12T13:15:31Z</time>
      </trkpt>
      <trkpt lat="50.67242" lon="4.22047">
        <ele>41.95</ele>
        <time>2017-03-12T13:15:44Z</time>
      </trkpt>
      <trkpt lat="50.67249" lon="4.22053">
        <ele>40.51</ele>
        <time>2017-03-12T13:15:50Z</time>
      </trkpt>
      <trkpt lat="50.67266" lon="4.22061">
        <ele>39.55</ele>
        <time>2017-03-12T13:16:02Z</time>
      </trkpt>
      <trkpt lat="50.67288" lon="4.22065">
        <ele>40.03</ele>
        <time>2017-03-12T13:16:22Z</time>
      </trkpt>
      <trkpt lat="50.6729" lon="4.22065">
        <ele>40.03</ele>
        <time>2017-03-12T13:16:23Z</time>
      </trkpt>
      <trkpt lat="50.67295" lon="4.22064">
        <ele>39.07</ele>
        <time>2017-03-12T13:16:28Z</time>
      </trkpt>
      <trkpt lat="50.67305" lon="4.2206">
        <ele>39.07</ele>
        <time>2017-03-12T13:16:35Z</time>
      </trkpt>
      <trkpt lat="50.67311" lon="4.22057">
        <ele>40.99</ele>
        <time>2017-03-12T13:16:39Z</time>
      </trkpt>
      <trkpt lat="50.67313" lon="4.22055">
        <ele>39.55</ele>
        <time>2017-03-12T13:16:41Z</time>
      </trkpt>
      <trkpt lat="50.67338" lon="4.22042">
        <ele>39.55</ele>
        <time>2017-03-12T13:17:02Z</time>
      </trkpt>
      <trkpt lat="50.67342" lon="4.22041">
        <ele>40.03</ele>
        <time>2017-03-12T13:17:06Z</time>
      </trkpt>
      <trkpt lat="50.67358" lon="4.22033">
        <ele>40.03</ele>
        <time>2017-03-12T13:17:18Z</time>
      </trkpt>
      <trkpt lat="50.67362" lon="4.2203">
        <ele>38.59</ele>
        <time>2017-03-12T13:17:21Z</time>
      </trkpt>
      <trkpt lat="50.67374" lon="4.22022">
        <ele>40.51</ele>
        <time>2017-03-12T13:17:31Z</time>
      </trkpt>
      <trkpt lat="50.67376" lon="4.2202">
        <ele>38.59</ele>
        <time>2017-03-12T13:17:33Z</time>
      </trkpt>
      <trkpt lat="50.67398" lon="4.22001">
        <ele>39.07</ele>
        <time>2017-03-12T13:17:54Z</time>
      </trkpt>
      <trkpt lat="50.67403" lon="4.21996">
        <ele>40.51</ele>
        <time>2017-03-12T13:17:59Z</time>
      </trkpt>
      <trkpt lat="50.67405" lon="4.21994">
        <ele>39.07</ele>
        <time>2017-03-12T13:18:01Z</time>
      </trkpt>
      <trkpt lat="50.67422" lon="4.21983">
        <ele>40.03</ele>
        <time>2017-03-12T13:18:13Z</time>
      </trkpt>
      <trkpt lat="50.67427" lon="4.21978">
        <ele>38.59</ele>
        <time>2017-03-12T13:18:18Z</time>
      </trkpt>
      <trkpt lat="50.67442" lon="4.21966">
        <ele>38.59</ele>
        <time>2017-03-12T13:18:29Z</time>
      </trkpt>
      <trkpt lat="50.67444" lon="4.21964">
        <ele>40.03</ele>
        <time>2017-03-12T13:18:31Z</time>
      </trkpt>
      <trkpt lat="50.67447" lon="4.21962">
        <ele>38.59</ele>
        <time>2017-03-12T13:18:33Z</time>
      </trkpt>
      <trkpt lat="50.67451" lon="4.21958">
        <ele>40.03</ele>
        <time>2017-03-12T13:18:37Z</time>
      </trkpt>
      <trkpt lat="50.67464" lon="4.21946">
        <ele>38.59</ele>
        <time>2017-03-12T13:18:48Z</time>
      </trkpt>
      <trkpt lat="50.67467" lon="4.21944">
        <ele>40.51</ele>
        <time>2017-03-12T13:18:50Z</time>
      </trkpt>
      <trkpt lat="50.6747" lon="4.2194">
        <ele>39.07</ele>
        <time>2017-03-12T13:18:53Z</time>
      </trkpt>
      <trkpt lat="50.67476" lon="4.21934">
        <ele>40.99</ele>
        <time>2017-03-12T13:19:00Z</time>
      </trkpt>
      <trkpt lat="50.67481" lon="4.21929">
        <ele>39.55</ele>
        <time>2017-03-12T13:19:04Z</time>
      </trkpt>
      <trkpt lat="50.67489" lon="4.21923">
        <ele>40.51</ele>
        <time>2017-03-12T13:19:11Z</time>
      </trkpt>
      <trkpt lat="50.67508" lon="4.21907">
        <ele>40.51</ele>
        <time>2017-03-12T13:19:30Z</time>
      </trkpt>
      <trkpt lat="50.67514" lon="4.21901">
        <ele>39.07</ele>
        <time>2017-03-12T13:19:36Z</time>
      </trkpt>
      <trkpt lat="50.67518" lon="4.21896">
        <ele>40.99</ele>
        <time>2017-03-12T13:19:40Z</time>
      </trkpt>
      <trkpt lat="50.67528" lon="4.21889">
        <ele>39.55</ele>
        <time>2017-03-12T13:19:48Z</time>
      </trkpt>
      <trkpt lat="50.67543" lon="4.21868">
        <ele>39.07</ele>
        <time>2017-03-12T13:20:02Z</time>
      </trkpt>
      <trkpt lat="50.67545" lon="4.21863">
        <ele>40.51</ele>
        <time>2017-03-12T13:20:05Z</time>
      </trkpt>
      <trkpt lat="50.67546" lon="4.21853">
        <ele>40.51</ele>
        <time>2017-03-12T13:20:11Z</time>
      </trkpt>
      <trkpt lat="50.67544" lon="4.21831">
        <ele>41.47</ele>
        <time>2017-03-12T13:20:21Z</time>
      </trkpt>
      <trkpt lat="50.67544" lon="4.21807">
        <ele>40.51</ele>
        <time>2017-03-12T13:20:34Z</time>
      </trkpt>
      <trkpt lat="50.67546" lon="4.21798">
        <ele>42.44</ele>
        <time>2017-03-12T13:20:39Z</time>
      </trkpt>
      <trkpt lat="50.67549" lon="4.21793">
        <ele>40.51</ele>
        <time>2017-03-12T13:20:42Z</time>
      </trkpt>
      <trkpt lat="50.67551" lon="4.21783">
        <ele>41.95</ele>
        <time>2017-03-12T13:20:48Z</time>
      </trkpt>
      <trkpt lat="50.67564" lon="4.21757">
        <ele>42.92</ele>
        <time>2017-03-12T13:21:05Z</time>
      </trkpt>
      <trkpt lat="50.67566" lon="4.21755">
        <ele>41.47</ele>
        <time>2017-03-12T13:21:07Z</time>
      </trkpt>
      <trkpt lat="50.67573" lon="4.21748">
        <ele>42.44</ele>
        <time>2017-03-12T13:21:14Z</time>
      </trkpt>
      <trkpt lat="50.67576" lon="4.21746">
        <ele>40.99</ele>
        <time>2017-03-12T13:21:16Z</time>
      </trkpt>
      <trkpt lat="50.67584" lon="4.2174">
        <ele>42.92</ele>
        <time>2017-03-12T13:21:22Z</time>
      </trkpt>
      <trkpt lat="50.67594" lon="4.21719">
        <ele>42.92</ele>
        <time>2017-03-12T13:21:39Z</time>
      </trkpt>
      <trkpt lat="50.67592" lon="4.21717">
        <ele>42.92</ele>
        <time>2017-03-12T13:21:40Z</time>
      </trkpt>
      <trkpt lat="50.67588" lon="4.21714">
        <ele>44.36</ele>
        <time>2017-03-12T13:21:43Z</time>
      </trkpt>
      <trkpt lat="50.67586" lon="4.21711">
        <ele>42.92</ele>
        <time>2017-03-12T13:21:45Z</time>
      </trkpt>
      <trkpt lat="50.67577" lon="4.21697">
        <ele>44.36</ele>
        <time>2017-03-12T13:21:54Z</time>
      </trkpt>
      <trkpt lat="50.67573" lon="4.21684">
        <ele>42.92</ele>
        <time>2017-03-12T13:22:01Z</time>
      </trkpt>
      <trkpt lat="50.67572" lon="4.21675">
        <ele>44.36</ele>
        <time>2017-03-12T13:22:05Z</time>
      </trkpt>
      <trkpt lat="50.67571" lon="4.21665">
        <ele>44.36</ele>
        <time>2017-03-12T13:22:10Z</time>
      </trkpt>
      <trkpt lat="50.67575" lon="4.21638">
        <ele>43.88</ele>
        <time>2017-03-12T13:22:23Z</time>
      </trkpt>
      <trkpt lat="50.67576" lon="4.21635">
        <ele>45.32</ele>
        <time>2017-03-12T13:22:25Z</time>
      </trkpt>
      <trkpt lat="50.67577" lon="4.21634">
        <ele>45.32</ele>
        <time>2017-03-12T13:22:26Z</time>
      </trkpt>
      <trkpt lat="50.67591" lon="4.21605">
        <ele>45.8</ele>
        <time>2017-03-12T13:22:47Z</time>
      </trkpt>
      <trkpt lat="50.67597" lon="4.21591">
        <ele>49.16</ele>
        <time>2017-03-12T13:22:56Z</time>
      </trkpt>
      <trkpt lat="50.67596" lon="4.21587">
        <ele>45.32</ele>
        <time>2017-03-12T13:23:00Z</time>
      </trkpt>
      <trkpt lat="50.67595" lon="4.21585">
        <ele>48.68</ele>
        <time>2017-03-12T13:23:01Z</time>
      </trkpt>
      <trkpt lat="50.67593" lon="4.21576">
        <ele>46.76</ele>
        <time>2017-03-12T13:23:07Z</time>
      </trkpt>
      <trkpt lat="50.67593" lon="4.21571">
        <ele>48.68</ele>
        <time>2017-03-12T13:23:09Z</time>
      </trkpt>
      <trkpt lat="50.67597" lon="4.21538">
        <ele>48.2</ele>
        <time>2017-03-12T13:23:27Z</time>
      </trkpt>
      <trkpt lat="50.67602" lon="4.21529">
        <ele>50.13</ele>
        <time>2017-03-12T13:23:43Z</time>
      </trkpt>
      <trkpt lat="50.67602" lon="4.21527">
        <ele>50.13</ele>
        <time>2017-03-12T13:24:09Z</time>
      </trkpt>
      <trkpt lat="50.6761" lon="4.21535">
        <ele>50.13</ele>
        <time>2017-03-12T13:24:33Z</time>
      </trkpt>
      <trkpt lat="50.67611" lon="4.21535">
        <ele>49.16</ele>
        <time>2017-03-12T13:24:38Z</time>
      </trkpt>
      <trkpt lat="50.67604" lon="4.21531">
        <ele>49.16</ele>
        <time>2017-03-12T13:24:44Z</time>
      </trkpt>
      <trkpt lat="50.67598" lon="4.21537">
        <ele>49.16</ele>
        <time>2017-03-12T13:24:55Z</time>
      </trkpt>
      <trkpt lat="50.67595" lon="4.21555">
        <ele>48.2</ele>
        <time>2017-03-12T13:25:05Z</time>
      </trkpt>
      <trkpt lat="50.67591" lon="4.21584">
        <ele>48.2</ele>
        <time>2017-03-12T13:25:21Z</time>
      </trkpt>
      <trkpt lat="50.67591" lon="4.21602">
        <ele>47.24</ele>
        <time>2017-03-12T13:25:30Z</time>
      </trkpt>
      <trkpt lat="50.67587" lon="4.21608">
        <ele>46.76</ele>
        <time>2017-03-12T13:25:37Z</time>
      </trkpt>
      <trkpt lat="50.67583" lon="4.2161">
        <ele>46.76</ele>
        <time>2017-03-12T13:25:53Z</time>
      </trkpt>
      <trkpt lat="50.67579" lon="4.21607">
        <ele>48.68</ele>
        <time>2017-03-12T13:25:58Z</time>
      </trkpt>
      <trkpt lat="50.67578" lon="4.21607">
        <ele>48.68</ele>
        <time>2017-03-12T13:25:59Z</time>
      </trkpt>
      <trkpt lat="50.67575" lon="4.21606">
        <ele>49.65</ele>
        <time>2017-03-12T13:26:01Z</time>
      </trkpt>
      <trkpt lat="50.67555" lon="4.21608">
        <ele>48.68</ele>
        <time>2017-03-12T13:26:23Z</time>
      </trkpt>
      <trkpt lat="50.67552" lon="4.21609">
        <ele>50.13</ele>
        <time>2017-03-12T13:26:26Z</time>
      </trkpt>
      <trkpt lat="50.6755" lon="4.2161">
        <ele>49.16</ele>
        <time>2017-03-12T13:26:28Z</time>
      </trkpt>
      <trkpt lat="50.67527" lon="4.21606">
        <ele>50.13</ele>
        <time>2017-03-12T13:26:48Z</time>
      </trkpt>
      <trkpt lat="50.67511" lon="4.21603">
        <ele>49.16</ele>
        <time>2017-03-12T13:27:00Z</time>
      </trkpt>
      <trkpt lat="50.67508" lon="4.21602">
        <ele>50.61</ele>
        <time>2017-03-12T13:27:02Z</time>
      </trkpt>
      <trkpt lat="50.67506" lon="4.21602">
        <ele>49.16</ele>
        <time>2017-03-12T13:27:04Z</time>
      </trkpt>
      <trkpt lat="50.67501" lon="4.216">
        <ele>49.65</ele>
        <time>2017-03-12T13:27:08Z</time>
      </trkpt>
      <trkpt lat="50.67484" lon="4.21595">
        <ele>48.2</ele>
        <time>2017-03-12T13:27:23Z</time>
      </trkpt>
      <trkpt lat="50.67482" lon="4.21595">
        <ele>47.72</ele>
        <time>2017-03-12T13:27:26Z</time>
      </trkpt>
      <trkpt lat="50.67474" lon="4.21605">
        <ele>49.65</ele>
        <time>2017-03-12T13:27:35Z</time>
      </trkpt>
      <trkpt lat="50.67471" lon="4.21609">
        <ele>51.09</ele>
        <time>2017-03-12T13:27:39Z</time>
      </trkpt>
      <trkpt lat="50.67465" lon="4.21614">
        <ele>51.57</ele>
        <time>2017-03-12T13:27:45Z</time>
      </trkpt>
      <trkpt lat="50.67462" lon="4.21617">
        <ele>49.65</ele>
        <time>2017-03-12T13:27:48Z</time>
      </trkpt>
      <trkpt lat="50.6746" lon="4.21619">
        <ele>51.09</ele>
        <time>2017-03-12T13:27:50Z</time>
      </trkpt>
      <trkpt lat="50.67452" lon="4.21629">
        <ele>54.45</ele>
        <time>2017-03-12T13:27:59Z</time>
      </trkpt>
      <trkpt lat="50.67451" lon="4.2163">
        <ele>52.05</ele>
        <time>2017-03-12T13:28:00Z</time>
      </trkpt>
      <trkpt lat="50.67448" lon="4.21633">
        <ele>53.97</ele>
        <time>2017-03-12T13:28:04Z</time>
      </trkpt>
      <trkpt lat="50.6744" lon="4.21646">
        <ele>55.41</ele>
        <time>2017-03-12T13:28:17Z</time>
      </trkpt>
      <trkpt lat="50.67439" lon="4.21647">
        <ele>54.45</ele>
        <time>2017-03-12T13:28:19Z</time>
      </trkpt>
      <trkpt lat="50.67428" lon="4.2166">
        <ele>54.93</ele>
        <time>2017-03-12T13:28:30Z</time>
      </trkpt>
      <trkpt lat="50.67427" lon="4.21664">
        <ele>56.37</ele>
        <time>2017-03-12T13:28:32Z</time>
      </trkpt>
      <trkpt lat="50.67425" lon="4.2167">
        <ele>56.37</ele>
        <time>2017-03-12T13:28:35Z</time>
      </trkpt>
      <trkpt lat="50.67414" lon="4.21693">
        <ele>55.41</ele>
        <time>2017-03-12T13:28:50Z</time>
      </trkpt>
      <trkpt lat="50.67412" lon="4.21696">
        <ele>56.86</ele>
        <time>2017-03-12T13:28:52Z</time>
      </trkpt>
      <trkpt lat="50.67406" lon="4.21703">
        <ele>56.37</ele>
        <time>2017-03-12T13:28:59Z</time>
      </trkpt>
      <trkpt lat="50.67394" lon="4.21723">
        <ele>56.86</ele>
        <time>2017-03-12T13:29:14Z</time>
      </trkpt>
      <trkpt lat="50.67379" lon="4.21748">
        <ele>54.93</ele>
        <time>2017-03-12T13:29:32Z</time>
      </trkpt>
      <trkpt lat="50.67366" lon="4.21765">
        <ele>53.97</ele>
        <time>2017-03-12T13:29:46Z</time>
      </trkpt>
      <trkpt lat="50.67358" lon="4.2177">
        <ele>54.93</ele>
        <time>2017-03-12T13:29:51Z</time>
      </trkpt>
      <trkpt lat="50.67345" lon="4.21778">
        <ele>55.41</ele>
        <time>2017-03-12T13:30:03Z</time>
      </trkpt>
      <trkpt lat="50.67334" lon="4.21785">
        <ele>55.41</ele>
        <time>2017-03-12T13:30:12Z</time>
      </trkpt>
      <trkpt lat="50.67329" lon="4.21787">
        <ele>54.45</ele>
        <time>2017-03-12T13:30:16Z</time>
      </trkpt>
      <trkpt lat="50.67319" lon="4.21791">
        <ele>55.89</ele>
        <time>2017-03-12T13:30:23Z</time>
      </trkpt>
      <trkpt lat="50.67307" lon="4.21796">
        <ele>54.45</ele>
        <time>2017-03-12T13:30:32Z</time>
      </trkpt>
      <trkpt lat="50.67302" lon="4.21799">
        <ele>55.89</ele>
        <time>2017-03-12T13:30:37Z</time>
      </trkpt>
      <trkpt lat="50.6729" lon="4.21806">
        <ele>53.97</ele>
        <time>2017-03-12T13:30:47Z</time>
      </trkpt>
      <trkpt lat="50.67287" lon="4.21807">
        <ele>55.89</ele>
        <time>2017-03-12T13:30:49Z</time>
      </trkpt>
      <trkpt lat="50.6728" lon="4.2181">
        <ele>53.97</ele>
        <time>2017-03-12T13:30:54Z</time>
      </trkpt>
      <trkpt lat="50.67277" lon="4.21812">
        <ele>55.89</ele>
        <time>2017-03-12T13:30:56Z</time>
      </trkpt>
      <trkpt lat="50.67275" lon="4.21813">
        <ele>54.45</ele>
        <time>2017-03-12T13:30:58Z</time>
      </trkpt>
      <trkpt lat="50.67268" lon="4.21815">
        <ele>55.89</ele>
        <time>2017-03-12T13:31:05Z</time>
      </trkpt>
      <trkpt lat="50.67265" lon="4.21816">
        <ele>53.97</ele>
        <time>2017-03-12T13:31:07Z</time>
      </trkpt>
      <trkpt lat="50.67254" lon="4.21825">
        <ele>54.93</ele>
        <time>2017-03-12T13:31:18Z</time>
      </trkpt>
      <trkpt lat="50.67232" lon="4.21833">
        <ele>53.49</ele>
        <time>2017-03-12T13:31:36Z</time>
      </trkpt>
      <trkpt lat="50.67229" lon="4.21836">
        <ele>54.93</ele>
        <time>2017-03-12T13:31:39Z</time>
      </trkpt>
      <trkpt lat="50.67227" lon="4.21837">
        <ele>53.49</ele>
        <time>2017-03-12T13:31:41Z</time>
      </trkpt>
      <trkpt lat="50.67207" lon="4.21832">
        <ele>52.05</ele>
        <time>2017-03-12T13:31:57Z</time>
      </trkpt>
      <trkpt lat="50.67183" lon="4.21825">
        <ele>49.16</ele>
        <time>2017-03-12T13:32:17Z</time>
      </trkpt>
      <trkpt lat="50.67175" lon="4.21823">
        <ele>48.68</ele>
        <time>2017-03-12T13:32:23Z</time>
      </trkpt>
      <trkpt lat="50.67157" lon="4.21821">
        <ele>49.16</ele>
        <time>2017-03-12T13:32:36Z</time>
      </trkpt>
      <trkpt lat="50.67146" lon="4.21819">
        <ele>48.2</ele>
        <time>2017-03-12T13:32:45Z</time>
      </trkpt>
      <trkpt lat="50.67149" lon="4.21806">
        <ele>49.16</ele>
        <time>2017-03-12T13:32:52Z</time>
      </trkpt>
      <trkpt lat="50.67149" lon="4.21805">
        <ele>49.16</ele>
        <time>2017-03-12T13:32:53Z</time>
      </trkpt>
      <trkpt lat="50.6715" lon="4.21788">
        <ele>47.72</ele>
        <time>2017-03-12T13:33:01Z</time>
      </trkpt>
      <trkpt lat="50.67149" lon="4.21772">
        <ele>49.16</ele>
        <time>2017-03-12T13:33:11Z</time>
      </trkpt>
      <trkpt lat="50.67145" lon="4.21739">
        <ele>49.16</ele>
        <time>2017-03-12T13:33:29Z</time>
      </trkpt>
      <trkpt lat="50.67146" lon="4.21723">
        <ele>48.68</ele>
        <time>2017-03-12T13:33:36Z</time>
      </trkpt>
      <trkpt lat="50.67146" lon="4.21718">
        <ele>50.13</ele>
        <time>2017-03-12T13:33:38Z</time>
      </trkpt>
      <trkpt lat="50.67146" lon="4.21716">
        <ele>49.16</ele>
        <time>2017-03-12T13:33:39Z</time>
      </trkpt>
      <trkpt lat="50.67145" lon="4.21704">
        <ele>50.61</ele>
        <time>2017-03-12T13:33:44Z</time>
      </trkpt>
      <trkpt lat="50.67146" lon="4.2169">
        <ele>51.09</ele>
        <time>2017-03-12T13:33:51Z</time>
      </trkpt>
      <trkpt lat="50.67146" lon="4.21679">
        <ele>52.53</ele>
        <time>2017-03-12T13:33:57Z</time>
      </trkpt>
      <trkpt lat="50.67145" lon="4.21674">
        <ele>50.61</ele>
        <time>2017-03-12T13:34:00Z</time>
      </trkpt>
      <trkpt lat="50.67143" lon="4.21656">
        <ele>51.09</ele>
        <time>2017-03-12T13:34:09Z</time>
      </trkpt>
      <trkpt lat="50.67142" lon="4.21653">
        <ele>53.01</ele>
        <time>2017-03-12T13:34:11Z</time>
      </trkpt>
      <trkpt lat="50.6714" lon="4.21647">
        <ele>53.49</ele>
        <time>2017-03-12T13:34:15Z</time>
      </trkpt>
      <trkpt lat="50.67132" lon="4.21628">
        <ele>55.41</ele>
        <time>2017-03-12T13:34:25Z</time>
      </trkpt>
      <trkpt lat="50.67125" lon="4.216">
        <ele>56.86</ele>
        <time>2017-03-12T13:34:41Z</time>
      </trkpt>
      <trkpt lat="50.67125" lon="4.21596">
        <ele>55.41</ele>
        <time>2017-03-12T13:34:43Z</time>
      </trkpt>
      <trkpt lat="50.67124" lon="4.21589">
        <ele>57.34</ele>
        <time>2017-03-12T13:34:47Z</time>
      </trkpt>
      <trkpt lat="50.67127" lon="4.21553">
        <ele>59.74</ele>
        <time>2017-03-12T13:35:07Z</time>
      </trkpt>
      <trkpt lat="50.67128" lon="4.21544">
        <ele>60.7</ele>
        <time>2017-03-12T13:35:12Z</time>
      </trkpt>
      <trkpt lat="50.67128" lon="4.21528">
        <ele>61.18</ele>
        <time>2017-03-12T13:35:29Z</time>
      </trkpt>
      <trkpt lat="50.67124" lon="4.2153">
        <ele>61.18</ele>
        <time>2017-03-12T13:35:58Z</time>
      </trkpt>
      <trkpt lat="50.67128" lon="4.21519">
        <ele>63.1</ele>
        <time>2017-03-12T13:36:04Z</time>
      </trkpt>
      <trkpt lat="50.6713" lon="4.21512">
        <ele>61.66</ele>
        <time>2017-03-12T13:36:07Z</time>
      </trkpt>
      <trkpt lat="50.67134" lon="4.21495">
        <ele>63.1</ele>
        <time>2017-03-12T13:36:14Z</time>
      </trkpt>
      <trkpt lat="50.67136" lon="4.21487">
        <ele>62.62</ele>
        <time>2017-03-12T13:36:18Z</time>
      </trkpt>
      <trkpt lat="50.67136" lon="4.21484">
        <ele>64.07</ele>
        <time>2017-03-12T13:36:20Z</time>
      </trkpt>
      <trkpt lat="50.6714" lon="4.21464">
        <ele>65.99</ele>
        <time>2017-03-12T13:36:30Z</time>
      </trkpt>
      <trkpt lat="50.6714" lon="4.21456">
        <ele>64.55</ele>
        <time>2017-03-12T13:36:33Z</time>
      </trkpt>
      <trkpt lat="50.67141" lon="4.21449">
        <ele>65.99</ele>
        <time>2017-03-12T13:36:36Z</time>
      </trkpt>
      <trkpt lat="50.67144" lon="4.21425">
        <ele>66.47</ele>
        <time>2017-03-12T13:36:49Z</time>
      </trkpt>
      <trkpt lat="50.67148" lon="4.21401">
        <ele>65.99</ele>
        <time>2017-03-12T13:37:02Z</time>
      </trkpt>
      <trkpt lat="50.67149" lon="4.21395">
        <ele>69.35</ele>
        <time>2017-03-12T13:37:05Z</time>
      </trkpt>
      <trkpt lat="50.67149" lon="4.21393">
        <ele>69.35</ele>
        <time>2017-03-12T13:37:06Z</time>
      </trkpt>
      <trkpt lat="50.67152" lon="4.21375">
        <ele>70.79</ele>
        <time>2017-03-12T13:37:15Z</time>
      </trkpt>
      <trkpt lat="50.67153" lon="4.21367">
        <ele>70.79</ele>
        <time>2017-03-12T13:37:20Z</time>
      </trkpt>
      <trkpt lat="50.67157" lon="4.21349">
        <ele>70.31</ele>
        <time>2017-03-12T13:37:29Z</time>
      </trkpt>
      <trkpt lat="50.67158" lon="4.21338">
        <ele>71.76</ele>
        <time>2017-03-12T13:37:35Z</time>
      </trkpt>
      <trkpt lat="50.6716" lon="4.21314">
        <ele>73.68</ele>
        <time>2017-03-12T13:37:50Z</time>
      </trkpt>
      <trkpt lat="50.67157" lon="4.21303">
        <ele>72.24</ele>
        <time>2017-03-12T13:37:56Z</time>
      </trkpt>
      <trkpt lat="50.67156" lon="4.21299">
        <ele>74.64</ele>
        <time>2017-03-12T13:37:58Z</time>
      </trkpt>
      <trkpt lat="50.67155" lon="4.21293">
        <ele>73.2</ele>
        <time>2017-03-12T13:38:01Z</time>
      </trkpt>
      <trkpt lat="50.6715" lon="4.21264">
        <ele>76.08</ele>
        <time>2017-03-12T13:38:18Z</time>
      </trkpt>
      <trkpt lat="50.67149" lon="4.21262">
        <ele>76.08</ele>
        <time>2017-03-12T13:38:19Z</time>
      </trkpt>
      <trkpt lat="50.67149" lon="4.2126">
        <ele>74.64</ele>
        <time>2017-03-12T13:38:20Z</time>
      </trkpt>
      <trkpt lat="50.67147" lon="4.21252">
        <ele>74.64</ele>
        <time>2017-03-12T13:38:24Z</time>
      </trkpt>
      <trkpt lat="50.67145" lon="4.21242">
        <ele>77.52</ele>
        <time>2017-03-12T13:38:30Z</time>
      </trkpt>
      <trkpt lat="50.67141" lon="4.21218">
        <ele>77.52</ele>
        <time>2017-03-12T13:38:42Z</time>
      </trkpt>
      <trkpt lat="50.67139" lon="4.21187">
        <ele>76.08</ele>
        <time>2017-03-12T13:38:58Z</time>
      </trkpt>
      <trkpt lat="50.67139" lon="4.21185">
        <ele>76.08</ele>
        <time>2017-03-12T13:38:59Z</time>
      </trkpt>
      <trkpt lat="50.67135" lon="4.21175">
        <ele>76.56</ele>
        <time>2017-03-12T13:39:14Z</time>
      </trkpt>
      <trkpt lat="50.67134" lon="4.21142">
        <ele>78</ele>
        <time>2017-03-12T13:39:30Z</time>
      </trkpt>
      <trkpt lat="50.67132" lon="4.21131">
        <ele>75.6</ele>
        <time>2017-03-12T13:39:35Z</time>
      </trkpt>
      <trkpt lat="50.67131" lon="4.21125">
        <ele>77.04</ele>
        <time>2017-03-12T13:39:38Z</time>
      </trkpt>
      <trkpt lat="50.6713" lon="4.21117">
        <ele>76.08</ele>
        <time>2017-03-12T13:39:42Z</time>
      </trkpt>
      <trkpt lat="50.67129" lon="4.21111">
        <ele>77.52</ele>
        <time>2017-03-12T13:39:45Z</time>
      </trkpt>
      <trkpt lat="50.67127" lon="4.21101">
        <ele>76.08</ele>
        <time>2017-03-12T13:39:50Z</time>
      </trkpt>
      <trkpt lat="50.67126" lon="4.21097">
        <ele>77.52</ele>
        <time>2017-03-12T13:39:52Z</time>
      </trkpt>
      <trkpt lat="50.67125" lon="4.2109">
        <ele>76.08</ele>
        <time>2017-03-12T13:39:55Z</time>
      </trkpt>
      <trkpt lat="50.67124" lon="4.21082">
        <ele>78</ele>
        <time>2017-03-12T13:39:59Z</time>
      </trkpt>
      <trkpt lat="50.67121" lon="4.21057">
        <ele>78</ele>
        <time>2017-03-12T13:40:11Z</time>
      </trkpt>
      <trkpt lat="50.67118" lon="4.21039">
        <ele>77.52</ele>
        <time>2017-03-12T13:40:20Z</time>
      </trkpt>
      <trkpt lat="50.67116" lon="4.21029">
        <ele>78.48</ele>
        <time>2017-03-12T13:40:26Z</time>
      </trkpt>
      <trkpt lat="50.67115" lon="4.21016">
        <ele>79.93</ele>
        <time>2017-03-12T13:40:33Z</time>
      </trkpt>
      <trkpt lat="50.67115" lon="4.21009">
        <ele>78</ele>
        <time>2017-03-12T13:40:37Z</time>
      </trkpt>
      <trkpt lat="50.67115" lon="4.21005">
        <ele>79.45</ele>
        <time>2017-03-12T13:40:39Z</time>
      </trkpt>
      <trkpt lat="50.67113" lon="4.20996">
        <ele>80.89</ele>
        <time>2017-03-12T13:40:44Z</time>
      </trkpt>
      <trkpt lat="50.67112" lon="4.20991">
        <ele>78.97</ele>
        <time>2017-03-12T13:40:47Z</time>
      </trkpt>
      <trkpt lat="50.67111" lon="4.20987">
        <ele>81.85</ele>
        <time>2017-03-12T13:40:49Z</time>
      </trkpt>
      <trkpt lat="50.67111" lon="4.20984">
        <ele>80.41</ele>
        <time>2017-03-12T13:40:51Z</time>
      </trkpt>
      <trkpt lat="50.67106" lon="4.20951">
        <ele>83.29</ele>
        <time>2017-03-12T13:41:10Z</time>
      </trkpt>
      <trkpt lat="50.67105" lon="4.20949">
        <ele>83.29</ele>
        <time>2017-03-12T13:41:11Z</time>
      </trkpt>
      <trkpt lat="50.67104" lon="4.20942">
        <ele>81.85</ele>
        <time>2017-03-12T13:41:15Z</time>
      </trkpt>
      <trkpt lat="50.67103" lon="4.20929">
        <ele>85.21</ele>
        <time>2017-03-12T13:41:22Z</time>
      </trkpt>
      <trkpt lat="50.67102" lon="4.20928">
        <ele>83.77</ele>
        <time>2017-03-12T13:41:23Z</time>
      </trkpt>
      <trkpt lat="50.671" lon="4.20917">
        <ele>84.25</ele>
        <time>2017-03-12T13:41:29Z</time>
      </trkpt>
      <trkpt lat="50.67095" lon="4.20886">
        <ele>86.18</ele>
        <time>2017-03-12T13:41:47Z</time>
      </trkpt>
      <trkpt lat="50.67092" lon="4.20852">
        <ele>87.14</ele>
        <time>2017-03-12T13:42:06Z</time>
      </trkpt>
      <trkpt lat="50.67086" lon="4.20814">
        <ele>89.06</ele>
        <time>2017-03-12T13:42:27Z</time>
      </trkpt>
      <trkpt lat="50.67085" lon="4.2081">
        <ele>87.62</ele>
        <time>2017-03-12T13:42:29Z</time>
      </trkpt>
      <trkpt lat="50.67083" lon="4.20796">
        <ele>89.06</ele>
        <time>2017-03-12T13:42:36Z</time>
      </trkpt>
      <trkpt lat="50.67082" lon="4.20792">
        <ele>87.14</ele>
        <time>2017-03-12T13:42:38Z</time>
      </trkpt>
      <trkpt lat="50.67077" lon="4.20756">
        <ele>89.06</ele>
        <time>2017-03-12T13:42:57Z</time>
      </trkpt>
      <trkpt lat="50.67071" lon="4.20716">
        <ele>89.06</ele>
        <time>2017-03-12T13:43:18Z</time>
      </trkpt>
      <trkpt lat="50.6707" lon="4.2071">
        <ele>90.02</ele>
        <time>2017-03-12T13:43:21Z</time>
      </trkpt>
      <trkpt lat="50.67069" lon="4.20706">
        <ele>90.02</ele>
        <time>2017-03-12T13:43:23Z</time>
      </trkpt>
      <trkpt lat="50.67069" lon="4.20692">
        <ele>91.46</ele>
        <time>2017-03-12T13:43:33Z</time>
      </trkpt>
      <trkpt lat="50.67068" lon="4.20688">
        <ele>89.54</ele>
        <time>2017-03-12T13:43:35Z</time>
      </trkpt>
      <trkpt lat="50.67068" lon="4.20683">
        <ele>91.94</ele>
        <time>2017-03-12T13:43:38Z</time>
      </trkpt>
      <trkpt lat="50.67069" lon="4.20673">
        <ele>91.94</ele>
        <time>2017-03-12T13:43:44Z</time>
      </trkpt>
      <trkpt lat="50.67072" lon="4.20668">
        <ele>90.02</ele>
        <time>2017-03-12T13:43:47Z</time>
      </trkpt>
      <trkpt lat="50.67082" lon="4.20661">
        <ele>91.94</ele>
        <time>2017-03-12T13:43:55Z</time>
      </trkpt>
      <trkpt lat="50.671" lon="4.20651">
        <ele>90.02</ele>
        <time>2017-03-12T13:44:16Z</time>
      </trkpt>
      <trkpt lat="50.6711" lon="4.20638">
        <ele>91.94</ele>
        <time>2017-03-12T13:44:27Z</time>
      </trkpt>
      <trkpt lat="50.67116" lon="4.20633">
        <ele>91.94</ele>
        <time>2017-03-12T13:44:48Z</time>
      </trkpt>
      <trkpt lat="50.67121" lon="4.20629">
        <ele>91.94</ele>
        <time>2017-03-12T13:45:09Z</time>
      </trkpt>
      <trkpt lat="50.6714" lon="4.20618">
        <ele>92.42</ele>
        <time>2017-03-12T13:45:21Z</time>
      </trkpt>
      <trkpt lat="50.67143" lon="4.20616">
        <ele>91.46</ele>
        <time>2017-03-12T13:45:23Z</time>
      </trkpt>
      <trkpt lat="50.67147" lon="4.20613">
        <ele>91.46</ele>
        <time>2017-03-12T13:45:26Z</time>
      </trkpt>
      <trkpt lat="50.67157" lon="4.20607">
        <ele>90.5</ele>
        <time>2017-03-12T13:45:34Z</time>
      </trkpt>
      <trkpt lat="50.67161" lon="4.20604">
        <ele>92.42</ele>
        <time>2017-03-12T13:45:37Z</time>
      </trkpt>
      <trkpt lat="50.67181" lon="4.2059">
        <ele>92.42</ele>
        <time>2017-03-12T13:45:53Z</time>
      </trkpt>
      <trkpt lat="50.67192" lon="4.20581">
        <ele>92.9</ele>
        <time>2017-03-12T13:46:02Z</time>
      </trkpt>
      <trkpt lat="50.67202" lon="4.20577">
        <ele>92.9</ele>
        <time>2017-03-12T13:46:10Z</time>
      </trkpt>
      <trkpt lat="50.67211" lon="4.20572">
        <ele>91.46</ele>
        <time>2017-03-12T13:46:16Z</time>
      </trkpt>
      <trkpt lat="50.67216" lon="4.2057">
        <ele>92.9</ele>
        <time>2017-03-12T13:46:20Z</time>
      </trkpt>
      <trkpt lat="50.67225" lon="4.20569">
        <ele>92.9</ele>
        <time>2017-03-12T13:46:28Z</time>
      </trkpt>
      <trkpt lat="50.67231" lon="4.20569">
        <ele>91.46</ele>
        <time>2017-03-12T13:46:33Z</time>
      </trkpt>
      <trkpt lat="50.67235" lon="4.20569">
        <ele>92.9</ele>
        <time>2017-03-12T13:46:36Z</time>
      </trkpt>
      <trkpt lat="50.67248" lon="4.20574">
        <ele>91.46</ele>
        <time>2017-03-12T13:46:45Z</time>
      </trkpt>
      <trkpt lat="50.67254" lon="4.20576">
        <ele>92.9</ele>
        <time>2017-03-12T13:46:49Z</time>
      </trkpt>
      <trkpt lat="50.67276" lon="4.20585">
        <ele>91.94</ele>
        <time>2017-03-12T13:47:08Z</time>
      </trkpt>
      <trkpt lat="50.67292" lon="4.20597">
        <ele>93.39</ele>
        <time>2017-03-12T13:47:21Z</time>
      </trkpt>
      <trkpt lat="50.67293" lon="4.20597">
        <ele>93.39</ele>
        <time>2017-03-12T13:47:22Z</time>
      </trkpt>
      <trkpt lat="50.67306" lon="4.20603">
        <ele>93.39</ele>
        <time>2017-03-12T13:47:33Z</time>
      </trkpt>
      <trkpt lat="50.67313" lon="4.20609">
        <ele>91.46</ele>
        <time>2017-03-12T13:47:39Z</time>
      </trkpt>
      <trkpt lat="50.67316" lon="4.20611">
        <ele>93.39</ele>
        <time>2017-03-12T13:47:41Z</time>
      </trkpt>
      <trkpt lat="50.67336" lon="4.20624">
        <ele>92.9</ele>
        <time>2017-03-12T13:47:58Z</time>
      </trkpt>
      <trkpt lat="50.67355" lon="4.20636">
        <ele>91.94</ele>
        <time>2017-03-12T13:48:13Z</time>
      </trkpt>
      <trkpt lat="50.6736" lon="4.2064">
        <ele>93.39</ele>
        <time>2017-03-12T13:48:18Z</time>
      </trkpt>
      <trkpt lat="50.67372" lon="4.20646">
        <ele>91.46</ele>
        <time>2017-03-12T13:48:28Z</time>
      </trkpt>
      <trkpt lat="50.67374" lon="4.20648">
        <ele>93.39</ele>
        <time>2017-03-12T13:48:30Z</time>
      </trkpt>
      <trkpt lat="50.67384" lon="4.20658">
        <ele>93.39</ele>
        <time>2017-03-12T13:48:45Z</time>
      </trkpt>
      <trkpt lat="50.67382" lon="4.20658">
        <ele>93.39</ele>
        <time>2017-03-12T13:49:05Z</time>
      </trkpt>
      <trkpt lat="50.6739" lon="4.20665">
        <ele>93.39</ele>
        <time>2017-03-12T13:49:24Z</time>
      </trkpt>
      <trkpt lat="50.67395" lon="4.20667">
        <ele>93.39</ele>
        <time>2017-03-12T13:49:44Z</time>
      </trkpt>
      <trkpt lat="50.67396" lon="4.20671">
        <ele>91.46</ele>
        <time>2017-03-12T13:49:53Z</time>
      </trkpt>
      <trkpt lat="50.67407" lon="4.20673">
        <ele>92.9</ele>
        <time>2017-03-12T13:50:03Z</time>
      </trkpt>
      <trkpt lat="50.67422" lon="4.20686">
        <ele>91.94</ele>
        <time>2017-03-12T13:50:16Z</time>
      </trkpt>
      <trkpt lat="50.67438" lon="4.207">
        <ele>91.94</ele>
        <time>2017-03-12T13:50:31Z</time>
      </trkpt>
      <trkpt lat="50.6745" lon="4.20702">
        <ele>91.46</ele>
        <time>2017-03-12T13:50:42Z</time>
      </trkpt>
      <trkpt lat="50.67459" lon="4.20714">
        <ele>90.5</ele>
        <time>2017-03-12T13:50:50Z</time>
      </trkpt>
      <trkpt lat="50.67461" lon="4.20717">
        <ele>92.42</ele>
        <time>2017-03-12T13:50:52Z</time>
      </trkpt>
      <trkpt lat="50.67463" lon="4.20719">
        <ele>90.98</ele>
        <time>2017-03-12T13:50:54Z</time>
      </trkpt>
      <trkpt lat="50.67466" lon="4.20721">
        <ele>92.42</ele>
        <time>2017-03-12T13:50:56Z</time>
      </trkpt>
      <trkpt lat="50.67478" lon="4.20727">
        <ele>90.98</ele>
        <time>2017-03-12T13:51:07Z</time>
      </trkpt>
      <trkpt lat="50.67482" lon="4.20727">
        <ele>91.94</ele>
        <time>2017-03-12T13:51:21Z</time>
      </trkpt>
      <trkpt lat="50.67498" lon="4.20736">
        <ele>91.94</ele>
        <time>2017-03-12T13:51:35Z</time>
      </trkpt>
      <trkpt lat="50.67506" lon="4.20744">
        <ele>90.5</ele>
        <time>2017-03-12T13:51:43Z</time>
      </trkpt>
      <trkpt lat="50.6751" lon="4.20746">
        <ele>91.94</ele>
        <time>2017-03-12T13:51:47Z</time>
      </trkpt>
      <trkpt lat="50.67513" lon="4.20747">
        <ele>90.5</ele>
        <time>2017-03-12T13:51:49Z</time>
      </trkpt>
      <trkpt lat="50.67525" lon="4.20755">
        <ele>90.02</ele>
        <time>2017-03-12T13:52:02Z</time>
      </trkpt>
      <trkpt lat="50.67537" lon="4.20759">
        <ele>90.02</ele>
        <time>2017-03-12T13:52:13Z</time>
      </trkpt>
      <trkpt lat="50.67556" lon="4.20768">
        <ele>88.1</ele>
        <time>2017-03-12T13:52:30Z</time>
      </trkpt>
      <trkpt lat="50.67568" lon="4.20774">
        <ele>88.1</ele>
        <time>2017-03-12T13:52:40Z</time>
      </trkpt>
      <trkpt lat="50.67584" lon="4.20779">
        <ele>89.06</ele>
        <time>2017-03-12T13:52:54Z</time>
      </trkpt>
      <trkpt lat="50.67589" lon="4.20782">
        <ele>87.62</ele>
        <time>2017-03-12T13:53:00Z</time>
      </trkpt>
      <trkpt lat="50.67594" lon="4.20786">
        <ele>89.06</ele>
        <time>2017-03-12T13:53:04Z</time>
      </trkpt>
      <trkpt lat="50.67602" lon="4.20786">
        <ele>87.62</ele>
        <time>2017-03-12T13:53:10Z</time>
      </trkpt>
      <trkpt lat="50.67608" lon="4.20791">
        <ele>87.62</ele>
        <time>2017-03-12T13:53:16Z</time>
      </trkpt>
      <trkpt lat="50.6763" lon="4.20807">
        <ele>84.73</ele>
        <time>2017-03-12T13:53:36Z</time>
      </trkpt>
      <trkpt lat="50.67644" lon="4.20812">
        <ele>82.81</ele>
        <time>2017-03-12T13:53:48Z</time>
      </trkpt>
      <trkpt lat="50.6766" lon="4.20816">
        <ele>82.81</ele>
        <time>2017-03-12T13:54:00Z</time>
      </trkpt>
      <trkpt lat="50.67682" lon="4.2082">
        <ele>79.45</ele>
        <time>2017-03-12T13:54:20Z</time>
      </trkpt>
      <trkpt lat="50.67706" lon="4.20821">
        <ele>77.04</ele>
        <time>2017-03-12T13:54:38Z</time>
      </trkpt>
      <trkpt lat="50.67723" lon="4.20825">
        <ele>77.04</ele>
        <time>2017-03-12T13:54:53Z</time>
      </trkpt>
      <trkpt lat="50.67734" lon="4.20827">
        <ele>75.6</ele>
        <time>2017-03-12T13:55:00Z</time>
      </trkpt>
      <trkpt lat="50.67741" lon="4.20826">
        <ele>75.6</ele>
        <time>2017-03-12T13:55:05Z</time>
      </trkpt>
      <trkpt lat="50.6775" lon="4.20829">
        <ele>74.64</ele>
        <time>2017-03-12T13:55:13Z</time>
      </trkpt>
      <trkpt lat="50.67765" lon="4.2084">
        <ele>74.16</ele>
        <time>2017-03-12T13:55:26Z</time>
      </trkpt>
      <trkpt lat="50.67781" lon="4.20844">
        <ele>72.72</ele>
        <time>2017-03-12T13:55:41Z</time>
      </trkpt>
      <trkpt lat="50.67794" lon="4.20847">
        <ele>74.16</ele>
        <time>2017-03-12T13:55:56Z</time>
      </trkpt>
      <trkpt lat="50.67804" lon="4.20863">
        <ele>74.64</ele>
        <time>2017-03-12T13:56:13Z</time>
      </trkpt>
      <trkpt lat="50.67804" lon="4.20877">
        <ele>76.56</ele>
        <time>2017-03-12T13:56:21Z</time>
      </trkpt>
      <trkpt lat="50.678" lon="4.20889">
        <ele>77.04</ele>
        <time>2017-03-12T13:56:28Z</time>
      </trkpt>
      <trkpt lat="50.67796" lon="4.20897">
        <ele>75.6</ele>
        <time>2017-03-12T13:56:32Z</time>
      </trkpt>
      <trkpt lat="50.67794" lon="4.209">
        <ele>77.04</ele>
        <time>2017-03-12T13:56:34Z</time>
      </trkpt>
      <trkpt lat="50.67788" lon="4.20926">
        <ele>78.48</ele>
        <time>2017-03-12T13:56:47Z</time>
      </trkpt>
      <trkpt lat="50.67787" lon="4.20937">
        <ele>79.45</ele>
        <time>2017-03-12T13:56:53Z</time>
      </trkpt>
      <trkpt lat="50.67789" lon="4.20945">
        <ele>78</ele>
        <time>2017-03-12T13:56:57Z</time>
      </trkpt>
      <trkpt lat="50.67794" lon="4.2095">
        <ele>78</ele>
        <time>2017-03-12T13:57:02Z</time>
      </trkpt>
      <trkpt lat="50.67804" lon="4.20956">
        <ele>77.04</ele>
        <time>2017-03-12T13:57:09Z</time>
      </trkpt>
      <trkpt lat="50.67806" lon="4.20958">
        <ele>78.97</ele>
        <time>2017-03-12T13:57:11Z</time>
      </trkpt>
      <trkpt lat="50.67809" lon="4.20962">
        <ele>77.52</ele>
        <time>2017-03-12T13:57:14Z</time>
      </trkpt>
      <trkpt lat="50.67817" lon="4.20972">
        <ele>78</ele>
        <time>2017-03-12T13:57:22Z</time>
      </trkpt>
      <trkpt lat="50.67824" lon="4.20973">
        <ele>77.52</ele>
        <time>2017-03-12T13:57:33Z</time>
      </trkpt>
      <trkpt lat="50.67835" lon="4.20987">
        <ele>78</ele>
        <time>2017-03-12T13:57:46Z</time>
      </trkpt>
      <trkpt lat="50.67837" lon="4.2099">
        <ele>76.56</ele>
        <time>2017-03-12T13:57:48Z</time>
      </trkpt>
      <trkpt lat="50.67856" lon="4.21009">
        <ele>76.56</ele>
        <time>2017-03-12T13:58:04Z</time>
      </trkpt>
      <trkpt lat="50.67858" lon="4.21011">
        <ele>74.64</ele>
        <time>2017-03-12T13:58:06Z</time>
      </trkpt>
      <trkpt lat="50.67859" lon="4.21013">
        <ele>76.08</ele>
        <time>2017-03-12T13:58:08Z</time>
      </trkpt>
      <trkpt lat="50.67859" lon="4.21016">
        <ele>76.56</ele>
        <time>2017-03-12T13:58:10Z</time>
      </trkpt>
      <trkpt lat="50.67861" lon="4.21026">
        <ele>75.12</ele>
        <time>2017-03-12T13:58:14Z</time>
      </trkpt>
      <trkpt lat="50.67867" lon="4.21039">
        <ele>76.08</ele>
        <time>2017-03-12T13:58:21Z</time>
      </trkpt>
      <trkpt lat="50.67874" lon="4.21047">
        <ele>75.6</ele>
        <time>2017-03-12T13:58:33Z</time>
      </trkpt>
      <trkpt lat="50.67879" lon="4.21049">
        <ele>74.16</ele>
        <time>2017-03-12T13:58:37Z</time>
      </trkpt>
      <trkpt lat="50.67899" lon="4.21068">
        <ele>72.72</ele>
        <time>2017-03-12T13:58:54Z</time>
      </trkpt>
      <trkpt lat="50.67906" lon="4.21073">
        <ele>73.2</ele>
        <time>2017-03-12T13:59:01Z</time>
      </trkpt>
      <trkpt lat="50.67908" lon="4.21074">
        <ele>73.2</ele>
        <time>2017-03-12T13:59:03Z</time>
      </trkpt>
      <trkpt lat="50.67911" lon="4.21075">
        <ele>71.76</ele>
        <time>2017-03-12T13:59:05Z</time>
      </trkpt>
      <trkpt lat="50.67925" lon="4.21078">
        <ele>70.79</ele>
        <time>2017-03-12T13:59:21Z</time>
      </trkpt>
      <trkpt lat="50.67926" lon="4.21082">
        <ele>70.79</ele>
        <time>2017-03-12T13:59:24Z</time>
      </trkpt>
      <trkpt lat="50.67925" lon="4.21091">
        <ele>70.31</ele>
        <time>2017-03-12T13:59:28Z</time>
      </trkpt>
      <trkpt lat="50.67922" lon="4.211">
        <ele>71.27</ele>
        <time>2017-03-12T13:59:33Z</time>
      </trkpt>
      <trkpt lat="50.67917" lon="4.21118">
        <ele>72.24</ele>
        <time>2017-03-12T13:59:43Z</time>
      </trkpt>
      <trkpt lat="50.67915" lon="4.21123">
        <ele>70.79</ele>
        <time>2017-03-12T13:59:46Z</time>
      </trkpt>
      <trkpt lat="50.679" lon="4.21154">
        <ele>71.27</ele>
        <time>2017-03-12T14:00:04Z</time>
      </trkpt>
      <trkpt lat="50.67896" lon="4.21163">
        <ele>73.2</ele>
        <time>2017-03-12T14:00:08Z</time>
      </trkpt>
      <trkpt lat="50.6789" lon="4.21173">
        <ele>73.68</ele>
        <time>2017-03-12T14:00:15Z</time>
      </trkpt>
      <trkpt lat="50.67886" lon="4.21181">
        <ele>71.76</ele>
        <time>2017-03-12T14:00:20Z</time>
      </trkpt>
      <trkpt lat="50.67882" lon="4.21187">
        <ele>74.64</ele>
        <time>2017-03-12T14:00:24Z</time>
      </trkpt>
      <trkpt lat="50.67881" lon="4.2119">
        <ele>72.72</ele>
        <time>2017-03-12T14:00:26Z</time>
      </trkpt>
      <trkpt lat="50.67877" lon="4.21201">
        <ele>74.16</ele>
        <time>2017-03-12T14:00:35Z</time>
      </trkpt>
      <trkpt lat="50.67872" lon="4.21211">
        <ele>72.72</ele>
        <time>2017-03-12T14:00:40Z</time>
      </trkpt>
      <trkpt lat="50.6787" lon="4.21214">
        <ele>75.6</ele>
        <time>2017-03-12T14:00:42Z</time>
      </trkpt>
      <trkpt lat="50.67869" lon="4.21218">
        <ele>75.12</ele>
        <time>2017-03-12T14:00:44Z</time>
      </trkpt>
      <trkpt lat="50.67867" lon="4.21231">
        <ele>73.68</ele>
        <time>2017-03-12T14:00:50Z</time>
      </trkpt>
      <trkpt lat="50.67869" lon="4.21251">
        <ele>75.12</ele>
        <time>2017-03-12T14:01:01Z</time>
      </trkpt>
      <trkpt lat="50.67875" lon="4.21264">
        <ele>73.68</ele>
        <time>2017-03-12T14:01:08Z</time>
      </trkpt>
      <trkpt lat="50.67876" lon="4.21267">
        <ele>75.12</ele>
        <time>2017-03-12T14:01:10Z</time>
      </trkpt>
      <trkpt lat="50.67879" lon="4.21278">
        <ele>73.68</ele>
        <time>2017-03-12T14:01:16Z</time>
      </trkpt>
      <trkpt lat="50.67884" lon="4.21305">
        <ele>74.16</ele>
        <time>2017-03-12T14:01:32Z</time>
      </trkpt>
      <trkpt lat="50.67878" lon="4.21327">
        <ele>71.76</ele>
        <time>2017-03-12T14:01:44Z</time>
      </trkpt>
      <trkpt lat="50.67873" lon="4.21344">
        <ele>72.24</ele>
        <time>2017-03-12T14:01:54Z</time>
      </trkpt>
      <trkpt lat="50.67873" lon="4.21351">
        <ele>70.79</ele>
        <time>2017-03-12T14:01:57Z</time>
      </trkpt>
      <trkpt lat="50.67864" lon="4.21386">
        <ele>68.87</ele>
        <time>2017-03-12T14:02:15Z</time>
      </trkpt>
      <trkpt lat="50.67861" lon="4.21414">
        <ele>68.39</ele>
        <time>2017-03-12T14:02:30Z</time>
      </trkpt>
      <trkpt lat="50.67861" lon="4.21431">
        <ele>66.47</ele>
        <time>2017-03-12T14:02:40Z</time>
      </trkpt>
      <trkpt lat="50.67861" lon="4.21441">
        <ele>65.99</ele>
        <time>2017-03-12T14:02:46Z</time>
      </trkpt>
      <trkpt lat="50.67863" lon="4.21448">
        <ele>65.51</ele>
        <time>2017-03-12T14:02:50Z</time>
      </trkpt>
      <trkpt lat="50.6787" lon="4.2146">
        <ele>65.51</ele>
        <time>2017-03-12T14:02:59Z</time>
      </trkpt>
      <trkpt lat="50.67873" lon="4.21483">
        <ele>65.03</ele>
        <time>2017-03-12T14:03:14Z</time>
      </trkpt>
      <trkpt lat="50.67873" lon="4.21486">
        <ele>65.03</ele>
        <time>2017-03-12T14:03:17Z</time>
      </trkpt>
      <trkpt lat="50.67874" lon="4.21494">
        <ele>63.1</ele>
        <time>2017-03-12T14:03:21Z</time>
      </trkpt>
      <trkpt lat="50.67874" lon="4.21497">
        <ele>65.51</ele>
        <time>2017-03-12T14:03:23Z</time>
      </trkpt>
      <trkpt lat="50.67874" lon="4.21503">
        <ele>63.58</ele>
        <time>2017-03-12T14:03:26Z</time>
      </trkpt>
      <trkpt lat="50.67873" lon="4.21514">
        <ele>62.14</ele>
        <time>2017-03-12T14:03:32Z</time>
      </trkpt>
      <trkpt lat="50.67873" lon="4.21518">
        <ele>64.55</ele>
        <time>2017-03-12T14:03:34Z</time>
      </trkpt>
      <trkpt lat="50.67872" lon="4.21524">
        <ele>63.1</ele>
        <time>2017-03-12T14:03:38Z</time>
      </trkpt>
      <trkpt lat="50.67866" lon="4.21554">
        <ele>62.14</ele>
        <time>2017-03-12T14:03:54Z</time>
      </trkpt>
      <trkpt lat="50.67851" lon="4.21586">
        <ele>61.18</ele>
        <time>2017-03-12T14:04:12Z</time>
      </trkpt>
      <trkpt lat="50.67846" lon="4.21595">
        <ele>62.14</ele>
        <time>2017-03-12T14:04:18Z</time>
      </trkpt>
      <trkpt lat="50.67844" lon="4.21599">
        <ele>60.7</ele>
        <time>2017-03-12T14:04:21Z</time>
      </trkpt>
      <trkpt lat="50.67839" lon="4.21609">
        <ele>60.22</ele>
        <time>2017-03-12T14:04:35Z</time>
      </trkpt>
      <trkpt lat="50.67841" lon="4.21616">
        <ele>60.22</ele>
        <time>2017-03-12T14:04:40Z</time>
      </trkpt>
      <trkpt lat="50.67841" lon="4.21632">
        <ele>60.22</ele>
        <time>2017-03-12T14:04:48Z</time>
      </trkpt>
      <trkpt lat="50.67845" lon="4.21643">
        <ele>58.78</ele>
        <time>2017-03-12T14:04:54Z</time>
      </trkpt>
      <trkpt lat="50.67852" lon="4.21646">
        <ele>59.26</ele>
        <time>2017-03-12T14:05:01Z</time>
      </trkpt>
      <trkpt lat="50.6786" lon="4.21649">
        <ele>59.26</ele>
        <time>2017-03-12T14:05:06Z</time>
      </trkpt>
      <trkpt lat="50.67869" lon="4.21652">
        <ele>57.82</ele>
        <time>2017-03-12T14:05:12Z</time>
      </trkpt>
      <trkpt lat="50.67872" lon="4.21656">
        <ele>58.78</ele>
        <time>2017-03-12T14:05:15Z</time>
      </trkpt>
      <trkpt lat="50.67874" lon="4.21659">
        <ele>57.82</ele>
        <time>2017-03-12T14:05:18Z</time>
      </trkpt>
      <trkpt lat="50.67877" lon="4.21662">
        <ele>57.82</ele>
        <time>2017-03-12T14:05:21Z</time>
      </trkpt>
      <trkpt lat="50.67896" lon="4.2168">
        <ele>56.86</ele>
        <time>2017-03-12T14:05:38Z</time>
      </trkpt>
      <trkpt lat="50.67914" lon="4.21678">
        <ele>57.82</ele>
        <time>2017-03-12T14:05:53Z</time>
      </trkpt>
      <trkpt lat="50.67917" lon="4.21676">
        <ele>55.89</ele>
        <time>2017-03-12T14:05:55Z</time>
      </trkpt>
      <trkpt lat="50.6792" lon="4.21674">
        <ele>57.34</ele>
        <time>2017-03-12T14:05:58Z</time>
      </trkpt>
      <trkpt lat="50.67922" lon="4.21672">
        <ele>55.41</ele>
        <time>2017-03-12T14:06:00Z</time>
      </trkpt>
      <trkpt lat="50.67924" lon="4.21671">
        <ele>56.86</ele>
        <time>2017-03-12T14:06:02Z</time>
      </trkpt>
      <trkpt lat="50.67947" lon="4.21658">
        <ele>57.82</ele>
        <time>2017-03-12T14:06:21Z</time>
      </trkpt>
      <trkpt lat="50.67951" lon="4.21655">
        <ele>56.37</ele>
        <time>2017-03-12T14:06:24Z</time>
      </trkpt>
      <trkpt lat="50.67957" lon="4.21647">
        <ele>57.82</ele>
        <time>2017-03-12T14:06:31Z</time>
      </trkpt>
      <trkpt lat="50.67962" lon="4.21643">
        <ele>56.37</ele>
        <time>2017-03-12T14:06:37Z</time>
      </trkpt>
      <trkpt lat="50.67979" lon="4.21633">
        <ele>57.34</ele>
        <time>2017-03-12T14:06:52Z</time>
      </trkpt>
      <trkpt lat="50.67991" lon="4.21624">
        <ele>54.93</ele>
        <time>2017-03-12T14:07:01Z</time>
      </trkpt>
      <trkpt lat="50.67994" lon="4.21622">
        <ele>56.86</ele>
        <time>2017-03-12T14:07:03Z</time>
      </trkpt>
      <trkpt lat="50.68006" lon="4.21614">
        <ele>56.37</ele>
        <time>2017-03-12T14:07:12Z</time>
      </trkpt>
      <trkpt lat="50.68007" lon="4.21613">
        <ele>54.93</ele>
        <time>2017-03-12T14:07:14Z</time>
      </trkpt>
      <trkpt lat="50.68016" lon="4.21603">
        <ele>54.93</ele>
        <time>2017-03-12T14:07:23Z</time>
      </trkpt>
      <trkpt lat="50.68035" lon="4.21589">
        <ele>53.01</ele>
        <time>2017-03-12T14:07:39Z</time>
      </trkpt>
      <trkpt lat="50.68037" lon="4.21588">
        <ele>54.93</ele>
        <time>2017-03-12T14:07:41Z</time>
      </trkpt>
      <trkpt lat="50.68042" lon="4.21583">
        <ele>53.49</ele>
        <time>2017-03-12T14:07:45Z</time>
      </trkpt>
      <trkpt lat="50.68063" lon="4.2157">
        <ele>53.97</ele>
        <time>2017-03-12T14:07:59Z</time>
      </trkpt>
      <trkpt lat="50.68068" lon="4.21566">
        <ele>52.05</ele>
        <time>2017-03-12T14:08:02Z</time>
      </trkpt>
      <trkpt lat="50.68071" lon="4.21563">
        <ele>53.97</ele>
        <time>2017-03-12T14:08:05Z</time>
      </trkpt>
      <trkpt lat="50.6808" lon="4.21557">
        <ele>52.53</ele>
        <time>2017-03-12T14:08:14Z</time>
      </trkpt>
      <trkpt lat="50.68082" lon="4.21555">
        <ele>53.01</ele>
        <time>2017-03-12T14:08:16Z</time>
      </trkpt>
      <trkpt lat="50.6809" lon="4.21548">
        <ele>53.01</ele>
        <time>2017-03-12T14:08:23Z</time>
      </trkpt>
      <trkpt lat="50.68114" lon="4.21528">
        <ele>51.09</ele>
        <time>2017-03-12T14:08:44Z</time>
      </trkpt>
      <trkpt lat="50.68129" lon="4.21512">
        <ele>51.09</ele>
        <time>2017-03-12T14:08:57Z</time>
      </trkpt>
      <trkpt lat="50.68135" lon="4.21508">
        <ele>51.09</ele>
        <time>2017-03-12T14:09:02Z</time>
      </trkpt>
      <trkpt lat="50.68139" lon="4.21506">
        <ele>51.57</ele>
        <time>2017-03-12T14:09:06Z</time>
      </trkpt>
      <trkpt lat="50.68144" lon="4.21503">
        <ele>50.13</ele>
        <time>2017-03-12T14:09:10Z</time>
      </trkpt>
      <trkpt lat="50.68165" lon="4.21486">
        <ele>51.09</ele>
        <time>2017-03-12T14:09:29Z</time>
      </trkpt>
      <trkpt lat="50.68177" lon="4.21479">
        <ele>51.57</ele>
        <time>2017-03-12T14:09:40Z</time>
      </trkpt>
      <trkpt lat="50.68183" lon="4.21476">
        <ele>49.16</ele>
        <time>2017-03-12T14:09:44Z</time>
      </trkpt>
      <trkpt lat="50.68186" lon="4.21473">
        <ele>50.61</ele>
        <time>2017-03-12T14:09:46Z</time>
      </trkpt>
      <trkpt lat="50.68196" lon="4.21465">
        <ele>49.65</ele>
        <time>2017-03-12T14:09:56Z</time>
      </trkpt>
      <trkpt lat="50.68207" lon="4.21458">
        <ele>49.16</ele>
        <time>2017-03-12T14:10:03Z</time>
      </trkpt>
      <trkpt lat="50.68213" lon="4.21455">
        <ele>50.61</ele>
        <time>2017-03-12T14:10:09Z</time>
      </trkpt>
      <trkpt lat="50.68224" lon="4.21444">
        <ele>49.16</ele>
        <time>2017-03-12T14:10:18Z</time>
      </trkpt>
      <trkpt lat="50.68227" lon="4.21441">
        <ele>51.09</ele>
        <time>2017-03-12T14:10:20Z</time>
      </trkpt>
      <trkpt lat="50.68231" lon="4.21438">
        <ele>49.65</ele>
        <time>2017-03-12T14:10:23Z</time>
      </trkpt>
      <trkpt lat="50.68246" lon="4.21426">
        <ele>48.68</ele>
        <time>2017-03-12T14:10:37Z</time>
      </trkpt>
      <trkpt lat="50.68249" lon="4.21424">
        <ele>51.09</ele>
        <time>2017-03-12T14:10:40Z</time>
      </trkpt>
      <trkpt lat="50.68265" lon="4.21409">
        <ele>48.68</ele>
        <time>2017-03-12T14:10:55Z</time>
      </trkpt>
      <trkpt lat="50.68267" lon="4.21409">
        <ele>51.09</ele>
        <time>2017-03-12T14:10:57Z</time>
      </trkpt>
      <trkpt lat="50.68278" lon="4.21402">
        <ele>50.13</ele>
        <time>2017-03-12T14:11:05Z</time>
      </trkpt>
      <trkpt lat="50.6828" lon="4.21401">
        <ele>51.57</ele>
        <time>2017-03-12T14:11:07Z</time>
      </trkpt>
      <trkpt lat="50.68282" lon="4.21399">
        <ele>50.13</ele>
        <time>2017-03-12T14:11:09Z</time>
      </trkpt>
      <trkpt lat="50.68288" lon="4.21395">
        <ele>52.05</ele>
        <time>2017-03-12T14:11:15Z</time>
      </trkpt>
      <trkpt lat="50.68293" lon="4.21391">
        <ele>50.61</ele>
        <time>2017-03-12T14:11:19Z</time>
      </trkpt>
      <trkpt lat="50.68299" lon="4.21388">
        <ele>52.05</ele>
        <time>2017-03-12T14:11:23Z</time>
      </trkpt>
      <trkpt lat="50.68301" lon="4.21387">
        <ele>50.61</ele>
        <time>2017-03-12T14:11:25Z</time>
      </trkpt>
      <trkpt lat="50.68308" lon="4.2138">
        <ele>52.05</ele>
        <time>2017-03-12T14:11:32Z</time>
      </trkpt>
      <trkpt lat="50.68316" lon="4.21376">
        <ele>50.13</ele>
        <time>2017-03-12T14:11:39Z</time>
      </trkpt>
      <trkpt lat="50.68336" lon="4.21358">
        <ele>52.53</ele>
        <time>2017-03-12T14:11:56Z</time>
      </trkpt>
      <trkpt lat="50.6836" lon="4.21341">
        <ele>53.01</ele>
        <time>2017-03-12T14:12:17Z</time>
      </trkpt>
      <trkpt lat="50.68361" lon="4.2134">
        <ele>52.53</ele>
        <time>2017-03-12T14:12:18Z</time>
      </trkpt>
      <trkpt lat="50.68367" lon="4.21336">
        <ele>51.09</ele>
        <time>2017-03-12T14:12:23Z</time>
      </trkpt>
      <trkpt lat="50.68373" lon="4.21334">
        <ele>52.53</ele>
        <time>2017-03-12T14:12:28Z</time>
      </trkpt>
      <trkpt lat="50.68386" lon="4.2133">
        <ele>51.57</ele>
        <time>2017-03-12T14:12:41Z</time>
      </trkpt>
      <trkpt lat="50.68393" lon="4.21326">
        <ele>51.57</ele>
        <time>2017-03-12T14:13:05Z</time>
      </trkpt>
      <trkpt lat="50.68407" lon="4.21323">
        <ele>52.05</ele>
        <time>2017-03-12T14:13:15Z</time>
      </trkpt>
      <trkpt lat="50.68419" lon="4.21321">
        <ele>49.65</ele>
        <time>2017-03-12T14:13:24Z</time>
      </trkpt>
      <trkpt lat="50.68444" lon="4.21314">
        <ele>48.68</ele>
        <time>2017-03-12T14:13:44Z</time>
      </trkpt>
      <trkpt lat="50.68464" lon="4.21311">
        <ele>48.2</ele>
        <time>2017-03-12T14:14:01Z</time>
      </trkpt>
      <trkpt lat="50.68478" lon="4.21305">
        <ele>47.24</ele>
        <time>2017-03-12T14:14:15Z</time>
      </trkpt>
      <trkpt lat="50.68504" lon="4.21294">
        <ele>46.76</ele>
        <time>2017-03-12T14:14:34Z</time>
      </trkpt>
      <trkpt lat="50.68511" lon="4.21291">
        <ele>47.24</ele>
        <time>2017-03-12T14:14:39Z</time>
      </trkpt>
      <trkpt lat="50.68515" lon="4.21287">
        <ele>45.8</ele>
        <time>2017-03-12T14:14:43Z</time>
      </trkpt>
      <trkpt lat="50.68523" lon="4.21286">
        <ele>45.32</ele>
        <time>2017-03-12T14:14:49Z</time>
      </trkpt>
      <trkpt lat="50.68528" lon="4.21286">
        <ele>45.32</ele>
        <time>2017-03-12T14:14:53Z</time>
      </trkpt>
      <trkpt lat="50.68536" lon="4.21287">
        <ele>44.36</ele>
        <time>2017-03-12T14:14:59Z</time>
      </trkpt>
      <trkpt lat="50.68538" lon="4.21288">
        <ele>45.8</ele>
        <time>2017-03-12T14:15:01Z</time>
      </trkpt>
      <trkpt lat="50.68558" lon="4.21291">
        <ele>43.88</ele>
        <time>2017-03-12T14:15:17Z</time>
      </trkpt>
      <trkpt lat="50.68581" lon="4.21293">
        <ele>41.47</ele>
        <time>2017-03-12T14:15:36Z</time>
      </trkpt>
      <trkpt lat="50.68596" lon="4.21302">
        <ele>39.55</ele>
        <time>2017-03-12T14:15:49Z</time>
      </trkpt>
      <trkpt lat="50.68604" lon="4.21308">
        <ele>39.07</ele>
        <time>2017-03-12T14:15:58Z</time>
      </trkpt>
      <trkpt lat="50.68628" lon="4.21327">
        <ele>37.63</ele>
        <time>2017-03-12T14:16:19Z</time>
      </trkpt>
      <trkpt lat="50.68638" lon="4.2133">
        <ele>36.67</ele>
        <time>2017-03-12T14:16:27Z</time>
      </trkpt>
      <trkpt lat="50.68652" lon="4.21333">
        <ele>38.11</ele>
        <time>2017-03-12T14:16:39Z</time>
      </trkpt>
      <trkpt lat="50.68661" lon="4.21328">
        <ele>38.11</ele>
        <time>2017-03-12T14:16:50Z</time>
      </trkpt>
      <trkpt lat="50.68664" lon="4.21326">
        <ele>39.55</ele>
        <time>2017-03-12T14:16:52Z</time>
      </trkpt>
      <trkpt lat="50.68675" lon="4.21315">
        <ele>39.07</ele>
        <time>2017-03-12T14:16:57Z</time>
      </trkpt>
      <trkpt lat="50.68689" lon="4.21303">
        <ele>40.51</ele>
        <time>2017-03-12T14:17:04Z</time>
      </trkpt>
      <trkpt lat="50.68688" lon="4.21303">
        <ele>39.07</ele>
        <time>2017-03-12T14:17:06Z</time>
      </trkpt>
      <trkpt lat="50.68689" lon="4.21299">
        <ele>41.95</ele>
        <time>2017-03-12T14:17:15Z</time>
      </trkpt>
      <trkpt lat="50.68691" lon="4.21292">
        <ele>40.99</ele>
        <time>2017-03-12T14:17:21Z</time>
      </trkpt>
      <trkpt lat="50.68692" lon="4.21289">
        <ele>42.92</ele>
        <time>2017-03-12T14:17:23Z</time>
      </trkpt>
      <trkpt lat="50.68693" lon="4.21287">
        <ele>40.51</ele>
        <time>2017-03-12T14:17:25Z</time>
      </trkpt>
      <trkpt lat="50.68695" lon="4.21283">
        <ele>43.88</ele>
        <time>2017-03-12T14:17:27Z</time>
      </trkpt>
      <trkpt lat="50.68696" lon="4.21282">
        <ele>43.88</ele>
        <time>2017-03-12T14:17:28Z</time>
      </trkpt>
      <trkpt lat="50.687" lon="4.21274">
        <ele>42.44</ele>
        <time>2017-03-12T14:17:33Z</time>
      </trkpt>
      <trkpt lat="50.68703" lon="4.21269">
        <ele>43.88</ele>
        <time>2017-03-12T14:17:36Z</time>
      </trkpt>
      <trkpt lat="50.68709" lon="4.21244">
        <ele>45.8</ele>
        <time>2017-03-12T14:17:50Z</time>
      </trkpt>
      <trkpt lat="50.68709" lon="4.21242">
        <ele>44.36</ele>
        <time>2017-03-12T14:17:52Z</time>
      </trkpt>
      <trkpt lat="50.68712" lon="4.21234">
        <ele>46.76</ele>
        <time>2017-03-12T14:17:58Z</time>
      </trkpt>
      <trkpt lat="50.68728" lon="4.21218">
        <ele>47.24</ele>
        <time>2017-03-12T14:18:06Z</time>
      </trkpt>
      <trkpt lat="50.68731" lon="4.21208">
        <ele>43.4</ele>
        <time>2017-03-12T14:18:13Z</time>
      </trkpt>
      <trkpt lat="50.6873" lon="4.21207">
        <ele>48.68</ele>
        <time>2017-03-12T14:18:14Z</time>
      </trkpt>
      <trkpt lat="50.68729" lon="4.21207">
        <ele>48.68</ele>
        <time>2017-03-12T14:18:15Z</time>
      </trkpt>
      <trkpt lat="50.6873" lon="4.21203">
        <ele>47.72</ele>
        <time>2017-03-12T14:18:18Z</time>
      </trkpt>
      <trkpt lat="50.68739" lon="4.2119">
        <ele>47.72</ele>
        <time>2017-03-12T14:18:28Z</time>
      </trkpt>
      <trkpt lat="50.68747" lon="4.21178">
        <ele>48.2</ele>
        <time>2017-03-12T14:18:37Z</time>
      </trkpt>
      <trkpt lat="50.68748" lon="4.21175">
        <ele>50.61</ele>
        <time>2017-03-12T14:18:39Z</time>
      </trkpt>
      <trkpt lat="50.68752" lon="4.2116">
        <ele>51.57</ele>
        <time>2017-03-12T14:18:48Z</time>
      </trkpt>
      <trkpt lat="50.68753" lon="4.21155">
        <ele>49.65</ele>
        <time>2017-03-12T14:18:50Z</time>
      </trkpt>
      <trkpt lat="50.68761" lon="4.21134">
        <ele>53.49</ele>
        <time>2017-03-12T14:19:03Z</time>
      </trkpt>
      <trkpt lat="50.68775" lon="4.21107">
        <ele>54.93</ele>
        <time>2017-03-12T14:19:22Z</time>
      </trkpt>
      <trkpt lat="50.68777" lon="4.21103">
        <ele>53.49</ele>
        <time>2017-03-12T14:19:26Z</time>
      </trkpt>
      <trkpt lat="50.68786" lon="4.21075">
        <ele>54.45</ele>
        <time>2017-03-12T14:19:42Z</time>
      </trkpt>
      <trkpt lat="50.68787" lon="4.21072">
        <ele>56.37</ele>
        <time>2017-03-12T14:19:44Z</time>
      </trkpt>
      <trkpt lat="50.68803" lon="4.21045">
        <ele>57.82</ele>
        <time>2017-03-12T14:20:02Z</time>
      </trkpt>
      <trkpt lat="50.68811" lon="4.21033">
        <ele>57.82</ele>
        <time>2017-03-12T14:20:10Z</time>
      </trkpt>
      <trkpt lat="50.68816" lon="4.21019">
        <ele>60.22</ele>
        <time>2017-03-12T14:20:27Z</time>
      </trkpt>
      <trkpt lat="50.68817" lon="4.21015">
        <ele>60.7</ele>
        <time>2017-03-12T14:20:31Z</time>
      </trkpt>
      <trkpt lat="50.68819" lon="4.21012">
        <ele>59.26</ele>
        <time>2017-03-12T14:20:33Z</time>
      </trkpt>
      <trkpt lat="50.6882" lon="4.2101">
        <ele>60.7</ele>
        <time>2017-03-12T14:20:35Z</time>
      </trkpt>
      <trkpt lat="50.68821" lon="4.21008">
        <ele>58.3</ele>
        <time>2017-03-12T14:20:37Z</time>
      </trkpt>
      <trkpt lat="50.68821" lon="4.21007">
        <ele>61.18</ele>
        <time>2017-03-12T14:20:39Z</time>
      </trkpt>
      <trkpt lat="50.68821" lon="4.21">
        <ele>59.26</ele>
        <time>2017-03-12T14:20:44Z</time>
      </trkpt>
      <trkpt lat="50.68824" lon="4.20995">
        <ele>62.14</ele>
        <time>2017-03-12T14:20:46Z</time>
      </trkpt>
      <trkpt lat="50.68827" lon="4.20993">
        <ele>62.14</ele>
        <time>2017-03-12T14:20:47Z</time>
      </trkpt>
      <trkpt lat="50.6884" lon="4.20975">
        <ele>63.1</ele>
        <time>2017-03-12T14:20:56Z</time>
      </trkpt>
      <trkpt lat="50.68857" lon="4.20935">
        <ele>63.58</ele>
        <time>2017-03-12T14:21:15Z</time>
      </trkpt>
      <trkpt lat="50.68857" lon="4.20924">
        <ele>65.03</ele>
        <time>2017-03-12T14:21:20Z</time>
      </trkpt>
      <trkpt lat="50.68857" lon="4.2092">
        <ele>63.58</ele>
        <time>2017-03-12T14:21:22Z</time>
      </trkpt>
      <trkpt lat="50.68856" lon="4.20916">
        <ele>65.03</ele>
        <time>2017-03-12T14:21:24Z</time>
      </trkpt>
      <trkpt lat="50.68855" lon="4.20912">
        <ele>63.58</ele>
        <time>2017-03-12T14:21:26Z</time>
      </trkpt>
      <trkpt lat="50.68855" lon="4.20905">
        <ele>65.03</ele>
        <time>2017-03-12T14:21:29Z</time>
      </trkpt>
      <trkpt lat="50.68855" lon="4.20901">
        <ele>64.07</ele>
        <time>2017-03-12T14:21:31Z</time>
      </trkpt>
      <trkpt lat="50.68855" lon="4.20898">
        <ele>65.51</ele>
        <time>2017-03-12T14:21:33Z</time>
      </trkpt>
      <trkpt lat="50.68855" lon="4.20894">
        <ele>64.07</ele>
        <time>2017-03-12T14:21:35Z</time>
      </trkpt>
      <trkpt lat="50.68854" lon="4.20884">
        <ele>64.07</ele>
        <time>2017-03-12T14:21:40Z</time>
      </trkpt>
      <trkpt lat="50.68853" lon="4.20868">
        <ele>65.99</ele>
        <time>2017-03-12T14:21:48Z</time>
      </trkpt>
      <trkpt lat="50.68853" lon="4.20857">
        <ele>64.07</ele>
        <time>2017-03-12T14:21:54Z</time>
      </trkpt>
      <trkpt lat="50.68855" lon="4.20852">
        <ele>65.99</ele>
        <time>2017-03-12T14:21:57Z</time>
      </trkpt>
      <trkpt lat="50.68858" lon="4.20837">
        <ele>65.03</ele>
        <time>2017-03-12T14:22:12Z</time>
      </trkpt>
      <trkpt lat="50.68863" lon="4.20832">
        <ele>64.07</ele>
        <time>2017-03-12T14:22:24Z</time>
      </trkpt>
      <trkpt lat="50.68867" lon="4.20826">
        <ele>65.51</ele>
        <time>2017-03-12T14:22:28Z</time>
      </trkpt>
      <trkpt lat="50.68847" lon="4.20818">
        <ele>65.51</ele>
        <time>2017-03-12T14:22:45Z</time>
      </trkpt>
      <trkpt lat="50.68839" lon="4.20795">
        <ele>65.99</ele>
        <time>2017-03-12T14:23:05Z</time>
      </trkpt>
      <trkpt lat="50.68839" lon="4.20792">
        <ele>64.55</ele>
        <time>2017-03-12T14:23:07Z</time>
      </trkpt>
      <trkpt lat="50.68838" lon="4.2079">
        <ele>64.55</ele>
        <time>2017-03-12T14:23:08Z</time>
      </trkpt>
      <trkpt lat="50.68836" lon="4.20784">
        <ele>64.55</ele>
        <time>2017-03-12T14:23:10Z</time>
      </trkpt>
      <trkpt lat="50.68853" lon="4.20766">
        <ele>64.55</ele>
        <time>2017-03-12T14:23:14Z</time>
      </trkpt>
      <trkpt lat="50.68857" lon="4.20759">
        <ele>65.99</ele>
        <time>2017-03-12T14:23:18Z</time>
      </trkpt>
      <trkpt lat="50.68858" lon="4.20753">
        <ele>64.07</ele>
        <time>2017-03-12T14:23:21Z</time>
      </trkpt>
      <trkpt lat="50.68866" lon="4.20728">
        <ele>64.55</ele>
        <time>2017-03-12T14:23:35Z</time>
      </trkpt>
      <trkpt lat="50.68856" lon="4.20697">
        <ele>63.58</ele>
        <time>2017-03-12T14:23:50Z</time>
      </trkpt>
      <trkpt lat="50.6884" lon="4.20669">
        <ele>62.62</ele>
        <time>2017-03-12T14:24:08Z</time>
      </trkpt>
      <trkpt lat="50.68833" lon="4.20659">
        <ele>61.66</ele>
        <time>2017-03-12T14:24:25Z</time>
      </trkpt>
      <trkpt lat="50.6882" lon="4.20655">
        <ele>60.7</ele>
        <time>2017-03-12T14:24:46Z</time>
      </trkpt>
      <trkpt lat="50.68813" lon="4.20654">
        <ele>62.62</ele>
        <time>2017-03-12T14:24:50Z</time>
      </trkpt>
      <trkpt lat="50.68808" lon="4.20649">
        <ele>61.18</ele>
        <time>2017-03-12T14:24:53Z</time>
      </trkpt>
      <trkpt lat="50.688" lon="4.20649">
        <ele>62.62</ele>
        <time>2017-03-12T14:25:02Z</time>
      </trkpt>
      <trkpt lat="50.68782" lon="4.20657">
        <ele>61.66</ele>
        <time>2017-03-12T14:25:19Z</time>
      </trkpt>
      <trkpt lat="50.68779" lon="4.20658">
        <ele>63.58</ele>
        <time>2017-03-12T14:25:22Z</time>
      </trkpt>
      <trkpt lat="50.6875" lon="4.2068">
        <ele>62.14</ele>
        <time>2017-03-12T14:25:44Z</time>
      </trkpt>
      <trkpt lat="50.68743" lon="4.20688">
        <ele>62.62</ele>
        <time>2017-03-12T14:25:50Z</time>
      </trkpt>
      <trkpt lat="50.6874" lon="4.2069">
        <ele>64.07</ele>
        <time>2017-03-12T14:25:52Z</time>
      </trkpt>
      <trkpt lat="50.68737" lon="4.20693">
        <ele>62.14</ele>
        <time>2017-03-12T14:25:55Z</time>
      </trkpt>
      <trkpt lat="50.68732" lon="4.20692">
        <ele>64.55</ele>
        <time>2017-03-12T14:25:58Z</time>
      </trkpt>
      <trkpt lat="50.6873" lon="4.20695">
        <ele>63.1</ele>
        <time>2017-03-12T14:26:00Z</time>
      </trkpt>
      <trkpt lat="50.68725" lon="4.20701">
        <ele>64.07</ele>
        <time>2017-03-12T14:26:07Z</time>
      </trkpt>
      <trkpt lat="50.68704" lon="4.20705">
        <ele>64.55</ele>
        <time>2017-03-12T14:26:26Z</time>
      </trkpt>
      <trkpt lat="50.68699" lon="4.20704">
        <ele>62.62</ele>
        <time>2017-03-12T14:26:29Z</time>
      </trkpt>
      <trkpt lat="50.68698" lon="4.20703">
        <ele>64.07</ele>
        <time>2017-03-12T14:26:30Z</time>
      </trkpt>
      <trkpt lat="50.68689" lon="4.2071">
        <ele>64.55</ele>
        <time>2017-03-12T14:26:34Z</time>
      </trkpt>
      <trkpt lat="50.68676" lon="4.20721">
        <ele>64.55</ele>
        <time>2017-03-12T14:26:45Z</time>
      </trkpt>
      <trkpt lat="50.68674" lon="4.20721">
        <ele>63.1</ele>
        <time>2017-03-12T14:26:47Z</time>
      </trkpt>
      <trkpt lat="50.68667" lon="4.20721">
        <ele>64.55</ele>
        <time>2017-03-12T14:26:58Z</time>
      </trkpt>
      <trkpt lat="50.68656" lon="4.20722">
        <ele>62.62</ele>
        <time>2017-03-12T14:27:08Z</time>
      </trkpt>
      <trkpt lat="50.68653" lon="4.20726">
        <ele>64.55</ele>
        <time>2017-03-12T14:27:11Z</time>
      </trkpt>
      <trkpt lat="50.68644" lon="4.2073">
        <ele>63.1</ele>
        <time>2017-03-12T14:27:19Z</time>
      </trkpt>
      <trkpt lat="50.68639" lon="4.20729">
        <ele>64.55</ele>
        <time>2017-03-12T14:27:24Z</time>
      </trkpt>
      <trkpt lat="50.68638" lon="4.20729">
        <ele>64.55</ele>
        <time>2017-03-12T14:27:25Z</time>
      </trkpt>
      <trkpt lat="50.68634" lon="4.20725">
        <ele>63.1</ele>
        <time>2017-03-12T14:27:29Z</time>
      </trkpt>
      <trkpt lat="50.68624" lon="4.20722">
        <ele>64.55</ele>
        <time>2017-03-12T14:27:38Z</time>
      </trkpt>
      <trkpt lat="50.68619" lon="4.20733">
        <ele>63.58</ele>
        <time>2017-03-12T14:27:40Z</time>
      </trkpt>
      <trkpt lat="50.68598" lon="4.20761">
        <ele>64.55</ele>
        <time>2017-03-12T14:27:52Z</time>
      </trkpt>
      <trkpt lat="50.68593" lon="4.20764">
        <ele>63.58</ele>
        <time>2017-03-12T14:27:55Z</time>
      </trkpt>
      <trkpt lat="50.68585" lon="4.20769">
        <ele>64.07</ele>
        <time>2017-03-12T14:28:00Z</time>
      </trkpt>
      <trkpt lat="50.6858" lon="4.20774">
        <ele>62.62</ele>
        <time>2017-03-12T14:28:03Z</time>
      </trkpt>
      <trkpt lat="50.6857" lon="4.20784">
        <ele>63.1</ele>
        <time>2017-03-12T14:28:12Z</time>
      </trkpt>
      <trkpt lat="50.68549" lon="4.20787">
        <ele>62.14</ele>
        <time>2017-03-12T14:28:32Z</time>
      </trkpt>
      <trkpt lat="50.68544" lon="4.20798">
        <ele>63.58</ele>
        <time>2017-03-12T14:28:35Z</time>
      </trkpt>
      <trkpt lat="50.68534" lon="4.20804">
        <ele>62.14</ele>
        <time>2017-03-12T14:28:43Z</time>
      </trkpt>
      <trkpt lat="50.68531" lon="4.20804">
        <ele>63.58</ele>
        <time>2017-03-12T14:28:45Z</time>
      </trkpt>
      <trkpt lat="50.68522" lon="4.20808">
        <ele>62.62</ele>
        <time>2017-03-12T14:28:51Z</time>
      </trkpt>
      <trkpt lat="50.6851" lon="4.20814">
        <ele>63.58</ele>
        <time>2017-03-12T14:29:01Z</time>
      </trkpt>
      <trkpt lat="50.68495" lon="4.20822">
        <ele>64.07</ele>
        <time>2017-03-12T14:29:13Z</time>
      </trkpt>
      <trkpt lat="50.68492" lon="4.20822">
        <ele>63.1</ele>
        <time>2017-03-12T14:29:16Z</time>
      </trkpt>
      <trkpt lat="50.68483" lon="4.20824">
        <ele>64.07</ele>
        <time>2017-03-12T14:29:26Z</time>
      </trkpt>
      <trkpt lat="50.68468" lon="4.20834">
        <ele>62.62</ele>
        <time>2017-03-12T14:29:36Z</time>
      </trkpt>
      <trkpt lat="50.68458" lon="4.20843">
        <ele>62.14</ele>
        <time>2017-03-12T14:29:44Z</time>
      </trkpt>
      <trkpt lat="50.68444" lon="4.20852">
        <ele>63.1</ele>
        <time>2017-03-12T14:29:57Z</time>
      </trkpt>
      <trkpt lat="50.68442" lon="4.20853">
        <ele>63.1</ele>
        <time>2017-03-12T14:29:59Z</time>
      </trkpt>
      <trkpt lat="50.68437" lon="4.20852">
        <ele>61.18</ele>
        <time>2017-03-12T14:30:02Z</time>
      </trkpt>
      <trkpt lat="50.68433" lon="4.20852">
        <ele>62.62</ele>
        <time>2017-03-12T14:30:05Z</time>
      </trkpt>
      <trkpt lat="50.68419" lon="4.20856">
        <ele>61.18</ele>
        <time>2017-03-12T14:30:18Z</time>
      </trkpt>
      <trkpt lat="50.68394" lon="4.20874">
        <ele>60.22</ele>
        <time>2017-03-12T14:30:38Z</time>
      </trkpt>
      <trkpt lat="50.68392" lon="4.20877">
        <ele>62.14</ele>
        <time>2017-03-12T14:30:40Z</time>
      </trkpt>
      <trkpt lat="50.68375" lon="4.20898">
        <ele>61.18</ele>
        <time>2017-03-12T14:30:57Z</time>
      </trkpt>
      <trkpt lat="50.68372" lon="4.20901">
        <ele>59.74</ele>
        <time>2017-03-12T14:31:01Z</time>
      </trkpt>
      <trkpt lat="50.68367" lon="4.20902">
        <ele>61.18</ele>
        <time>2017-03-12T14:31:05Z</time>
      </trkpt>
      <trkpt lat="50.68363" lon="4.20901">
        <ele>59.74</ele>
        <time>2017-03-12T14:31:09Z</time>
      </trkpt>
      <trkpt lat="50.68342" lon="4.20907">
        <ele>59.26</ele>
        <time>2017-03-12T14:31:27Z</time>
      </trkpt>
      <trkpt lat="50.68316" lon="4.20925">
        <ele>59.26</ele>
        <time>2017-03-12T14:31:45Z</time>
      </trkpt>
      <trkpt lat="50.68298" lon="4.20925">
        <ele>59.74</ele>
        <time>2017-03-12T14:32:00Z</time>
      </trkpt>
      <trkpt lat="50.68296" lon="4.20928">
        <ele>58.3</ele>
        <time>2017-03-12T14:32:02Z</time>
      </trkpt>
      <trkpt lat="50.68292" lon="4.20929">
        <ele>60.7</ele>
        <time>2017-03-12T14:32:06Z</time>
      </trkpt>
      <trkpt lat="50.6829" lon="4.20925">
        <ele>58.78</ele>
        <time>2017-03-12T14:32:08Z</time>
      </trkpt>
      <trkpt lat="50.68284" lon="4.2091">
        <ele>59.26</ele>
        <time>2017-03-12T14:32:18Z</time>
      </trkpt>
      <trkpt lat="50.68265" lon="4.20893">
        <ele>58.78</ele>
        <time>2017-03-12T14:32:35Z</time>
      </trkpt>
      <trkpt lat="50.68263" lon="4.20891">
        <ele>60.22</ele>
        <time>2017-03-12T14:32:38Z</time>
      </trkpt>
      <trkpt lat="50.68246" lon="4.20898">
        <ele>59.26</ele>
        <time>2017-03-12T14:32:50Z</time>
      </trkpt>
      <trkpt lat="50.68237" lon="4.209">
        <ele>58.78</ele>
        <time>2017-03-12T14:32:58Z</time>
      </trkpt>
      <trkpt lat="50.68226" lon="4.2089">
        <ele>58.78</ele>
        <time>2017-03-12T14:33:05Z</time>
      </trkpt>
      <trkpt lat="50.68223" lon="4.20887">
        <ele>60.7</ele>
        <time>2017-03-12T14:33:07Z</time>
      </trkpt>
      <trkpt lat="50.68219" lon="4.2088">
        <ele>58.78</ele>
        <time>2017-03-12T14:33:09Z</time>
      </trkpt>
      <trkpt lat="50.68218" lon="4.20878">
        <ele>60.7</ele>
        <time>2017-03-12T14:33:11Z</time>
      </trkpt>
      <trkpt lat="50.68213" lon="4.20876">
        <ele>59.26</ele>
        <time>2017-03-12T14:33:15Z</time>
      </trkpt>
      <trkpt lat="50.68198" lon="4.2087">
        <ele>58.78</ele>
        <time>2017-03-12T14:33:28Z</time>
      </trkpt>
      <trkpt lat="50.68196" lon="4.2087">
        <ele>60.7</ele>
        <time>2017-03-12T14:33:30Z</time>
      </trkpt>
      <trkpt lat="50.68186" lon="4.20871">
        <ele>59.26</ele>
        <time>2017-03-12T14:33:36Z</time>
      </trkpt>
      <trkpt lat="50.68182" lon="4.20871">
        <ele>60.7</ele>
        <time>2017-03-12T14:33:38Z</time>
      </trkpt>
      <trkpt lat="50.6817" lon="4.20876">
        <ele>61.18</ele>
        <time>2017-03-12T14:33:46Z</time>
      </trkpt>
      <trkpt lat="50.68159" lon="4.20881">
        <ele>59.74</ele>
        <time>2017-03-12T14:33:56Z</time>
      </trkpt>
      <trkpt lat="50.68139" lon="4.20884">
        <ele>59.74</ele>
        <time>2017-03-12T14:34:07Z</time>
      </trkpt>
      <trkpt lat="50.68132" lon="4.20884">
        <ele>62.14</ele>
        <time>2017-03-12T14:34:10Z</time>
      </trkpt>
      <trkpt lat="50.68127" lon="4.20886">
        <ele>59.74</ele>
        <time>2017-03-12T14:34:15Z</time>
      </trkpt>
      <trkpt lat="50.68124" lon="4.20886">
        <ele>61.66</ele>
        <time>2017-03-12T14:34:17Z</time>
      </trkpt>
      <trkpt lat="50.68121" lon="4.20887">
        <ele>60.22</ele>
        <time>2017-03-12T14:34:20Z</time>
      </trkpt>
      <trkpt lat="50.68118" lon="4.20888">
        <ele>61.66</ele>
        <time>2017-03-12T14:34:22Z</time>
      </trkpt>
      <trkpt lat="50.68112" lon="4.2089">
        <ele>60.22</ele>
        <time>2017-03-12T14:34:26Z</time>
      </trkpt>
      <trkpt lat="50.68109" lon="4.20893">
        <ele>62.14</ele>
        <time>2017-03-12T14:34:28Z</time>
      </trkpt>
      <trkpt lat="50.68092" lon="4.20898">
        <ele>60.22</ele>
        <time>2017-03-12T14:34:42Z</time>
      </trkpt>
      <trkpt lat="50.68078" lon="4.20899">
        <ele>58.78</ele>
        <time>2017-03-12T14:34:55Z</time>
      </trkpt>
      <trkpt lat="50.68075" lon="4.209">
        <ele>60.7</ele>
        <time>2017-03-12T14:34:57Z</time>
      </trkpt>
      <trkpt lat="50.68072" lon="4.20898">
        <ele>59.26</ele>
        <time>2017-03-12T14:35:00Z</time>
      </trkpt>
      <trkpt lat="50.68053" lon="4.20904">
        <ele>59.26</ele>
        <time>2017-03-12T14:35:16Z</time>
      </trkpt>
      <trkpt lat="50.68041" lon="4.20894">
        <ele>58.3</ele>
        <time>2017-03-12T14:35:29Z</time>
      </trkpt>
      <trkpt lat="50.68037" lon="4.20888">
        <ele>60.22</ele>
        <time>2017-03-12T14:35:32Z</time>
      </trkpt>
      <trkpt lat="50.68032" lon="4.20884">
        <ele>58.78</ele>
        <time>2017-03-12T14:35:36Z</time>
      </trkpt>
      <trkpt lat="50.68024" lon="4.20878">
        <ele>60.22</ele>
        <time>2017-03-12T14:35:44Z</time>
      </trkpt>
      <trkpt lat="50.67999" lon="4.20882">
        <ele>58.78</ele>
        <time>2017-03-12T14:35:58Z</time>
      </trkpt>
      <trkpt lat="50.67994" lon="4.20883">
        <ele>60.22</ele>
        <time>2017-03-12T14:36:01Z</time>
      </trkpt>
      <trkpt lat="50.67989" lon="4.20884">
        <ele>58.78</ele>
        <time>2017-03-12T14:36:04Z</time>
      </trkpt>
      <trkpt lat="50.67985" lon="4.20881">
        <ele>61.18</ele>
        <time>2017-03-12T14:36:07Z</time>
      </trkpt>
      <trkpt lat="50.67981" lon="4.2088">
        <ele>59.74</ele>
        <time>2017-03-12T14:36:10Z</time>
      </trkpt>
      <trkpt lat="50.6797" lon="4.2088">
        <ele>60.7</ele>
        <time>2017-03-12T14:36:17Z</time>
      </trkpt>
      <trkpt lat="50.67959" lon="4.20874">
        <ele>62.14</ele>
        <time>2017-03-12T14:36:27Z</time>
      </trkpt>
      <trkpt lat="50.67957" lon="4.20873">
        <ele>60.22</ele>
        <time>2017-03-12T14:36:29Z</time>
      </trkpt>
      <trkpt lat="50.67939" lon="4.20858">
        <ele>62.14</ele>
        <time>2017-03-12T14:36:48Z</time>
      </trkpt>
      <trkpt lat="50.67937" lon="4.20856">
        <ele>60.22</ele>
        <time>2017-03-12T14:36:50Z</time>
      </trkpt>
      <trkpt lat="50.67936" lon="4.20854">
        <ele>62.14</ele>
        <time>2017-03-12T14:36:52Z</time>
      </trkpt>
      <trkpt lat="50.67931" lon="4.20844">
        <ele>60.7</ele>
        <time>2017-03-12T14:37:03Z</time>
      </trkpt>
      <trkpt lat="50.67927" lon="4.20832">
        <ele>61.66</ele>
        <time>2017-03-12T14:37:08Z</time>
      </trkpt>
      <trkpt lat="50.67923" lon="4.20814">
        <ele>61.18</ele>
        <time>2017-03-12T14:37:22Z</time>
      </trkpt>
      <trkpt lat="50.67903" lon="4.20796">
        <ele>61.18</ele>
        <time>2017-03-12T14:37:40Z</time>
      </trkpt>
      <trkpt lat="50.6788" lon="4.20785">
        <ele>61.66</ele>
        <time>2017-03-12T14:38:01Z</time>
      </trkpt>
      <trkpt lat="50.67875" lon="4.20784">
        <ele>62.62</ele>
        <time>2017-03-12T14:38:05Z</time>
      </trkpt>
      <trkpt lat="50.67873" lon="4.20783">
        <ele>61.18</ele>
        <time>2017-03-12T14:38:07Z</time>
      </trkpt>
      <trkpt lat="50.67867" lon="4.20779">
        <ele>62.62</ele>
        <time>2017-03-12T14:38:14Z</time>
      </trkpt>
      <trkpt lat="50.67863" lon="4.20776">
        <ele>63.58</ele>
        <time>2017-03-12T14:38:19Z</time>
      </trkpt>
      <trkpt lat="50.6786" lon="4.20771">
        <ele>64.55</ele>
        <time>2017-03-12T14:38:26Z</time>
      </trkpt>
      <trkpt lat="50.67859" lon="4.20768">
        <ele>62.62</ele>
        <time>2017-03-12T14:38:28Z</time>
      </trkpt>
      <trkpt lat="50.67857" lon="4.20766">
        <ele>64.07</ele>
        <time>2017-03-12T14:38:31Z</time>
      </trkpt>
      <trkpt lat="50.67848" lon="4.20761">
        <ele>65.03</ele>
        <time>2017-03-12T14:38:36Z</time>
      </trkpt>
      <trkpt lat="50.67845" lon="4.20758">
        <ele>63.58</ele>
        <time>2017-03-12T14:38:38Z</time>
      </trkpt>
      <trkpt lat="50.67833" lon="4.20736">
        <ele>64.07</ele>
        <time>2017-03-12T14:38:59Z</time>
      </trkpt>
      <trkpt lat="50.67834" lon="4.20728">
        <ele>62.62</ele>
        <time>2017-03-12T14:39:10Z</time>
      </trkpt>
      <trkpt lat="50.67834" lon="4.20725">
        <ele>62.14</ele>
        <time>2017-03-12T14:39:12Z</time>
      </trkpt>
      <trkpt lat="50.67843" lon="4.20692">
        <ele>60.7</ele>
        <time>2017-03-12T14:39:31Z</time>
      </trkpt>
      <trkpt lat="50.67856" lon="4.20658">
        <ele>58.3</ele>
        <time>2017-03-12T14:39:51Z</time>
      </trkpt>
      <trkpt lat="50.6786" lon="4.20648">
        <ele>59.26</ele>
        <time>2017-03-12T14:39:56Z</time>
      </trkpt>
      <trkpt lat="50.67861" lon="4.20644">
        <ele>57.82</ele>
        <time>2017-03-12T14:39:59Z</time>
      </trkpt>
      <trkpt lat="50.67866" lon="4.2063">
        <ele>59.26</ele>
        <time>2017-03-12T14:40:08Z</time>
      </trkpt>
      <trkpt lat="50.67867" lon="4.20627">
        <ele>59.26</ele>
        <time>2017-03-12T14:40:10Z</time>
      </trkpt>
      <trkpt lat="50.67871" lon="4.20618">
        <ele>57.34</ele>
        <time>2017-03-12T14:40:14Z</time>
      </trkpt>
      <trkpt lat="50.67873" lon="4.20613">
        <ele>59.26</ele>
        <time>2017-03-12T14:40:17Z</time>
      </trkpt>
      <trkpt lat="50.67881" lon="4.20596">
        <ele>59.74</ele>
        <time>2017-03-12T14:40:26Z</time>
      </trkpt>
      <trkpt lat="50.67896" lon="4.20567">
        <ele>60.22</ele>
        <time>2017-03-12T14:40:46Z</time>
      </trkpt>
      <trkpt lat="50.67901" lon="4.20561">
        <ele>63.1</ele>
        <time>2017-03-12T14:40:54Z</time>
      </trkpt>
      <trkpt lat="50.679" lon="4.20558">
        <ele>61.66</ele>
        <time>2017-03-12T14:40:56Z</time>
      </trkpt>
      <trkpt lat="50.67902" lon="4.20543">
        <ele>62.14</ele>
        <time>2017-03-12T14:41:06Z</time>
      </trkpt>
      <trkpt lat="50.67922" lon="4.20543">
        <ele>62.62</ele>
        <time>2017-03-12T14:41:25Z</time>
      </trkpt>
      <trkpt lat="50.6793" lon="4.20549">
        <ele>61.18</ele>
        <time>2017-03-12T14:41:32Z</time>
      </trkpt>
      <trkpt lat="50.67942" lon="4.20566">
        <ele>56.37</ele>
        <time>2017-03-12T14:41:43Z</time>
      </trkpt>
      <trkpt lat="50.67943" lon="4.20568">
        <ele>56.37</ele>
        <time>2017-03-12T14:41:45Z</time>
      </trkpt>
      <trkpt lat="50.67944" lon="4.20571">
        <ele>62.62</ele>
        <time>2017-03-12T14:41:46Z</time>
      </trkpt>
      <trkpt lat="50.67945" lon="4.20573">
        <ele>60.7</ele>
        <time>2017-03-12T14:41:47Z</time>
      </trkpt>
      <trkpt lat="50.67956" lon="4.20591">
        <ele>59.26</ele>
        <time>2017-03-12T14:41:58Z</time>
      </trkpt>
      <trkpt lat="50.67957" lon="4.20593">
        <ele>59.74</ele>
        <time>2017-03-12T14:41:59Z</time>
      </trkpt>
      <trkpt lat="50.6797" lon="4.20621">
        <ele>58.78</ele>
        <time>2017-03-12T14:42:15Z</time>
      </trkpt>
      <trkpt lat="50.67971" lon="4.20622">
        <ele>58.78</ele>
        <time>2017-03-12T14:42:16Z</time>
      </trkpt>
      <trkpt lat="50.67973" lon="4.20623">
        <ele>56.86</ele>
        <time>2017-03-12T14:42:18Z</time>
      </trkpt>
      <trkpt lat="50.67976" lon="4.20625">
        <ele>58.3</ele>
        <time>2017-03-12T14:42:20Z</time>
      </trkpt>
      <trkpt lat="50.67978" lon="4.2063">
        <ele>56.86</ele>
        <time>2017-03-12T14:42:22Z</time>
      </trkpt>
      <trkpt lat="50.67994" lon="4.2063">
        <ele>55.41</ele>
        <time>2017-03-12T14:42:36Z</time>
      </trkpt>
      <trkpt lat="50.67997" lon="4.2063">
        <ele>57.34</ele>
        <time>2017-03-12T14:42:38Z</time>
      </trkpt>
      <trkpt lat="50.68" lon="4.2063">
        <ele>55.89</ele>
        <time>2017-03-12T14:42:40Z</time>
      </trkpt>
      <trkpt lat="50.68027" lon="4.20613">
        <ele>56.37</ele>
        <time>2017-03-12T14:43:02Z</time>
      </trkpt>
      <trkpt lat="50.68032" lon="4.2061">
        <ele>54.93</ele>
        <time>2017-03-12T14:43:04Z</time>
      </trkpt>
      <trkpt lat="50.68052" lon="4.20599">
        <ele>53.97</ele>
        <time>2017-03-12T14:43:19Z</time>
      </trkpt>
      <trkpt lat="50.68058" lon="4.20596">
        <ele>54.45</ele>
        <time>2017-03-12T14:43:25Z</time>
      </trkpt>
      <trkpt lat="50.68077" lon="4.20598">
        <ele>51.09</ele>
        <time>2017-03-12T14:43:45Z</time>
      </trkpt>
      <trkpt lat="50.68102" lon="4.20596">
        <ele>50.61</ele>
        <time>2017-03-12T14:44:03Z</time>
      </trkpt>
      <trkpt lat="50.68124" lon="4.20592">
        <ele>49.16</ele>
        <time>2017-03-12T14:44:20Z</time>
      </trkpt>
      <trkpt lat="50.68136" lon="4.20589">
        <ele>48.2</ele>
        <time>2017-03-12T14:44:30Z</time>
      </trkpt>
      <trkpt lat="50.68159" lon="4.20592">
        <ele>47.24</ele>
        <time>2017-03-12T14:44:48Z</time>
      </trkpt>
      <trkpt lat="50.68181" lon="4.20606">
        <ele>46.76</ele>
        <time>2017-03-12T14:45:04Z</time>
      </trkpt>
      <trkpt lat="50.68191" lon="4.2061">
        <ele>47.24</ele>
        <time>2017-03-12T14:45:11Z</time>
      </trkpt>
      <trkpt lat="50.68194" lon="4.20612">
        <ele>46.28</ele>
        <time>2017-03-12T14:45:14Z</time>
      </trkpt>
      <trkpt lat="50.682" lon="4.20611">
        <ele>46.76</ele>
        <time>2017-03-12T14:45:23Z</time>
      </trkpt>
      <trkpt lat="50.68223" lon="4.20593">
        <ele>45.32</ele>
        <time>2017-03-12T14:45:43Z</time>
      </trkpt>
      <trkpt lat="50.68225" lon="4.20593">
        <ele>43.4</ele>
        <time>2017-03-12T14:45:46Z</time>
      </trkpt>
      <trkpt lat="50.68236" lon="4.20586">
        <ele>42.44</ele>
        <time>2017-03-12T14:45:58Z</time>
      </trkpt>
      <trkpt lat="50.68238" lon="4.20583">
        <ele>43.88</ele>
        <time>2017-03-12T14:46:00Z</time>
      </trkpt>
      <trkpt lat="50.68252" lon="4.2056">
        <ele>42.92</ele>
        <time>2017-03-12T14:46:19Z</time>
      </trkpt>
      <trkpt lat="50.68256" lon="4.2055">
        <ele>43.4</ele>
        <time>2017-03-12T14:46:33Z</time>
      </trkpt>
      <trkpt lat="50.68266" lon="4.20535">
        <ele>42.44</ele>
        <time>2017-03-12T14:46:52Z</time>
      </trkpt>
      <trkpt lat="50.68287" lon="4.20507">
        <ele>44.36</ele>
        <time>2017-03-12T14:47:11Z</time>
      </trkpt>
      <trkpt lat="50.68288" lon="4.20505">
        <ele>42.92</ele>
        <time>2017-03-12T14:47:13Z</time>
      </trkpt>
      <trkpt lat="50.68298" lon="4.20484">
        <ele>44.36</ele>
        <time>2017-03-12T14:47:23Z</time>
      </trkpt>
      <trkpt lat="50.68309" lon="4.20488">
        <ele>45.32</ele>
        <time>2017-03-12T14:47:33Z</time>
      </trkpt>
      <trkpt lat="50.68314" lon="4.20485">
        <ele>43.4</ele>
        <time>2017-03-12T14:47:41Z</time>
      </trkpt>
      <trkpt lat="50.68314" lon="4.20483">
        <ele>45.8</ele>
        <time>2017-03-12T14:47:43Z</time>
      </trkpt>
      <trkpt lat="50.68317" lon="4.20479">
        <ele>46.28</ele>
        <time>2017-03-12T14:47:48Z</time>
      </trkpt>
      <trkpt lat="50.68321" lon="4.20478">
        <ele>46.28</ele>
        <time>2017-03-12T14:47:53Z</time>
      </trkpt>
      <trkpt lat="50.68325" lon="4.20476">
        <ele>44.84</ele>
        <time>2017-03-12T14:47:56Z</time>
      </trkpt>
      <trkpt lat="50.6836" lon="4.20449">
        <ele>45.32</ele>
        <time>2017-03-12T14:48:13Z</time>
      </trkpt>
      <trkpt lat="50.68365" lon="4.2045">
        <ele>46.28</ele>
        <time>2017-03-12T14:48:18Z</time>
      </trkpt>
      <trkpt lat="50.68368" lon="4.2045">
        <ele>44.36</ele>
        <time>2017-03-12T14:48:20Z</time>
      </trkpt>
      <trkpt lat="50.68371" lon="4.20449">
        <ele>45.8</ele>
        <time>2017-03-12T14:48:22Z</time>
      </trkpt>
      <trkpt lat="50.68382" lon="4.2045">
        <ele>45.32</ele>
        <time>2017-03-12T14:48:31Z</time>
      </trkpt>
      <trkpt lat="50.68387" lon="4.20452">
        <ele>46.76</ele>
        <time>2017-03-12T14:48:35Z</time>
      </trkpt>
      <trkpt lat="50.68397" lon="4.20448">
        <ele>44.84</ele>
        <time>2017-03-12T14:48:55Z</time>
      </trkpt>
      <trkpt lat="50.68414" lon="4.20394">
        <ele>42.92</ele>
        <time>2017-03-12T14:49:14Z</time>
      </trkpt>
      <trkpt lat="50.68424" lon="4.20352">
        <ele>40.03</ele>
        <time>2017-03-12T14:49:34Z</time>
      </trkpt>
      <trkpt lat="50.68433" lon="4.20323">
        <ele>37.15</ele>
        <time>2017-03-12T14:49:53Z</time>
      </trkpt>
      <trkpt lat="50.68438" lon="4.20279">
        <ele>36.67</ele>
        <time>2017-03-12T14:50:14Z</time>
      </trkpt>
      <trkpt lat="50.68443" lon="4.20274">
        <ele>37.15</ele>
        <time>2017-03-12T14:50:33Z</time>
      </trkpt>
      <trkpt lat="50.6844" lon="4.20278">
        <ele>38.11</ele>
        <time>2017-03-12T14:51:02Z</time>
      </trkpt>
      <trkpt lat="50.68439" lon="4.20281">
        <ele>37.15</ele>
        <time>2017-03-12T14:51:05Z</time>
      </trkpt>
      <trkpt lat="50.68446" lon="4.20296">
        <ele>37.63</ele>
        <time>2017-03-12T14:51:23Z</time>
      </trkpt>
      <trkpt lat="50.68457" lon="4.20295">
        <ele>37.63</ele>
        <time>2017-03-12T14:51:32Z</time>
      </trkpt>
      <trkpt lat="50.68474" lon="4.20298">
        <ele>36.67</ele>
        <time>2017-03-12T14:51:44Z</time>
      </trkpt>
      <trkpt lat="50.68478" lon="4.20297">
        <ele>37.63</ele>
        <time>2017-03-12T14:51:47Z</time>
      </trkpt>
      <trkpt lat="50.68506" lon="4.20297">
        <ele>36.67</ele>
        <time>2017-03-12T14:52:08Z</time>
      </trkpt>
      <trkpt lat="50.68512" lon="4.20305">
        <ele>37.63</ele>
        <time>2017-03-12T14:52:15Z</time>
      </trkpt>
      <trkpt lat="50.68521" lon="4.20309">
        <ele>36.67</ele>
        <time>2017-03-12T14:52:23Z</time>
      </trkpt>
      <trkpt lat="50.68535" lon="4.20301">
        <ele>36.19</ele>
        <time>2017-03-12T14:52:37Z</time>
      </trkpt>
      <trkpt lat="50.68539" lon="4.20296">
        <ele>37.63</ele>
        <time>2017-03-12T14:52:44Z</time>
      </trkpt>
      <trkpt lat="50.68542" lon="4.20292">
        <ele>35.71</ele>
        <time>2017-03-12T14:53:02Z</time>
      </trkpt>
      <trkpt lat="50.68547" lon="4.2025">
        <ele>34.26</ele>
        <time>2017-03-12T14:53:15Z</time>
      </trkpt>
      <trkpt lat="50.68526" lon="4.20233">
        <ele>34.74</ele>
        <time>2017-03-12T14:53:34Z</time>
      </trkpt>
      <trkpt lat="50.68525" lon="4.20232">
        <ele>34.74</ele>
        <time>2017-03-12T14:53:35Z</time>
      </trkpt>
      <trkpt lat="50.685" lon="4.20223">
        <ele>34.26</ele>
        <time>2017-03-12T14:53:53Z</time>
      </trkpt>
      <trkpt lat="50.68486" lon="4.20213">
        <ele>33.78</ele>
        <time>2017-03-12T14:54:05Z</time>
      </trkpt>
      <trkpt lat="50.68474" lon="4.20205">
        <ele>35.71</ele>
        <time>2017-03-12T14:54:16Z</time>
      </trkpt>
      <trkpt lat="50.68472" lon="4.20198">
        <ele>34.26</ele>
        <time>2017-03-12T14:54:19Z</time>
      </trkpt>
      <trkpt lat="50.68473" lon="4.20173">
        <ele>35.71</ele>
        <time>2017-03-12T14:54:36Z</time>
      </trkpt>
      <trkpt lat="50.68473" lon="4.20161">
        <ele>34.26</ele>
        <time>2017-03-12T14:54:47Z</time>
      </trkpt>
      <trkpt lat="50.68473" lon="4.20151">
        <ele>35.71</ele>
        <time>2017-03-12T14:54:53Z</time>
      </trkpt>
      <trkpt lat="50.68475" lon="4.20139">
        <ele>35.71</ele>
        <time>2017-03-12T14:55:08Z</time>
      </trkpt>
    </trkseg>
  </trk>
</gpx>